<?xml version="1.0" encoding="UTF-8"?>
<gpx version="1.1" creator="https://www.youtrack.es" xsi:schemaLocation="http://www.topografix.com/GPX/1/1 http://www.topografix.com/GPX/1/1/gpx.xsd http://www.garmin.com/xmlschemas/GpxExtensions/v3 http://www.garmin.com/xmlschemas/GpxExtensionsv3.xsd http://www.garmin.com/xmlschemas/TrackPointExtension/v1 http://www.garmin.com/xmlschemas/TrackPointExtensionv1.xsd" xmlns:gpxtpx="http://www.garmin.com/xmlschemas/TrackPointExtension/v1" xmlns:gpxx="http://www.garmin.com/xmlschemas/GpxExtensions/v3" xmlns:xsi="http://www.w3.org/2001/XMLSchema-instance">
  <metadata>
    <link href="https://www.youtrack.es">
      <text>YouTrack.es</text>
    </link>
    <time>2026-05-08T08:27:50Z</time>
  </metadata>
  <trk>
    <src>https://www.youtrack.es</src>
    <link href="https://www.youtrack.es/ruta/3575-la-mola">
      <text>YouTrack.es</text>
    </link>
    <trkseg>
      <trkpt lat="41.6684684753418" lon="1.9937000274658203">
        <ele>865.0126953125</ele>
        <time>2018-11-25T08:58:41Z</time>
      </trkpt>
      <trkpt lat="41.668460845947266" lon="1.9937183856964111">
        <ele>865.0126953125</ele>
        <time>2018-11-25T08:58:42Z</time>
      </trkpt>
      <trkpt lat="41.66846466064453" lon="1.9937366247177124">
        <ele>865.0126953125</ele>
        <time>2018-11-25T08:58:43Z</time>
      </trkpt>
      <trkpt lat="41.668460845947266" lon="1.993749976158142">
        <ele>866.5581665039063</ele>
        <time>2018-11-25T08:58:44Z</time>
      </trkpt>
      <trkpt lat="41.66846466064453" lon="1.993761658668518">
        <ele>866.5581665039063</ele>
        <time>2018-11-25T08:58:45Z</time>
      </trkpt>
      <trkpt lat="41.66848373413086" lon="1.9937766790390015">
        <ele>866.5581665039063</ele>
        <time>2018-11-25T08:58:46Z</time>
      </trkpt>
      <trkpt lat="41.66849899291992" lon="1.9937916994094849">
        <ele>866.5581665039063</ele>
        <time>2018-11-25T08:58:47Z</time>
      </trkpt>
      <trkpt lat="41.668514251708984" lon="1.9938050508499146">
        <ele>866.5581665039063</ele>
        <time>2018-11-25T08:58:48Z</time>
      </trkpt>
      <trkpt lat="41.66852569580078" lon="1.9938132762908936">
        <ele>866.5581665039063</ele>
        <time>2018-11-25T08:58:49Z</time>
      </trkpt>
      <trkpt lat="41.66856002807617" lon="1.9938349723815918">
        <ele>866.5581665039063</ele>
        <time>2018-11-25T08:58:51Z</time>
      </trkpt>
      <trkpt lat="41.66859817504883" lon="1.9938700199127197">
        <ele>866.5581665039063</ele>
        <time>2018-11-25T08:58:54Z</time>
      </trkpt>
      <trkpt lat="41.66865158081055" lon="1.9939082860946655">
        <ele>866.5581665039063</ele>
        <time>2018-11-25T08:58:57Z</time>
      </trkpt>
      <trkpt lat="41.66871643066406" lon="1.993939995765686">
        <ele>867.9218139648438</ele>
        <time>2018-11-25T08:59:00Z</time>
      </trkpt>
      <trkpt lat="41.66874694824219" lon="1.993975043296814">
        <ele>867.9218139648438</ele>
        <time>2018-11-25T08:59:04Z</time>
      </trkpt>
      <trkpt lat="41.66880416870117" lon="1.994018316268921">
        <ele>867.9218139648438</ele>
        <time>2018-11-25T08:59:09Z</time>
      </trkpt>
      <trkpt lat="41.66884231567383" lon="1.994046688079834">
        <ele>867.9218139648438</ele>
        <time>2018-11-25T08:59:12Z</time>
      </trkpt>
      <trkpt lat="41.668888092041016" lon="1.9940890073776245">
        <ele>869.2854614257813</ele>
        <time>2018-11-25T08:59:17Z</time>
      </trkpt>
      <trkpt lat="41.66893005371094" lon="1.9941129684448242">
        <ele>869.2854614257813</ele>
        <time>2018-11-25T08:59:20Z</time>
      </trkpt>
      <trkpt lat="41.66898727416992" lon="1.9941610097885132">
        <ele>870.5581665039063</ele>
        <time>2018-11-25T08:59:25Z</time>
      </trkpt>
      <trkpt lat="41.669036865234375" lon="1.9942020177841187">
        <ele>871.739990234375</ele>
        <time>2018-11-25T08:59:29Z</time>
      </trkpt>
      <trkpt lat="41.6690673828125" lon="1.9942456483840942">
        <ele>871.739990234375</ele>
        <time>2018-11-25T08:59:36Z</time>
      </trkpt>
      <trkpt lat="41.66910171508789" lon="1.994284987449646">
        <ele>871.739990234375</ele>
        <time>2018-11-25T08:59:43Z</time>
      </trkpt>
      <trkpt lat="41.669158935546875" lon="1.9943230152130127">
        <ele>871.739990234375</ele>
        <time>2018-11-25T08:59:50Z</time>
      </trkpt>
      <trkpt lat="41.66920852661133" lon="1.9943513870239258">
        <ele>873.1036376953125</ele>
        <time>2018-11-25T08:59:54Z</time>
      </trkpt>
      <trkpt lat="41.66925811767578" lon="1.9943870306015015">
        <ele>873.1036376953125</ele>
        <time>2018-11-25T08:59:58Z</time>
      </trkpt>
      <trkpt lat="41.669315338134766" lon="1.9944252967834473">
        <ele>874.2854614257813</ele>
        <time>2018-11-25T09:00:02Z</time>
      </trkpt>
      <trkpt lat="41.66935348510742" lon="1.9944390058517456">
        <ele>874.2854614257813</ele>
        <time>2018-11-25T09:00:07Z</time>
      </trkpt>
      <trkpt lat="41.66938400268555" lon="1.9944989681243896">
        <ele>874.2854614257813</ele>
        <time>2018-11-25T09:00:14Z</time>
      </trkpt>
      <trkpt lat="41.669429779052734" lon="1.9945273399353027">
        <ele>874.2854614257813</ele>
        <time>2018-11-25T09:00:21Z</time>
      </trkpt>
      <trkpt lat="41.669498443603516" lon="1.9945462942123413">
        <ele>874.2854614257813</ele>
        <time>2018-11-25T09:00:27Z</time>
      </trkpt>
      <trkpt lat="41.6695442199707" lon="1.9945623874664307">
        <ele>874.2854614257813</ele>
        <time>2018-11-25T09:00:31Z</time>
      </trkpt>
      <trkpt lat="41.669593811035156" lon="1.9945863485336304">
        <ele>874.2854614257813</ele>
        <time>2018-11-25T09:00:37Z</time>
      </trkpt>
      <trkpt lat="41.66965103149414" lon="1.9945963621139526">
        <ele>874.2854614257813</ele>
        <time>2018-11-25T09:00:43Z</time>
      </trkpt>
      <trkpt lat="41.66970443725586" lon="1.9946246147155762">
        <ele>874.2854614257813</ele>
        <time>2018-11-25T09:00:48Z</time>
      </trkpt>
      <trkpt lat="41.66975402832031" lon="1.9946963787078857">
        <ele>874.2854614257813</ele>
        <time>2018-11-25T09:00:53Z</time>
      </trkpt>
      <trkpt lat="41.66978454589844" lon="1.99474036693573">
        <ele>874.2854614257813</ele>
        <time>2018-11-25T09:00:56Z</time>
      </trkpt>
      <trkpt lat="41.66980743408203" lon="1.9947832822799683">
        <ele>874.2854614257813</ele>
        <time>2018-11-25T09:01:01Z</time>
      </trkpt>
      <trkpt lat="41.66984176635742" lon="1.9948339462280273">
        <ele>874.2854614257813</ele>
        <time>2018-11-25T09:01:24Z</time>
      </trkpt>
      <trkpt lat="41.66968536376953" lon="1.99454927444458">
        <ele>874.2854614257813</ele>
        <time>2018-11-25T09:01:47Z</time>
      </trkpt>
      <trkpt lat="41.669677734375" lon="1.9945346117019653">
        <ele>874.2854614257813</ele>
        <time>2018-11-25T09:01:49Z</time>
      </trkpt>
      <trkpt lat="41.669673919677734" lon="1.994654655456543">
        <ele>874.2854614257813</ele>
        <time>2018-11-25T09:01:55Z</time>
      </trkpt>
      <trkpt lat="41.669677734375" lon="1.9947006702423096">
        <ele>874.2854614257813</ele>
        <time>2018-11-25T09:01:57Z</time>
      </trkpt>
      <trkpt lat="41.669677734375" lon="1.9948170185089111">
        <ele>874.2854614257813</ele>
        <time>2018-11-25T09:02:01Z</time>
      </trkpt>
      <trkpt lat="41.669677734375" lon="1.9949123859405518">
        <ele>874.2854614257813</ele>
        <time>2018-11-25T09:02:03Z</time>
      </trkpt>
      <trkpt lat="41.669677734375" lon="1.99494469165802">
        <ele>874.2854614257813</ele>
        <time>2018-11-25T09:02:06Z</time>
      </trkpt>
      <trkpt lat="41.669681549072266" lon="1.9949246644973755">
        <ele>874.2854614257813</ele>
        <time>2018-11-25T09:02:10Z</time>
      </trkpt>
      <trkpt lat="41.669654846191406" lon="1.9948803186416626">
        <ele>874.2854614257813</ele>
        <time>2018-11-25T09:02:18Z</time>
      </trkpt>
      <trkpt lat="41.66960906982422" lon="1.9948556423187256">
        <ele>874.2854614257813</ele>
        <time>2018-11-25T09:02:20Z</time>
      </trkpt>
      <trkpt lat="41.66965103149414" lon="1.9948370456695557">
        <ele>874.2854614257813</ele>
        <time>2018-11-25T09:02:24Z</time>
      </trkpt>
      <trkpt lat="41.669677734375" lon="1.9947689771652222">
        <ele>874.2854614257813</ele>
        <time>2018-11-25T09:02:31Z</time>
      </trkpt>
      <trkpt lat="41.66969299316406" lon="1.9947082996368408">
        <ele>874.2854614257813</ele>
        <time>2018-11-25T09:02:33Z</time>
      </trkpt>
      <trkpt lat="41.669681549072266" lon="1.9946366548538208">
        <ele>874.2854614257813</ele>
        <time>2018-11-25T09:02:36Z</time>
      </trkpt>
      <trkpt lat="41.669681549072266" lon="1.9946969747543335">
        <ele>874.2854614257813</ele>
        <time>2018-11-25T09:02:39Z</time>
      </trkpt>
      <trkpt lat="41.66971969604492" lon="1.9944666624069214">
        <ele>874.2854614257813</ele>
        <time>2018-11-25T09:03:09Z</time>
      </trkpt>
      <trkpt lat="41.669708251953125" lon="1.9944707155227661">
        <ele>874.2854614257813</ele>
        <time>2018-11-25T09:03:10Z</time>
      </trkpt>
      <trkpt lat="41.66971206665039" lon="1.9945509433746338">
        <ele>874.2854614257813</ele>
        <time>2018-11-25T09:03:13Z</time>
      </trkpt>
      <trkpt lat="41.66965103149414" lon="1.9944469928741455">
        <ele>874.2854614257813</ele>
        <time>2018-11-25T09:03:16Z</time>
      </trkpt>
      <trkpt lat="41.669673919677734" lon="1.994452953338623">
        <ele>874.2854614257813</ele>
        <time>2018-11-25T09:03:18Z</time>
      </trkpt>
      <trkpt lat="41.66971969604492" lon="1.9944086074829102">
        <ele>874.2854614257813</ele>
        <time>2018-11-25T09:03:21Z</time>
      </trkpt>
      <trkpt lat="41.66975402832031" lon="1.9944339990615845">
        <ele>874.2854614257813</ele>
        <time>2018-11-25T09:03:24Z</time>
      </trkpt>
      <trkpt lat="41.66972732543945" lon="1.9944453239440918">
        <ele>874.2854614257813</ele>
        <time>2018-11-25T09:03:28Z</time>
      </trkpt>
      <trkpt lat="41.66974639892578" lon="1.9944806098937988">
        <ele>879.9218139648438</ele>
        <time>2018-11-25T09:03:33Z</time>
      </trkpt>
      <trkpt lat="41.6697998046875" lon="1.9945147037506104">
        <ele>879.9218139648438</ele>
        <time>2018-11-25T09:03:37Z</time>
      </trkpt>
      <trkpt lat="41.66986083984375" lon="1.9945703744888306">
        <ele>881.1945190429688</ele>
        <time>2018-11-25T09:03:41Z</time>
      </trkpt>
      <trkpt lat="41.66990280151367" lon="1.9946049451828003">
        <ele>882.5581665039063</ele>
        <time>2018-11-25T09:03:43Z</time>
      </trkpt>
      <trkpt lat="41.669952392578125" lon="1.9946836233139038">
        <ele>882.5581665039063</ele>
        <time>2018-11-25T09:03:47Z</time>
      </trkpt>
      <trkpt lat="41.66997146606445" lon="1.9947509765625">
        <ele>882.5581665039063</ele>
        <time>2018-11-25T09:03:49Z</time>
      </trkpt>
      <trkpt lat="41.66999435424805" lon="1.994810700416565">
        <ele>883.739990234375</ele>
        <time>2018-11-25T09:03:51Z</time>
      </trkpt>
      <trkpt lat="41.67002868652344" lon="1.994874358177185">
        <ele>883.739990234375</ele>
        <time>2018-11-25T09:03:54Z</time>
      </trkpt>
      <trkpt lat="41.67005920410156" lon="1.9949326515197754">
        <ele>884.9218139648438</ele>
        <time>2018-11-25T09:03:58Z</time>
      </trkpt>
      <trkpt lat="41.67009735107422" lon="1.9949926137924194">
        <ele>886.2854614257813</ele>
        <time>2018-11-25T09:04:02Z</time>
      </trkpt>
      <trkpt lat="41.67013931274414" lon="1.995052695274353">
        <ele>887.46728515625</ele>
        <time>2018-11-25T09:04:06Z</time>
      </trkpt>
      <trkpt lat="41.67015075683594" lon="1.995132327079773">
        <ele>888.6491088867188</ele>
        <time>2018-11-25T09:04:12Z</time>
      </trkpt>
      <trkpt lat="41.670162200927734" lon="1.9951883554458618">
        <ele>888.6491088867188</ele>
        <time>2018-11-25T09:04:15Z</time>
      </trkpt>
      <trkpt lat="41.67015838623047" lon="1.9952806234359741">
        <ele>891.46728515625</ele>
        <time>2018-11-25T09:04:20Z</time>
      </trkpt>
      <trkpt lat="41.670143127441406" lon="1.9953546524047852">
        <ele>892.739990234375</ele>
        <time>2018-11-25T09:04:24Z</time>
      </trkpt>
      <trkpt lat="41.670108795166016" lon="1.995423674583435">
        <ele>892.739990234375</ele>
        <time>2018-11-25T09:04:28Z</time>
      </trkpt>
      <trkpt lat="41.67008972167969" lon="1.9954816102981567">
        <ele>895.2854614257813</ele>
        <time>2018-11-25T09:04:31Z</time>
      </trkpt>
      <trkpt lat="41.67006301879883" lon="1.995542049407959">
        <ele>895.2854614257813</ele>
        <time>2018-11-25T09:04:36Z</time>
      </trkpt>
      <trkpt lat="41.6700325012207" lon="1.9956090450286865">
        <ele>896.46728515625</ele>
        <time>2018-11-25T09:04:41Z</time>
      </trkpt>
      <trkpt lat="41.67003631591797" lon="1.995676040649414">
        <ele>897.739990234375</ele>
        <time>2018-11-25T09:04:45Z</time>
      </trkpt>
      <trkpt lat="41.67005157470703" lon="1.9957679510116577">
        <ele>897.739990234375</ele>
        <time>2018-11-25T09:04:51Z</time>
      </trkpt>
      <trkpt lat="41.67006301879883" lon="1.9958386421203613">
        <ele>898.9218139648438</ele>
        <time>2018-11-25T09:04:56Z</time>
      </trkpt>
      <trkpt lat="41.670074462890625" lon="1.99590265750885">
        <ele>900.1945190429688</ele>
        <time>2018-11-25T09:05:01Z</time>
      </trkpt>
      <trkpt lat="41.67011642456055" lon="1.9959603548049927">
        <ele>900.1945190429688</ele>
        <time>2018-11-25T09:05:06Z</time>
      </trkpt>
      <trkpt lat="41.670127868652344" lon="1.9960243701934814">
        <ele>901.5581665039063</ele>
        <time>2018-11-25T09:05:12Z</time>
      </trkpt>
      <trkpt lat="41.670143127441406" lon="1.9960936307907104">
        <ele>902.739990234375</ele>
        <time>2018-11-25T09:05:17Z</time>
      </trkpt>
      <trkpt lat="41.670169830322266" lon="1.996173620223999">
        <ele>904.0126953125</ele>
        <time>2018-11-25T09:05:21Z</time>
      </trkpt>
      <trkpt lat="41.67018127441406" lon="1.996238350868225">
        <ele>904.0126953125</ele>
        <time>2018-11-25T09:05:26Z</time>
      </trkpt>
      <trkpt lat="41.670188903808594" lon="1.9963209629058838">
        <ele>905.1945190429688</ele>
        <time>2018-11-25T09:05:32Z</time>
      </trkpt>
      <trkpt lat="41.670223236083984" lon="1.9963760375976563">
        <ele>906.4672241210938</ele>
        <time>2018-11-25T09:05:36Z</time>
      </trkpt>
      <trkpt lat="41.67023468017578" lon="1.9964383840560913">
        <ele>907.6490478515625</ele>
        <time>2018-11-25T09:05:41Z</time>
      </trkpt>
      <trkpt lat="41.670249938964844" lon="1.9965180158615112">
        <ele>908.9217529296875</ele>
        <time>2018-11-25T09:05:46Z</time>
      </trkpt>
      <trkpt lat="41.67027282714844" lon="1.9965866804122925">
        <ele>910.1035766601563</ele>
        <time>2018-11-25T09:05:51Z</time>
      </trkpt>
      <trkpt lat="41.6702995300293" lon="1.9966650009155273">
        <ele>910.1035766601563</ele>
        <time>2018-11-25T09:06:07Z</time>
      </trkpt>
      <trkpt lat="41.670345306396484" lon="1.996727705001831">
        <ele>910.1035766601563</ele>
        <time>2018-11-25T09:06:11Z</time>
      </trkpt>
      <trkpt lat="41.67037582397461" lon="1.9967713356018066">
        <ele>912.6489868164063</ele>
        <time>2018-11-25T09:06:14Z</time>
      </trkpt>
      <trkpt lat="41.6703987121582" lon="1.9968329668045044">
        <ele>912.6489868164063</ele>
        <time>2018-11-25T09:06:18Z</time>
      </trkpt>
      <trkpt lat="41.67042922973633" lon="1.9968923330307007">
        <ele>913.830810546875</ele>
        <time>2018-11-25T09:06:23Z</time>
      </trkpt>
      <trkpt lat="41.670440673828125" lon="1.9969513416290283">
        <ele>915.0126342773438</ele>
        <time>2018-11-25T09:06:30Z</time>
      </trkpt>
      <trkpt lat="41.67045211791992" lon="1.997023344039917">
        <ele>916.1944580078125</ele>
        <time>2018-11-25T09:06:43Z</time>
      </trkpt>
      <trkpt lat="41.67045211791992" lon="1.997092366218567">
        <ele>917.3762817382813</ele>
        <time>2018-11-25T09:06:48Z</time>
      </trkpt>
      <trkpt lat="41.670467376708984" lon="1.997167706489563">
        <ele>917.3762817382813</ele>
        <time>2018-11-25T09:06:54Z</time>
      </trkpt>
      <trkpt lat="41.67047882080078" lon="1.9972317218780518">
        <ele>918.6489868164063</ele>
        <time>2018-11-25T09:06:59Z</time>
      </trkpt>
      <trkpt lat="41.670494079589844" lon="1.9972970485687256">
        <ele>918.6489868164063</ele>
        <time>2018-11-25T09:07:04Z</time>
      </trkpt>
      <trkpt lat="41.67050552368164" lon="1.997367024421692">
        <ele>919.830810546875</ele>
        <time>2018-11-25T09:07:10Z</time>
      </trkpt>
      <trkpt lat="41.6705207824707" lon="1.9974366426467896">
        <ele>921.0126342773438</ele>
        <time>2018-11-25T09:07:16Z</time>
      </trkpt>
      <trkpt lat="41.6705436706543" lon="1.9975030422210693">
        <ele>921.0126342773438</ele>
        <time>2018-11-25T09:07:21Z</time>
      </trkpt>
      <trkpt lat="41.670562744140625" lon="1.9975746870040894">
        <ele>919.830810546875</ele>
        <time>2018-11-25T09:07:26Z</time>
      </trkpt>
      <trkpt lat="41.67057800292969" lon="1.9976422786712646">
        <ele>919.830810546875</ele>
        <time>2018-11-25T09:07:31Z</time>
      </trkpt>
      <trkpt lat="41.67058563232422" lon="1.9977036714553833">
        <ele>919.830810546875</ele>
        <time>2018-11-25T09:07:48Z</time>
      </trkpt>
      <trkpt lat="41.67060852050781" lon="1.9977879524230957">
        <ele>919.830810546875</ele>
        <time>2018-11-25T09:07:54Z</time>
      </trkpt>
      <trkpt lat="41.67063522338867" lon="1.9978597164154053">
        <ele>919.830810546875</ele>
        <time>2018-11-25T09:07:59Z</time>
      </trkpt>
      <trkpt lat="41.67066192626953" lon="1.9979223012924194">
        <ele>919.830810546875</ele>
        <time>2018-11-25T09:08:03Z</time>
      </trkpt>
      <trkpt lat="41.670692443847656" lon="1.9979866743087769">
        <ele>919.830810546875</ele>
        <time>2018-11-25T09:08:07Z</time>
      </trkpt>
      <trkpt lat="41.67071533203125" lon="1.9980340003967285">
        <ele>919.830810546875</ele>
        <time>2018-11-25T09:08:13Z</time>
      </trkpt>
      <trkpt lat="41.67069625854492" lon="1.9980759620666504">
        <ele>919.830810546875</ele>
        <time>2018-11-25T09:08:28Z</time>
      </trkpt>
      <trkpt lat="41.670684814453125" lon="1.9981592893600464">
        <ele>919.830810546875</ele>
        <time>2018-11-25T09:08:34Z</time>
      </trkpt>
      <trkpt lat="41.67066955566406" lon="1.9982362985610962">
        <ele>919.830810546875</ele>
        <time>2018-11-25T09:08:38Z</time>
      </trkpt>
      <trkpt lat="41.670658111572266" lon="1.9983019828796387">
        <ele>919.830810546875</ele>
        <time>2018-11-25T09:08:42Z</time>
      </trkpt>
      <trkpt lat="41.67063522338867" lon="1.998365044593811">
        <ele>919.830810546875</ele>
        <time>2018-11-25T09:08:50Z</time>
      </trkpt>
      <trkpt lat="41.670631408691406" lon="1.9984246492385864">
        <ele>921.103515625</ele>
        <time>2018-11-25T09:09:26Z</time>
      </trkpt>
      <trkpt lat="41.670623779296875" lon="1.9985026121139526">
        <ele>921.103515625</ele>
        <time>2018-11-25T09:09:30Z</time>
      </trkpt>
      <trkpt lat="41.670623779296875" lon="1.998573660850525">
        <ele>922.2853393554688</ele>
        <time>2018-11-25T09:09:35Z</time>
      </trkpt>
      <trkpt lat="41.67063522338867" lon="1.9985949993133545">
        <ele>922.2853393554688</ele>
        <time>2018-11-25T09:09:53Z</time>
      </trkpt>
      <trkpt lat="41.67063522338867" lon="1.998671054840088">
        <ele>923.4671630859375</ele>
        <time>2018-11-25T09:09:56Z</time>
      </trkpt>
      <trkpt lat="41.67064666748047" lon="1.9987527132034302">
        <ele>923.4671630859375</ele>
        <time>2018-11-25T09:10:01Z</time>
      </trkpt>
      <trkpt lat="41.670654296875" lon="1.99882972240448">
        <ele>923.4671630859375</ele>
        <time>2018-11-25T09:10:05Z</time>
      </trkpt>
      <trkpt lat="41.670654296875" lon="1.9989039897918701">
        <ele>924.6489868164063</ele>
        <time>2018-11-25T09:10:09Z</time>
      </trkpt>
      <trkpt lat="41.670650482177734" lon="1.9989666938781738">
        <ele>925.830810546875</ele>
        <time>2018-11-25T09:10:13Z</time>
      </trkpt>
      <trkpt lat="41.67063903808594" lon="1.9990509748458862">
        <ele>925.830810546875</ele>
        <time>2018-11-25T09:10:18Z</time>
      </trkpt>
      <trkpt lat="41.67060470581055" lon="1.9991226196289063">
        <ele>927.0126342773438</ele>
        <time>2018-11-25T09:10:23Z</time>
      </trkpt>
      <trkpt lat="41.67056655883789" lon="1.999174952507019">
        <ele>927.0126342773438</ele>
        <time>2018-11-25T09:10:28Z</time>
      </trkpt>
      <trkpt lat="41.6705322265625" lon="1.9992222785949707">
        <ele>927.0126342773438</ele>
        <time>2018-11-25T09:10:33Z</time>
      </trkpt>
      <trkpt lat="41.670494079589844" lon="1.9992810487747192">
        <ele>927.0126342773438</ele>
        <time>2018-11-25T09:10:39Z</time>
      </trkpt>
      <trkpt lat="41.67046356201172" lon="1.9993343353271484">
        <ele>927.0126342773438</ele>
        <time>2018-11-25T09:10:44Z</time>
      </trkpt>
      <trkpt lat="41.67043685913086" lon="1.999393343925476">
        <ele>927.0126342773438</ele>
        <time>2018-11-25T09:10:49Z</time>
      </trkpt>
      <trkpt lat="41.670387268066406" lon="1.999483346939087">
        <ele>927.0126342773438</ele>
        <time>2018-11-25T09:11:10Z</time>
      </trkpt>
      <trkpt lat="41.67036437988281" lon="1.9995427131652832">
        <ele>927.0126342773438</ele>
        <time>2018-11-25T09:11:13Z</time>
      </trkpt>
      <trkpt lat="41.67036056518555" lon="1.9996116161346436">
        <ele>927.0126342773438</ele>
        <time>2018-11-25T09:11:17Z</time>
      </trkpt>
      <trkpt lat="41.67039108276367" lon="1.9996589422225952">
        <ele>925.830810546875</ele>
        <time>2018-11-25T09:11:21Z</time>
      </trkpt>
      <trkpt lat="41.67043685913086" lon="1.9996936321258545">
        <ele>925.830810546875</ele>
        <time>2018-11-25T09:11:26Z</time>
      </trkpt>
      <trkpt lat="41.67048645019531" lon="1.9997003078460693">
        <ele>925.830810546875</ele>
        <time>2018-11-25T09:11:31Z</time>
      </trkpt>
      <trkpt lat="41.670528411865234" lon="1.9997097253799438">
        <ele>925.830810546875</ele>
        <time>2018-11-25T09:12:11Z</time>
      </trkpt>
      <trkpt lat="41.67057800292969" lon="1.9997186660766602">
        <ele>925.830810546875</ele>
        <time>2018-11-25T09:12:14Z</time>
      </trkpt>
      <trkpt lat="41.670623779296875" lon="1.9997292757034302">
        <ele>924.6489868164063</ele>
        <time>2018-11-25T09:12:17Z</time>
      </trkpt>
      <trkpt lat="41.67068862915039" lon="1.9997466802597046">
        <ele>924.6489868164063</ele>
        <time>2018-11-25T09:12:21Z</time>
      </trkpt>
      <trkpt lat="41.670745849609375" lon="1.999759316444397">
        <ele>924.6489868164063</ele>
        <time>2018-11-25T09:12:25Z</time>
      </trkpt>
      <trkpt lat="41.670799255371094" lon="1.9997669458389282">
        <ele>924.6489868164063</ele>
        <time>2018-11-25T09:12:29Z</time>
      </trkpt>
      <trkpt lat="41.670860290527344" lon="1.9997743368148804">
        <ele>924.6489868164063</ele>
        <time>2018-11-25T09:12:33Z</time>
      </trkpt>
      <trkpt lat="41.670921325683594" lon="1.999786615371704">
        <ele>924.6489868164063</ele>
        <time>2018-11-25T09:12:37Z</time>
      </trkpt>
      <trkpt lat="41.67097473144531" lon="1.9998019933700562">
        <ele>924.6489868164063</ele>
        <time>2018-11-25T09:12:41Z</time>
      </trkpt>
      <trkpt lat="41.6710205078125" lon="1.9998186826705933">
        <ele>924.6489868164063</ele>
        <time>2018-11-25T09:12:45Z</time>
      </trkpt>
      <trkpt lat="41.67107391357422" lon="1.9998406171798706">
        <ele>924.6489868164063</ele>
        <time>2018-11-25T09:12:50Z</time>
      </trkpt>
      <trkpt lat="41.67112350463867" lon="1.9998689889907837">
        <ele>924.6489868164063</ele>
        <time>2018-11-25T09:12:57Z</time>
      </trkpt>
      <trkpt lat="41.67117691040039" lon="1.999899983406067">
        <ele>924.6489868164063</ele>
        <time>2018-11-25T09:13:02Z</time>
      </trkpt>
      <trkpt lat="41.67123031616211" lon="1.9999383687973022">
        <ele>924.6489868164063</ele>
        <time>2018-11-25T09:13:07Z</time>
      </trkpt>
      <trkpt lat="41.6712760925293" lon="1.999977946281433">
        <ele>923.4671630859375</ele>
        <time>2018-11-25T09:13:11Z</time>
      </trkpt>
      <trkpt lat="41.671321868896484" lon="2.0000224113464355">
        <ele>923.4671630859375</ele>
        <time>2018-11-25T09:13:15Z</time>
      </trkpt>
      <trkpt lat="41.67137145996094" lon="2.000070095062256">
        <ele>923.4671630859375</ele>
        <time>2018-11-25T09:13:19Z</time>
      </trkpt>
      <trkpt lat="41.671409606933594" lon="2.0001132488250732">
        <ele>923.4671630859375</ele>
        <time>2018-11-25T09:13:23Z</time>
      </trkpt>
      <trkpt lat="41.67143249511719" lon="2.0001842975616455">
        <ele>923.4671630859375</ele>
        <time>2018-11-25T09:13:26Z</time>
      </trkpt>
      <trkpt lat="41.67145919799805" lon="2.0002477169036865">
        <ele>923.4671630859375</ele>
        <time>2018-11-25T09:13:30Z</time>
      </trkpt>
      <trkpt lat="41.67147445678711" lon="2.000319719314575">
        <ele>923.4671630859375</ele>
        <time>2018-11-25T09:13:34Z</time>
      </trkpt>
      <trkpt lat="41.671478271484375" lon="2.000399351119995">
        <ele>923.4671630859375</ele>
        <time>2018-11-25T09:13:38Z</time>
      </trkpt>
      <trkpt lat="41.671478271484375" lon="2.000481367111206">
        <ele>923.4671630859375</ele>
        <time>2018-11-25T09:13:43Z</time>
      </trkpt>
      <trkpt lat="41.67147445678711" lon="2.000562906265259">
        <ele>923.4671630859375</ele>
        <time>2018-11-25T09:13:47Z</time>
      </trkpt>
      <trkpt lat="41.67146682739258" lon="2.000638246536255">
        <ele>925.0126342773438</ele>
        <time>2018-11-25T09:13:51Z</time>
      </trkpt>
      <trkpt lat="41.67146301269531" lon="2.0007240772247314">
        <ele>925.0126342773438</ele>
        <time>2018-11-25T09:13:55Z</time>
      </trkpt>
      <trkpt lat="41.67146682739258" lon="2.0007846355438232">
        <ele>925.0126342773438</ele>
        <time>2018-11-25T09:13:58Z</time>
      </trkpt>
      <trkpt lat="41.671470642089844" lon="2.0008583068847656">
        <ele>923.830810546875</ele>
        <time>2018-11-25T09:14:02Z</time>
      </trkpt>
      <trkpt lat="41.67149353027344" lon="2.000927686691284">
        <ele>923.830810546875</ele>
        <time>2018-11-25T09:14:06Z</time>
      </trkpt>
      <trkpt lat="41.6715202331543" lon="2.000983953475952">
        <ele>923.830810546875</ele>
        <time>2018-11-25T09:14:10Z</time>
      </trkpt>
      <trkpt lat="41.67157745361328" lon="2.0010263919830322">
        <ele>922.6489868164063</ele>
        <time>2018-11-25T09:14:15Z</time>
      </trkpt>
      <trkpt lat="41.67162322998047" lon="2.0010507106781006">
        <ele>922.6489868164063</ele>
        <time>2018-11-25T09:14:19Z</time>
      </trkpt>
      <trkpt lat="41.671688079833984" lon="2.0010552406311035">
        <ele>922.6489868164063</ele>
        <time>2018-11-25T09:14:24Z</time>
      </trkpt>
      <trkpt lat="41.6717529296875" lon="2.001060724258423">
        <ele>921.3762817382813</ele>
        <time>2018-11-25T09:14:29Z</time>
      </trkpt>
      <trkpt lat="41.67180633544922" lon="2.0010640621185303">
        <ele>921.3762817382813</ele>
        <time>2018-11-25T09:14:33Z</time>
      </trkpt>
      <trkpt lat="41.67185974121094" lon="2.001065731048584">
        <ele>921.3762817382813</ele>
        <time>2018-11-25T09:14:37Z</time>
      </trkpt>
      <trkpt lat="41.67190933227539" lon="2.0010690689086914">
        <ele>921.3762817382813</ele>
        <time>2018-11-25T09:14:41Z</time>
      </trkpt>
      <trkpt lat="41.671974182128906" lon="2.0010740756988525">
        <ele>921.3762817382813</ele>
        <time>2018-11-25T09:14:46Z</time>
      </trkpt>
      <trkpt lat="41.67203903198242" lon="2.0010809898376465">
        <ele>920.1035766601563</ele>
        <time>2018-11-25T09:14:51Z</time>
      </trkpt>
      <trkpt lat="41.672096252441406" lon="2.0010933876037598">
        <ele>920.1035766601563</ele>
        <time>2018-11-25T09:14:55Z</time>
      </trkpt>
      <trkpt lat="41.672149658203125" lon="2.001115560531616">
        <ele>920.1035766601563</ele>
        <time>2018-11-25T09:14:59Z</time>
      </trkpt>
      <trkpt lat="41.67219543457031" lon="2.0011439323425293">
        <ele>920.1035766601563</ele>
        <time>2018-11-25T09:15:03Z</time>
      </trkpt>
      <trkpt lat="41.67222213745117" lon="2.0012331008911133">
        <ele>920.1035766601563</ele>
        <time>2018-11-25T09:15:06Z</time>
      </trkpt>
      <trkpt lat="41.672245025634766" lon="2.001298666000366">
        <ele>920.1035766601563</ele>
        <time>2018-11-25T09:15:11Z</time>
      </trkpt>
      <trkpt lat="41.67228317260742" lon="2.001349449157715">
        <ele>920.1035766601563</ele>
        <time>2018-11-25T09:15:15Z</time>
      </trkpt>
      <trkpt lat="41.67230987548828" lon="2.001410722732544">
        <ele>920.1035766601563</ele>
        <time>2018-11-25T09:15:19Z</time>
      </trkpt>
      <trkpt lat="41.67233657836914" lon="2.0014772415161133">
        <ele>920.1035766601563</ele>
        <time>2018-11-25T09:15:23Z</time>
      </trkpt>
      <trkpt lat="41.6723518371582" lon="2.0015437602996826">
        <ele>921.55810546875</ele>
        <time>2018-11-25T09:15:27Z</time>
      </trkpt>
      <trkpt lat="41.67236328125" lon="2.001612901687622">
        <ele>921.55810546875</ele>
        <time>2018-11-25T09:15:31Z</time>
      </trkpt>
      <trkpt lat="41.67237854003906" lon="2.001680374145508">
        <ele>922.830810546875</ele>
        <time>2018-11-25T09:15:35Z</time>
      </trkpt>
      <trkpt lat="41.672393798828125" lon="2.0017549991607666">
        <ele>922.830810546875</ele>
        <time>2018-11-25T09:15:39Z</time>
      </trkpt>
      <trkpt lat="41.672367095947266" lon="2.0018184185028076">
        <ele>924.103515625</ele>
        <time>2018-11-25T09:15:43Z</time>
      </trkpt>
      <trkpt lat="41.67233657836914" lon="2.0018815994262695">
        <ele>924.103515625</ele>
        <time>2018-11-25T09:15:47Z</time>
      </trkpt>
      <trkpt lat="41.67230987548828" lon="2.001931667327881">
        <ele>925.2853393554688</ele>
        <time>2018-11-25T09:15:52Z</time>
      </trkpt>
      <trkpt lat="41.67229080200195" lon="2.0019984245300293">
        <ele>925.2853393554688</ele>
        <time>2018-11-25T09:16:01Z</time>
      </trkpt>
      <trkpt lat="41.67226028442383" lon="2.0020556449890137">
        <ele>926.4671630859375</ele>
        <time>2018-11-25T09:16:04Z</time>
      </trkpt>
      <trkpt lat="41.6722297668457" lon="2.002131700515747">
        <ele>926.4671630859375</ele>
        <time>2018-11-25T09:16:10Z</time>
      </trkpt>
      <trkpt lat="41.672218322753906" lon="2.002223253250122">
        <ele>926.4671630859375</ele>
        <time>2018-11-25T09:16:15Z</time>
      </trkpt>
      <trkpt lat="41.672210693359375" lon="2.0022964477539063">
        <ele>926.4671630859375</ele>
        <time>2018-11-25T09:16:19Z</time>
      </trkpt>
      <trkpt lat="41.67219543457031" lon="2.002361297607422">
        <ele>926.4671630859375</ele>
        <time>2018-11-25T09:16:23Z</time>
      </trkpt>
      <trkpt lat="41.67217254638672" lon="2.002429246902466">
        <ele>926.4671630859375</ele>
        <time>2018-11-25T09:16:27Z</time>
      </trkpt>
      <trkpt lat="41.67218017578125" lon="2.002504587173462">
        <ele>926.4671630859375</ele>
        <time>2018-11-25T09:16:31Z</time>
      </trkpt>
      <trkpt lat="41.67217254638672" lon="2.0025737285614014">
        <ele>926.4671630859375</ele>
        <time>2018-11-25T09:16:35Z</time>
      </trkpt>
      <trkpt lat="41.672183990478516" lon="2.0026469230651855">
        <ele>926.4671630859375</ele>
        <time>2018-11-25T09:16:40Z</time>
      </trkpt>
      <trkpt lat="41.67222595214844" lon="2.0027036666870117">
        <ele>926.4671630859375</ele>
        <time>2018-11-25T09:16:44Z</time>
      </trkpt>
      <trkpt lat="41.67226791381836" lon="2.0027506351470947">
        <ele>926.4671630859375</ele>
        <time>2018-11-25T09:16:48Z</time>
      </trkpt>
      <trkpt lat="41.67230987548828" lon="2.0028014183044434">
        <ele>925.2853393554688</ele>
        <time>2018-11-25T09:16:53Z</time>
      </trkpt>
      <trkpt lat="41.672359466552734" lon="2.002855062484741">
        <ele>925.2853393554688</ele>
        <time>2018-11-25T09:16:58Z</time>
      </trkpt>
      <trkpt lat="41.67240905761719" lon="2.0029048919677734">
        <ele>925.2853393554688</ele>
        <time>2018-11-25T09:17:03Z</time>
      </trkpt>
      <trkpt lat="41.67245864868164" lon="2.0029540061950684">
        <ele>925.2853393554688</ele>
        <time>2018-11-25T09:17:07Z</time>
      </trkpt>
      <trkpt lat="41.672489166259766" lon="2.003004312515259">
        <ele>925.2853393554688</ele>
        <time>2018-11-25T09:17:11Z</time>
      </trkpt>
      <trkpt lat="41.672481536865234" lon="2.0030770301818848">
        <ele>925.2853393554688</ele>
        <time>2018-11-25T09:17:15Z</time>
      </trkpt>
      <trkpt lat="41.67247009277344" lon="2.0031514167785645">
        <ele>926.4671630859375</ele>
        <time>2018-11-25T09:17:19Z</time>
      </trkpt>
      <trkpt lat="41.67245101928711" lon="2.0032167434692383">
        <ele>926.4671630859375</ele>
        <time>2018-11-25T09:17:23Z</time>
      </trkpt>
      <trkpt lat="41.67240905761719" lon="2.00327730178833">
        <ele>926.4671630859375</ele>
        <time>2018-11-25T09:17:28Z</time>
      </trkpt>
      <trkpt lat="41.67237091064453" lon="2.0033280849456787">
        <ele>926.4671630859375</ele>
        <time>2018-11-25T09:17:32Z</time>
      </trkpt>
      <trkpt lat="41.672340393066406" lon="2.003389596939087">
        <ele>926.4671630859375</ele>
        <time>2018-11-25T09:17:36Z</time>
      </trkpt>
      <trkpt lat="41.672298431396484" lon="2.003431558609009">
        <ele>926.4671630859375</ele>
        <time>2018-11-25T09:17:40Z</time>
      </trkpt>
      <trkpt lat="41.67227554321289" lon="2.003506660461426">
        <ele>926.4671630859375</ele>
        <time>2018-11-25T09:17:45Z</time>
      </trkpt>
      <trkpt lat="41.67226028442383" lon="2.0035719871520996">
        <ele>925.103515625</ele>
        <time>2018-11-25T09:17:49Z</time>
      </trkpt>
      <trkpt lat="41.67226791381836" lon="2.003652334213257">
        <ele>925.103515625</ele>
        <time>2018-11-25T09:17:54Z</time>
      </trkpt>
      <trkpt lat="41.672298431396484" lon="2.0037357807159424">
        <ele>925.103515625</ele>
        <time>2018-11-25T09:17:59Z</time>
      </trkpt>
      <trkpt lat="41.672340393066406" lon="2.0038022994995117">
        <ele>925.103515625</ele>
        <time>2018-11-25T09:18:03Z</time>
      </trkpt>
      <trkpt lat="41.67237091064453" lon="2.0038440227508545">
        <ele>925.103515625</ele>
        <time>2018-11-25T09:18:06Z</time>
      </trkpt>
      <trkpt lat="41.67242431640625" lon="2.0039002895355225">
        <ele>925.103515625</ele>
        <time>2018-11-25T09:18:11Z</time>
      </trkpt>
      <trkpt lat="41.6724739074707" lon="2.0039477348327637">
        <ele>925.103515625</ele>
        <time>2018-11-25T09:18:15Z</time>
      </trkpt>
      <trkpt lat="41.672515869140625" lon="2.003983974456787">
        <ele>925.103515625</ele>
        <time>2018-11-25T09:18:19Z</time>
      </trkpt>
      <trkpt lat="41.67256546020508" lon="2.0040180683135986">
        <ele>925.103515625</ele>
        <time>2018-11-25T09:18:24Z</time>
      </trkpt>
      <trkpt lat="41.67261505126953" lon="2.004058599472046">
        <ele>925.103515625</ele>
        <time>2018-11-25T09:18:29Z</time>
      </trkpt>
      <trkpt lat="41.672645568847656" lon="2.0041263103485107">
        <ele>926.376220703125</ele>
        <time>2018-11-25T09:18:33Z</time>
      </trkpt>
      <trkpt lat="41.67267608642578" lon="2.0042030811309814">
        <ele>926.376220703125</ele>
        <time>2018-11-25T09:18:38Z</time>
      </trkpt>
      <trkpt lat="41.6727180480957" lon="2.0042734146118164">
        <ele>927.5580444335938</ele>
        <time>2018-11-25T09:18:42Z</time>
      </trkpt>
      <trkpt lat="41.672752380371094" lon="2.0043327808380127">
        <ele>928.8307495117188</ele>
        <time>2018-11-25T09:18:46Z</time>
      </trkpt>
      <trkpt lat="41.67278289794922" lon="2.004387617111206">
        <ele>930.1034545898438</ele>
        <time>2018-11-25T09:18:50Z</time>
      </trkpt>
      <trkpt lat="41.67282485961914" lon="2.0044519901275635">
        <ele>930.1034545898438</ele>
        <time>2018-11-25T09:18:55Z</time>
      </trkpt>
      <trkpt lat="41.672855377197266" lon="2.0045011043548584">
        <ele>932.5579833984375</ele>
        <time>2018-11-25T09:18:59Z</time>
      </trkpt>
      <trkpt lat="41.672882080078125" lon="2.0045576095581055">
        <ele>932.5579833984375</ele>
        <time>2018-11-25T09:19:03Z</time>
      </trkpt>
      <trkpt lat="41.672855377197266" lon="2.0046226978302">
        <ele>933.7398071289063</ele>
        <time>2018-11-25T09:19:08Z</time>
      </trkpt>
      <trkpt lat="41.672821044921875" lon="2.0046873092651367">
        <ele>935.1034545898438</ele>
        <time>2018-11-25T09:19:13Z</time>
      </trkpt>
      <trkpt lat="41.67279052734375" lon="2.00473690032959">
        <ele>935.1034545898438</ele>
        <time>2018-11-25T09:19:17Z</time>
      </trkpt>
      <trkpt lat="41.67275619506836" lon="2.0047950744628906">
        <ele>936.3761596679688</ele>
        <time>2018-11-25T09:19:21Z</time>
      </trkpt>
      <trkpt lat="41.67271041870117" lon="2.004863739013672">
        <ele>937.6488647460938</ele>
        <time>2018-11-25T09:19:27Z</time>
      </trkpt>
      <trkpt lat="41.672672271728516" lon="2.004910945892334">
        <ele>937.6488647460938</ele>
        <time>2018-11-25T09:19:32Z</time>
      </trkpt>
      <trkpt lat="41.6726188659668" lon="2.0049545764923096">
        <ele>937.6488647460938</ele>
        <time>2018-11-25T09:19:38Z</time>
      </trkpt>
      <trkpt lat="41.67256546020508" lon="2.0050063133239746">
        <ele>937.6488647460938</ele>
        <time>2018-11-25T09:19:58Z</time>
      </trkpt>
      <trkpt lat="41.672523498535156" lon="2.0050270557403564">
        <ele>937.6488647460938</ele>
        <time>2018-11-25T09:20:02Z</time>
      </trkpt>
      <trkpt lat="41.672462463378906" lon="2.00506329536438">
        <ele>938.8306884765625</ele>
        <time>2018-11-25T09:20:07Z</time>
      </trkpt>
      <trkpt lat="41.672393798828125" lon="2.005080223083496">
        <ele>938.8306884765625</ele>
        <time>2018-11-25T09:20:13Z</time>
      </trkpt>
      <trkpt lat="41.67234420776367" lon="2.005098342895508">
        <ele>938.8306884765625</ele>
        <time>2018-11-25T09:20:17Z</time>
      </trkpt>
      <trkpt lat="41.672298431396484" lon="2.0051324367523193">
        <ele>940.0125122070313</ele>
        <time>2018-11-25T09:20:21Z</time>
      </trkpt>
      <trkpt lat="41.672245025634766" lon="2.005192995071411">
        <ele>940.0125122070313</ele>
        <time>2018-11-25T09:20:27Z</time>
      </trkpt>
      <trkpt lat="41.67220687866211" lon="2.0052406787872314">
        <ele>941.1943359375</ele>
        <time>2018-11-25T09:20:31Z</time>
      </trkpt>
      <trkpt lat="41.67216110229492" lon="2.0052883625030518">
        <ele>942.3761596679688</ele>
        <time>2018-11-25T09:20:35Z</time>
      </trkpt>
      <trkpt lat="41.6721076965332" lon="2.005298614501953">
        <ele>942.3761596679688</ele>
        <time>2018-11-25T09:20:40Z</time>
      </trkpt>
      <trkpt lat="41.67206573486328" lon="2.005275249481201">
        <ele>942.3761596679688</ele>
        <time>2018-11-25T09:20:44Z</time>
      </trkpt>
      <trkpt lat="41.67200469970703" lon="2.0052425861358643">
        <ele>942.3761596679688</ele>
        <time>2018-11-25T09:20:49Z</time>
      </trkpt>
      <trkpt lat="41.67194747924805" lon="2.0052173137664795">
        <ele>943.5579833984375</ele>
        <time>2018-11-25T09:20:54Z</time>
      </trkpt>
      <trkpt lat="41.67190170288086" lon="2.0051965713500977">
        <ele>943.5579833984375</ele>
        <time>2018-11-25T09:20:58Z</time>
      </trkpt>
      <trkpt lat="41.67184066772461" lon="2.0051844120025635">
        <ele>943.5579833984375</ele>
        <time>2018-11-25T09:21:04Z</time>
      </trkpt>
      <trkpt lat="41.671783447265625" lon="2.005171060562134">
        <ele>944.7398071289063</ele>
        <time>2018-11-25T09:21:09Z</time>
      </trkpt>
      <trkpt lat="41.67172622680664" lon="2.005159378051758">
        <ele>944.7398071289063</ele>
        <time>2018-11-25T09:21:14Z</time>
      </trkpt>
      <trkpt lat="41.67167663574219" lon="2.005143642425537">
        <ele>945.921630859375</ele>
        <time>2018-11-25T09:21:18Z</time>
      </trkpt>
      <trkpt lat="41.671627044677734" lon="2.0051236152648926">
        <ele>945.921630859375</ele>
        <time>2018-11-25T09:21:22Z</time>
      </trkpt>
      <trkpt lat="41.67156982421875" lon="2.0051040649414063">
        <ele>947.1034545898438</ele>
        <time>2018-11-25T09:21:26Z</time>
      </trkpt>
      <trkpt lat="41.671512603759766" lon="2.005113363265991">
        <ele>948.2852783203125</ele>
        <time>2018-11-25T09:21:31Z</time>
      </trkpt>
      <trkpt lat="41.67144775390625" lon="2.0051379203796387">
        <ele>948.2852783203125</ele>
        <time>2018-11-25T09:21:36Z</time>
      </trkpt>
      <trkpt lat="41.6713981628418" lon="2.0051488876342773">
        <ele>949.5579833984375</ele>
        <time>2018-11-25T09:21:40Z</time>
      </trkpt>
      <trkpt lat="41.67134094238281" lon="2.0051567554473877">
        <ele>949.5579833984375</ele>
        <time>2018-11-25T09:21:45Z</time>
      </trkpt>
      <trkpt lat="41.67128372192383" lon="2.0051753520965576">
        <ele>949.5579833984375</ele>
        <time>2018-11-25T09:21:50Z</time>
      </trkpt>
      <trkpt lat="41.67122268676758" lon="2.0051932334899902">
        <ele>949.5579833984375</ele>
        <time>2018-11-25T09:21:55Z</time>
      </trkpt>
      <trkpt lat="41.67116165161133" lon="2.0052120685577393">
        <ele>949.5579833984375</ele>
        <time>2018-11-25T09:22:00Z</time>
      </trkpt>
      <trkpt lat="41.671112060546875" lon="2.0052356719970703">
        <ele>949.5579833984375</ele>
        <time>2018-11-25T09:22:05Z</time>
      </trkpt>
      <trkpt lat="41.67107391357422" lon="2.0053036212921143">
        <ele>949.5579833984375</ele>
        <time>2018-11-25T09:22:09Z</time>
      </trkpt>
      <trkpt lat="41.67103958129883" lon="2.0053460597991943">
        <ele>949.5579833984375</ele>
        <time>2018-11-25T09:22:13Z</time>
      </trkpt>
      <trkpt lat="41.67101287841797" lon="2.005413055419922">
        <ele>948.2852783203125</ele>
        <time>2018-11-25T09:22:18Z</time>
      </trkpt>
      <trkpt lat="41.67100524902344" lon="2.0054843425750732">
        <ele>948.2852783203125</ele>
        <time>2018-11-25T09:22:22Z</time>
      </trkpt>
      <trkpt lat="41.67100524902344" lon="2.005554437637329">
        <ele>948.2852783203125</ele>
        <time>2018-11-25T09:22:26Z</time>
      </trkpt>
      <trkpt lat="41.67100524902344" lon="2.0056300163269043">
        <ele>948.2852783203125</ele>
        <time>2018-11-25T09:22:31Z</time>
      </trkpt>
      <trkpt lat="41.6710090637207" lon="2.005692958831787">
        <ele>948.2852783203125</ele>
        <time>2018-11-25T09:22:35Z</time>
      </trkpt>
      <trkpt lat="41.6710205078125" lon="2.005760669708252">
        <ele>948.2852783203125</ele>
        <time>2018-11-25T09:22:40Z</time>
      </trkpt>
      <trkpt lat="41.67103576660156" lon="2.0058512687683105">
        <ele>948.2852783203125</ele>
        <time>2018-11-25T09:22:45Z</time>
      </trkpt>
      <trkpt lat="41.671051025390625" lon="2.0059332847595215">
        <ele>948.2852783203125</ele>
        <time>2018-11-25T09:22:49Z</time>
      </trkpt>
      <trkpt lat="41.67106246948242" lon="2.006006956100464">
        <ele>948.2852783203125</ele>
        <time>2018-11-25T09:22:53Z</time>
      </trkpt>
      <trkpt lat="41.67107391357422" lon="2.0060722827911377">
        <ele>949.921630859375</ele>
        <time>2018-11-25T09:22:57Z</time>
      </trkpt>
      <trkpt lat="41.67107009887695" lon="2.00612473487854">
        <ele>949.921630859375</ele>
        <time>2018-11-25T09:23:19Z</time>
      </trkpt>
      <trkpt lat="41.671058654785156" lon="2.006192922592163">
        <ele>951.1943359375</ele>
        <time>2018-11-25T09:23:23Z</time>
      </trkpt>
      <trkpt lat="41.67102813720703" lon="2.0062661170959473">
        <ele>951.1943359375</ele>
        <time>2018-11-25T09:23:28Z</time>
      </trkpt>
      <trkpt lat="41.67099380493164" lon="2.006314277648926">
        <ele>951.1943359375</ele>
        <time>2018-11-25T09:23:32Z</time>
      </trkpt>
      <trkpt lat="41.67094421386719" lon="2.0063540935516357">
        <ele>952.3761596679688</ele>
        <time>2018-11-25T09:23:36Z</time>
      </trkpt>
      <trkpt lat="41.67090606689453" lon="2.006398916244507">
        <ele>952.3761596679688</ele>
        <time>2018-11-25T09:23:40Z</time>
      </trkpt>
      <trkpt lat="41.67085647583008" lon="2.006455421447754">
        <ele>952.3761596679688</ele>
        <time>2018-11-25T09:23:45Z</time>
      </trkpt>
      <trkpt lat="41.670806884765625" lon="2.0065016746520996">
        <ele>952.3761596679688</ele>
        <time>2018-11-25T09:23:49Z</time>
      </trkpt>
      <trkpt lat="41.67076110839844" lon="2.006537914276123">
        <ele>952.3761596679688</ele>
        <time>2018-11-25T09:23:53Z</time>
      </trkpt>
      <trkpt lat="41.67070770263672" lon="2.0065736770629883">
        <ele>952.3761596679688</ele>
        <time>2018-11-25T09:23:58Z</time>
      </trkpt>
      <trkpt lat="41.670658111572266" lon="2.006612777709961">
        <ele>952.3761596679688</ele>
        <time>2018-11-25T09:24:02Z</time>
      </trkpt>
      <trkpt lat="41.67061233520508" lon="2.0066516399383545">
        <ele>952.3761596679688</ele>
        <time>2018-11-25T09:24:07Z</time>
      </trkpt>
      <trkpt lat="41.67058563232422" lon="2.0067176818847656">
        <ele>952.3761596679688</ele>
        <time>2018-11-25T09:24:11Z</time>
      </trkpt>
      <trkpt lat="41.670562744140625" lon="2.0067923069000244">
        <ele>952.3761596679688</ele>
        <time>2018-11-25T09:24:16Z</time>
      </trkpt>
      <trkpt lat="41.6705436706543" lon="2.0068728923797607">
        <ele>952.3761596679688</ele>
        <time>2018-11-25T09:24:21Z</time>
      </trkpt>
      <trkpt lat="41.6705322265625" lon="2.0069499015808105">
        <ele>952.3761596679688</ele>
        <time>2018-11-25T09:24:25Z</time>
      </trkpt>
      <trkpt lat="41.6705322265625" lon="2.0070300102233887">
        <ele>952.3761596679688</ele>
        <time>2018-11-25T09:24:29Z</time>
      </trkpt>
      <trkpt lat="41.6705322265625" lon="2.0071072578430176">
        <ele>952.3761596679688</ele>
        <time>2018-11-25T09:24:34Z</time>
      </trkpt>
      <trkpt lat="41.67053985595703" lon="2.007193088531494">
        <ele>952.3761596679688</ele>
        <time>2018-11-25T09:24:40Z</time>
      </trkpt>
      <trkpt lat="41.67054748535156" lon="2.0072710514068604">
        <ele>953.6488647460938</ele>
        <time>2018-11-25T09:24:44Z</time>
      </trkpt>
      <trkpt lat="41.67056655883789" lon="2.0073347091674805">
        <ele>954.9215698242188</ele>
        <time>2018-11-25T09:24:48Z</time>
      </trkpt>
      <trkpt lat="41.67057418823242" lon="2.0073986053466797">
        <ele>956.1033935546875</ele>
        <time>2018-11-25T09:24:53Z</time>
      </trkpt>
      <trkpt lat="41.67060852050781" lon="2.007467746734619">
        <ele>957.2852172851563</ele>
        <time>2018-11-25T09:24:58Z</time>
      </trkpt>
      <trkpt lat="41.670623779296875" lon="2.0075271129608154">
        <ele>957.2852172851563</ele>
        <time>2018-11-25T09:25:02Z</time>
      </trkpt>
      <trkpt lat="41.67060089111328" lon="2.0075857639312744">
        <ele>957.2852172851563</ele>
        <time>2018-11-25T09:25:06Z</time>
      </trkpt>
      <trkpt lat="41.67060470581055" lon="2.007662773132324">
        <ele>958.467041015625</ele>
        <time>2018-11-25T09:25:11Z</time>
      </trkpt>
      <trkpt lat="41.67057800292969" lon="2.0077357292175293">
        <ele>959.6488647460938</ele>
        <time>2018-11-25T09:25:17Z</time>
      </trkpt>
      <trkpt lat="41.670570373535156" lon="2.007800579071045">
        <ele>959.6488647460938</ele>
        <time>2018-11-25T09:25:22Z</time>
      </trkpt>
      <trkpt lat="41.67056655883789" lon="2.007874011993408">
        <ele>959.6488647460938</ele>
        <time>2018-11-25T09:25:28Z</time>
      </trkpt>
      <trkpt lat="41.670536041259766" lon="2.0079267024993896">
        <ele>959.6488647460938</ele>
        <time>2018-11-25T09:25:33Z</time>
      </trkpt>
      <trkpt lat="41.670501708984375" lon="2.007983684539795">
        <ele>960.8306884765625</ele>
        <time>2018-11-25T09:25:39Z</time>
      </trkpt>
      <trkpt lat="41.67046356201172" lon="2.008030414581299">
        <ele>960.8306884765625</ele>
        <time>2018-11-25T09:25:45Z</time>
      </trkpt>
      <trkpt lat="41.670406341552734" lon="2.0080690383911133">
        <ele>960.8306884765625</ele>
        <time>2018-11-25T09:25:51Z</time>
      </trkpt>
      <trkpt lat="41.670352935791016" lon="2.008110284805298">
        <ele>962.0125122070313</ele>
        <time>2018-11-25T09:25:57Z</time>
      </trkpt>
      <trkpt lat="41.67030715942383" lon="2.0081660747528076">
        <ele>963.1943359375</ele>
        <time>2018-11-25T09:26:04Z</time>
      </trkpt>
      <trkpt lat="41.670257568359375" lon="2.0082266330718994">
        <ele>963.1943359375</ele>
        <time>2018-11-25T09:26:10Z</time>
      </trkpt>
      <trkpt lat="41.670223236083984" lon="2.0082650184631348">
        <ele>964.467041015625</ele>
        <time>2018-11-25T09:26:14Z</time>
      </trkpt>
      <trkpt lat="41.67017364501953" lon="2.0083110332489014">
        <ele>964.467041015625</ele>
        <time>2018-11-25T09:26:19Z</time>
      </trkpt>
      <trkpt lat="41.67012023925781" lon="2.0083582401275635">
        <ele>965.6488647460938</ele>
        <time>2018-11-25T09:26:25Z</time>
      </trkpt>
      <trkpt lat="41.670074462890625" lon="2.0083916187286377">
        <ele>966.8306884765625</ele>
        <time>2018-11-25T09:26:29Z</time>
      </trkpt>
      <trkpt lat="41.67002487182617" lon="2.0084285736083984">
        <ele>966.8306884765625</ele>
        <time>2018-11-25T09:26:34Z</time>
      </trkpt>
      <trkpt lat="41.66998291015625" lon="2.008455991744995">
        <ele>966.8306884765625</ele>
        <time>2018-11-25T09:26:38Z</time>
      </trkpt>
      <trkpt lat="41.66992950439453" lon="2.0084893703460693">
        <ele>968.0125122070313</ele>
        <time>2018-11-25T09:26:44Z</time>
      </trkpt>
      <trkpt lat="41.66987991333008" lon="2.0085256099700928">
        <ele>968.0125122070313</ele>
        <time>2018-11-25T09:26:49Z</time>
      </trkpt>
      <trkpt lat="41.669837951660156" lon="2.008553981781006">
        <ele>969.1943359375</ele>
        <time>2018-11-25T09:26:54Z</time>
      </trkpt>
      <trkpt lat="41.6697883605957" lon="2.0085864067077637">
        <ele>969.1943359375</ele>
        <time>2018-11-25T09:26:59Z</time>
      </trkpt>
      <trkpt lat="41.66973876953125" lon="2.0086166858673096">
        <ele>970.3761596679688</ele>
        <time>2018-11-25T09:27:04Z</time>
      </trkpt>
      <trkpt lat="41.6696891784668" lon="2.0086469650268555">
        <ele>970.3761596679688</ele>
        <time>2018-11-25T09:27:10Z</time>
      </trkpt>
      <trkpt lat="41.66963577270508" lon="2.008673906326294">
        <ele>971.5579833984375</ele>
        <time>2018-11-25T09:27:15Z</time>
      </trkpt>
      <trkpt lat="41.669586181640625" lon="2.0086915493011475">
        <ele>971.5579833984375</ele>
        <time>2018-11-25T09:27:21Z</time>
      </trkpt>
      <trkpt lat="41.669532775878906" lon="2.0087199211120605">
        <ele>972.7398071289063</ele>
        <time>2018-11-25T09:27:27Z</time>
      </trkpt>
      <trkpt lat="41.669490814208984" lon="2.0087592601776123">
        <ele>972.7398071289063</ele>
        <time>2018-11-25T09:27:33Z</time>
      </trkpt>
      <trkpt lat="41.6694450378418" lon="2.008807420730591">
        <ele>972.7398071289063</ele>
        <time>2018-11-25T09:27:38Z</time>
      </trkpt>
      <trkpt lat="41.669403076171875" lon="2.008862018585205">
        <ele>973.921630859375</ele>
        <time>2018-11-25T09:27:43Z</time>
      </trkpt>
      <trkpt lat="41.66937255859375" lon="2.0089054107666016">
        <ele>973.921630859375</ele>
        <time>2018-11-25T09:27:47Z</time>
      </trkpt>
      <trkpt lat="41.669342041015625" lon="2.0089869499206543">
        <ele>975.1034545898438</ele>
        <time>2018-11-25T09:27:51Z</time>
      </trkpt>
      <trkpt lat="41.6693000793457" lon="2.009021759033203">
        <ele>975.1034545898438</ele>
        <time>2018-11-25T09:27:55Z</time>
      </trkpt>
      <trkpt lat="41.66925048828125" lon="2.009058713912964">
        <ele>976.2852783203125</ele>
        <time>2018-11-25T09:28:00Z</time>
      </trkpt>
      <trkpt lat="41.669193267822266" lon="2.009084701538086">
        <ele>977.4671020507813</ele>
        <time>2018-11-25T09:28:05Z</time>
      </trkpt>
      <trkpt lat="41.66913986206055" lon="2.0091099739074707">
        <ele>979.8307495117188</ele>
        <time>2018-11-25T09:28:10Z</time>
      </trkpt>
      <trkpt lat="41.669090270996094" lon="2.0091402530670166">
        <ele>981.1034545898438</ele>
        <time>2018-11-25T09:28:16Z</time>
      </trkpt>
      <trkpt lat="41.669036865234375" lon="2.009169340133667">
        <ele>981.1034545898438</ele>
        <time>2018-11-25T09:28:21Z</time>
      </trkpt>
      <trkpt lat="41.66898727416992" lon="2.0091803073883057">
        <ele>983.5579833984375</ele>
        <time>2018-11-25T09:28:26Z</time>
      </trkpt>
      <trkpt lat="41.66892623901367" lon="2.009187698364258">
        <ele>984.8306884765625</ele>
        <time>2018-11-25T09:28:31Z</time>
      </trkpt>
      <trkpt lat="41.66886901855469" lon="2.009186267852783">
        <ele>987.3761596679688</ele>
        <time>2018-11-25T09:28:36Z</time>
      </trkpt>
      <trkpt lat="41.668827056884766" lon="2.0091710090637207">
        <ele>987.3761596679688</ele>
        <time>2018-11-25T09:28:41Z</time>
      </trkpt>
      <trkpt lat="41.668766021728516" lon="2.0091633796691895">
        <ele>988.6488647460938</ele>
        <time>2018-11-25T09:28:48Z</time>
      </trkpt>
      <trkpt lat="41.66871643066406" lon="2.0091724395751953">
        <ele>988.6488647460938</ele>
        <time>2018-11-25T09:28:55Z</time>
      </trkpt>
      <trkpt lat="41.66866683959961" lon="2.009192705154419">
        <ele>988.6488647460938</ele>
        <time>2018-11-25T09:29:02Z</time>
      </trkpt>
      <trkpt lat="41.66862106323242" lon="2.009229898452759">
        <ele>988.6488647460938</ele>
        <time>2018-11-25T09:29:09Z</time>
      </trkpt>
      <trkpt lat="41.6685676574707" lon="2.0092248916625977">
        <ele>988.6488647460938</ele>
        <time>2018-11-25T09:29:16Z</time>
      </trkpt>
      <trkpt lat="41.66851806640625" lon="2.0092573165893555">
        <ele>993.73974609375</ele>
        <time>2018-11-25T09:29:24Z</time>
      </trkpt>
      <trkpt lat="41.668460845947266" lon="2.009282112121582">
        <ele>993.73974609375</ele>
        <time>2018-11-25T09:29:32Z</time>
      </trkpt>
      <trkpt lat="41.66840744018555" lon="2.009315013885498">
        <ele>993.73974609375</ele>
        <time>2018-11-25T09:29:40Z</time>
      </trkpt>
      <trkpt lat="41.668365478515625" lon="2.0093400478363037">
        <ele>994.9215698242188</ele>
        <time>2018-11-25T09:29:47Z</time>
      </trkpt>
      <trkpt lat="41.6683464050293" lon="2.009342908859253">
        <ele>994.9215698242188</ele>
        <time>2018-11-25T09:31:26Z</time>
      </trkpt>
      <trkpt lat="41.668296813964844" lon="2.0093610286712646">
        <ele>994.9215698242188</ele>
        <time>2018-11-25T09:31:32Z</time>
      </trkpt>
      <trkpt lat="41.668251037597656" lon="2.0093746185302734">
        <ele>994.9215698242188</ele>
        <time>2018-11-25T09:31:38Z</time>
      </trkpt>
      <trkpt lat="41.668212890625" lon="2.0094211101531982">
        <ele>996.1033935546875</ele>
        <time>2018-11-25T09:31:45Z</time>
      </trkpt>
      <trkpt lat="41.66817855834961" lon="2.009495735168457">
        <ele>996.1033935546875</ele>
        <time>2018-11-25T09:31:51Z</time>
      </trkpt>
      <trkpt lat="41.668128967285156" lon="2.0095579624176025">
        <ele>997.2852172851563</ele>
        <time>2018-11-25T09:31:56Z</time>
      </trkpt>
      <trkpt lat="41.6680908203125" lon="2.009599447250366">
        <ele>997.2852172851563</ele>
        <time>2018-11-25T09:32:00Z</time>
      </trkpt>
      <trkpt lat="41.668052673339844" lon="2.009671449661255">
        <ele>997.2852172851563</ele>
        <time>2018-11-25T09:32:05Z</time>
      </trkpt>
      <trkpt lat="41.66802215576172" lon="2.0097320079803467">
        <ele>997.2852172851563</ele>
        <time>2018-11-25T09:32:09Z</time>
      </trkpt>
      <trkpt lat="41.6679801940918" lon="2.009774923324585">
        <ele>996.1033935546875</ele>
        <time>2018-11-25T09:32:13Z</time>
      </trkpt>
      <trkpt lat="41.66793441772461" lon="2.0098140239715576">
        <ele>996.1033935546875</ele>
        <time>2018-11-25T09:32:18Z</time>
      </trkpt>
      <trkpt lat="41.667877197265625" lon="2.0098490715026855">
        <ele>996.1033935546875</ele>
        <time>2018-11-25T09:32:24Z</time>
      </trkpt>
      <trkpt lat="41.6678352355957" lon="2.0098824501037598">
        <ele>996.1033935546875</ele>
        <time>2018-11-25T09:32:30Z</time>
      </trkpt>
      <trkpt lat="41.667781829833984" lon="2.009936571121216">
        <ele>996.1033935546875</ele>
        <time>2018-11-25T09:32:35Z</time>
      </trkpt>
      <trkpt lat="41.6677360534668" lon="2.009979009628296">
        <ele>996.1033935546875</ele>
        <time>2018-11-25T09:32:39Z</time>
      </trkpt>
      <trkpt lat="41.667686462402344" lon="2.010014295578003">
        <ele>996.1033935546875</ele>
        <time>2018-11-25T09:32:43Z</time>
      </trkpt>
      <trkpt lat="41.66762924194336" lon="2.010038375854492">
        <ele>996.1033935546875</ele>
        <time>2018-11-25T09:32:48Z</time>
      </trkpt>
      <trkpt lat="41.66757583618164" lon="2.0100605487823486">
        <ele>997.2852172851563</ele>
        <time>2018-11-25T09:32:53Z</time>
      </trkpt>
      <trkpt lat="41.667518615722656" lon="2.0100905895233154">
        <ele>997.2852172851563</ele>
        <time>2018-11-25T09:32:57Z</time>
      </trkpt>
      <trkpt lat="41.66746520996094" lon="2.010136604309082">
        <ele>998.6488647460938</ele>
        <time>2018-11-25T09:33:01Z</time>
      </trkpt>
      <trkpt lat="41.66741943359375" lon="2.0101773738861084">
        <ele>998.6488647460938</ele>
        <time>2018-11-25T09:33:04Z</time>
      </trkpt>
      <trkpt lat="41.667362213134766" lon="2.010216236114502">
        <ele>999.8306884765625</ele>
        <time>2018-11-25T09:33:08Z</time>
      </trkpt>
      <trkpt lat="41.66729736328125" lon="2.01023268699646">
        <ele>999.8306884765625</ele>
        <time>2018-11-25T09:33:14Z</time>
      </trkpt>
      <trkpt lat="41.667240142822266" lon="2.010248899459839">
        <ele>1001.1033935546875</ele>
        <time>2018-11-25T09:33:19Z</time>
      </trkpt>
      <trkpt lat="41.66719436645508" lon="2.0102763175964355">
        <ele>1001.1033935546875</ele>
        <time>2018-11-25T09:33:23Z</time>
      </trkpt>
      <trkpt lat="41.667144775390625" lon="2.0103020668029785">
        <ele>1002.3760986328125</ele>
        <time>2018-11-25T09:33:28Z</time>
      </trkpt>
      <trkpt lat="41.667091369628906" lon="2.01033878326416">
        <ele>1002.3760986328125</ele>
        <time>2018-11-25T09:33:34Z</time>
      </trkpt>
      <trkpt lat="41.66704177856445" lon="2.0103774070739746">
        <ele>1002.3760986328125</ele>
        <time>2018-11-25T09:33:39Z</time>
      </trkpt>
      <trkpt lat="41.666996002197266" lon="2.010427236557007">
        <ele>1002.3760986328125</ele>
        <time>2018-11-25T09:33:44Z</time>
      </trkpt>
      <trkpt lat="41.666954040527344" lon="2.0104706287384033">
        <ele>1001.1942749023438</ele>
        <time>2018-11-25T09:33:48Z</time>
      </trkpt>
      <trkpt lat="41.66691207885742" lon="2.0105133056640625">
        <ele>1001.1942749023438</ele>
        <time>2018-11-25T09:33:52Z</time>
      </trkpt>
      <trkpt lat="41.6668701171875" lon="2.010556221008301">
        <ele>999.9215698242188</ele>
        <time>2018-11-25T09:33:56Z</time>
      </trkpt>
      <trkpt lat="41.666831970214844" lon="2.010594367980957">
        <ele>999.9215698242188</ele>
        <time>2018-11-25T09:34:01Z</time>
      </trkpt>
      <trkpt lat="41.66677474975586" lon="2.010629892349243">
        <ele>999.9215698242188</ele>
        <time>2018-11-25T09:34:06Z</time>
      </trkpt>
      <trkpt lat="41.66673278808594" lon="2.0106265544891357">
        <ele>999.9215698242188</ele>
        <time>2018-11-25T09:34:10Z</time>
      </trkpt>
      <trkpt lat="41.66667175292969" lon="2.010632038116455">
        <ele>998.73974609375</ele>
        <time>2018-11-25T09:34:15Z</time>
      </trkpt>
      <trkpt lat="41.6666145324707" lon="2.01063871383667">
        <ele>998.73974609375</ele>
        <time>2018-11-25T09:34:20Z</time>
      </trkpt>
      <trkpt lat="41.666561126708984" lon="2.010627269744873">
        <ele>998.73974609375</ele>
        <time>2018-11-25T09:34:24Z</time>
      </trkpt>
      <trkpt lat="41.66651153564453" lon="2.0106093883514404">
        <ele>998.73974609375</ele>
        <time>2018-11-25T09:34:28Z</time>
      </trkpt>
      <trkpt lat="41.66645431518555" lon="2.0105860233306885">
        <ele>998.73974609375</ele>
        <time>2018-11-25T09:34:32Z</time>
      </trkpt>
      <trkpt lat="41.66640090942383" lon="2.0105786323547363">
        <ele>998.73974609375</ele>
        <time>2018-11-25T09:34:36Z</time>
      </trkpt>
      <trkpt lat="41.66633605957031" lon="2.0105702877044678">
        <ele>998.73974609375</ele>
        <time>2018-11-25T09:34:41Z</time>
      </trkpt>
      <trkpt lat="41.6662712097168" lon="2.0105791091918945">
        <ele>998.73974609375</ele>
        <time>2018-11-25T09:34:46Z</time>
      </trkpt>
      <trkpt lat="41.66621017456055" lon="2.010586977005005">
        <ele>998.73974609375</ele>
        <time>2018-11-25T09:34:51Z</time>
      </trkpt>
      <trkpt lat="41.6661491394043" lon="2.010596752166748">
        <ele>1000.467041015625</ele>
        <time>2018-11-25T09:34:57Z</time>
      </trkpt>
      <trkpt lat="41.66609191894531" lon="2.0105955600738525">
        <ele>1000.467041015625</ele>
        <time>2018-11-25T09:35:03Z</time>
      </trkpt>
      <trkpt lat="41.66606903076172" lon="2.0105860233306885">
        <ele>1000.467041015625</ele>
        <time>2018-11-25T09:35:12Z</time>
      </trkpt>
      <trkpt lat="41.666046142578125" lon="2.010556697845459">
        <ele>1000.467041015625</ele>
        <time>2018-11-25T09:35:26Z</time>
      </trkpt>
      <trkpt lat="41.66600799560547" lon="2.010521411895752">
        <ele>1000.467041015625</ele>
        <time>2018-11-25T09:35:29Z</time>
      </trkpt>
      <trkpt lat="41.66596221923828" lon="2.010469675064087">
        <ele>1000.467041015625</ele>
        <time>2018-11-25T09:35:35Z</time>
      </trkpt>
      <trkpt lat="41.665924072265625" lon="2.0104236602783203">
        <ele>1000.467041015625</ele>
        <time>2018-11-25T09:35:41Z</time>
      </trkpt>
      <trkpt lat="41.665863037109375" lon="2.010387897491455">
        <ele>1000.467041015625</ele>
        <time>2018-11-25T09:35:48Z</time>
      </trkpt>
      <trkpt lat="41.665809631347656" lon="2.0103702545166016">
        <ele>1000.467041015625</ele>
        <time>2018-11-25T09:35:52Z</time>
      </trkpt>
      <trkpt lat="41.66576385498047" lon="2.0103132724761963">
        <ele>1001.8306884765625</ele>
        <time>2018-11-25T09:36:04Z</time>
      </trkpt>
      <trkpt lat="41.66572570800781" lon="2.0102856159210205">
        <ele>1001.8306884765625</ele>
        <time>2018-11-25T09:36:12Z</time>
      </trkpt>
      <trkpt lat="41.66567611694336" lon="2.010266065597534">
        <ele>1001.8306884765625</ele>
        <time>2018-11-25T09:36:19Z</time>
      </trkpt>
      <trkpt lat="41.66562271118164" lon="2.010218620300293">
        <ele>1001.8306884765625</ele>
        <time>2018-11-25T09:36:24Z</time>
      </trkpt>
      <trkpt lat="41.665584564208984" lon="2.0101656913757324">
        <ele>1003.0125122070313</ele>
        <time>2018-11-25T09:36:28Z</time>
      </trkpt>
      <trkpt lat="41.66554260253906" lon="2.0100977420806885">
        <ele>1004.1943359375</ele>
        <time>2018-11-25T09:36:33Z</time>
      </trkpt>
      <trkpt lat="41.6655158996582" lon="2.01003360748291">
        <ele>1004.1943359375</ele>
        <time>2018-11-25T09:36:37Z</time>
      </trkpt>
      <trkpt lat="41.66551208496094" lon="2.0099730491638184">
        <ele>1005.3761596679688</ele>
        <time>2018-11-25T09:36:43Z</time>
      </trkpt>
      <trkpt lat="41.66548538208008" lon="2.0098774433135986">
        <ele>1005.3761596679688</ele>
        <time>2018-11-25T09:36:49Z</time>
      </trkpt>
      <trkpt lat="41.665462493896484" lon="2.009819269180298">
        <ele>1006.5579833984375</ele>
        <time>2018-11-25T09:36:53Z</time>
      </trkpt>
      <trkpt lat="41.66544723510742" lon="2.0097594261169434">
        <ele>1006.5579833984375</ele>
        <time>2018-11-25T09:36:57Z</time>
      </trkpt>
      <trkpt lat="41.665435791015625" lon="2.009686231613159">
        <ele>1007.7398071289063</ele>
        <time>2018-11-25T09:37:06Z</time>
      </trkpt>
      <trkpt lat="41.66543960571289" lon="2.009624719619751">
        <ele>1007.7398071289063</ele>
        <time>2018-11-25T09:37:10Z</time>
      </trkpt>
      <trkpt lat="41.66543197631836" lon="2.009535551071167">
        <ele>1008.921630859375</ele>
        <time>2018-11-25T09:37:16Z</time>
      </trkpt>
      <trkpt lat="41.66543197631836" lon="2.009469985961914">
        <ele>1010.1034545898438</ele>
        <time>2018-11-25T09:37:22Z</time>
      </trkpt>
      <trkpt lat="41.665409088134766" lon="2.0093870162963867">
        <ele>1011.2852783203125</ele>
        <time>2018-11-25T09:37:27Z</time>
      </trkpt>
      <trkpt lat="41.66539001464844" lon="2.0093295574188232">
        <ele>1011.2852783203125</ele>
        <time>2018-11-25T09:37:31Z</time>
      </trkpt>
      <trkpt lat="41.66537094116211" lon="2.0092623233795166">
        <ele>1012.4671020507813</ele>
        <time>2018-11-25T09:37:36Z</time>
      </trkpt>
      <trkpt lat="41.66535186767578" lon="2.0091969966888428">
        <ele>1012.4671020507813</ele>
        <time>2018-11-25T09:37:41Z</time>
      </trkpt>
      <trkpt lat="41.66532897949219" lon="2.0091283321380615">
        <ele>1012.4671020507813</ele>
        <time>2018-11-25T09:37:46Z</time>
      </trkpt>
      <trkpt lat="41.66525650024414" lon="2.0090832710266113">
        <ele>1012.4671020507813</ele>
        <time>2018-11-25T09:37:57Z</time>
      </trkpt>
      <trkpt lat="41.66521453857422" lon="2.009032726287842">
        <ele>1012.4671020507813</ele>
        <time>2018-11-25T09:38:02Z</time>
      </trkpt>
      <trkpt lat="41.66515350341797" lon="2.009023427963257">
        <ele>1012.4671020507813</ele>
        <time>2018-11-25T09:38:07Z</time>
      </trkpt>
      <trkpt lat="41.665096282958984" lon="2.0090079307556152">
        <ele>1012.4671020507813</ele>
        <time>2018-11-25T09:38:15Z</time>
      </trkpt>
      <trkpt lat="41.6650390625" lon="2.0089917182922363">
        <ele>1012.4671020507813</ele>
        <time>2018-11-25T09:38:20Z</time>
      </trkpt>
      <trkpt lat="41.66498947143555" lon="2.008975028991699">
        <ele>1012.4671020507813</ele>
        <time>2018-11-25T09:38:25Z</time>
      </trkpt>
      <trkpt lat="41.66493225097656" lon="2.008986234664917">
        <ele>1012.4671020507813</ele>
        <time>2018-11-25T09:38:29Z</time>
      </trkpt>
      <trkpt lat="41.66487503051758" lon="2.0090034008026123">
        <ele>1012.4671020507813</ele>
        <time>2018-11-25T09:38:35Z</time>
      </trkpt>
      <trkpt lat="41.66482925415039" lon="2.0090487003326416">
        <ele>1012.4671020507813</ele>
        <time>2018-11-25T09:38:39Z</time>
      </trkpt>
      <trkpt lat="41.66477966308594" lon="2.0090982913970947">
        <ele>1012.4671020507813</ele>
        <time>2018-11-25T09:38:44Z</time>
      </trkpt>
      <trkpt lat="41.66472625732422" lon="2.0091183185577393">
        <ele>1013.7398071289063</ele>
        <time>2018-11-25T09:38:49Z</time>
      </trkpt>
      <trkpt lat="41.664676666259766" lon="2.0091676712036133">
        <ele>1014.921630859375</ele>
        <time>2018-11-25T09:38:53Z</time>
      </trkpt>
      <trkpt lat="41.66462707519531" lon="2.0091912746429443">
        <ele>1014.921630859375</ele>
        <time>2018-11-25T09:38:57Z</time>
      </trkpt>
      <trkpt lat="41.66457748413086" lon="2.009211778640747">
        <ele>1016.1034545898438</ele>
        <time>2018-11-25T09:39:02Z</time>
      </trkpt>
      <trkpt lat="41.664527893066406" lon="2.009251117706299">
        <ele>1016.1034545898438</ele>
        <time>2018-11-25T09:39:08Z</time>
      </trkpt>
      <trkpt lat="41.66448211669922" lon="2.0092856884002686">
        <ele>1016.1034545898438</ele>
        <time>2018-11-25T09:39:12Z</time>
      </trkpt>
      <trkpt lat="41.66443634033203" lon="2.009312391281128">
        <ele>1016.1034545898438</ele>
        <time>2018-11-25T09:39:16Z</time>
      </trkpt>
      <trkpt lat="41.664390563964844" lon="2.009352445602417">
        <ele>1016.1034545898438</ele>
        <time>2018-11-25T09:39:21Z</time>
      </trkpt>
      <trkpt lat="41.66434097290039" lon="2.0093982219696045">
        <ele>1016.1034545898438</ele>
        <time>2018-11-25T09:39:26Z</time>
      </trkpt>
      <trkpt lat="41.66429901123047" lon="2.009432315826416">
        <ele>1016.1034545898438</ele>
        <time>2018-11-25T09:39:30Z</time>
      </trkpt>
      <trkpt lat="41.664268493652344" lon="2.009502649307251">
        <ele>1016.1034545898438</ele>
        <time>2018-11-25T09:39:35Z</time>
      </trkpt>
      <trkpt lat="41.66423797607422" lon="2.009565591812134">
        <ele>1016.1034545898438</ele>
        <time>2018-11-25T09:39:40Z</time>
      </trkpt>
      <trkpt lat="41.6641960144043" lon="2.0096209049224854">
        <ele>1016.1034545898438</ele>
        <time>2018-11-25T09:39:44Z</time>
      </trkpt>
      <trkpt lat="41.664146423339844" lon="2.009683609008789">
        <ele>1016.1034545898438</ele>
        <time>2018-11-25T09:39:48Z</time>
      </trkpt>
      <trkpt lat="41.66412353515625" lon="2.009732961654663">
        <ele>1016.1034545898438</ele>
        <time>2018-11-25T09:39:51Z</time>
      </trkpt>
      <trkpt lat="41.664093017578125" lon="2.009805679321289">
        <ele>1016.1034545898438</ele>
        <time>2018-11-25T09:39:56Z</time>
      </trkpt>
      <trkpt lat="41.66405487060547" lon="2.0098607540130615">
        <ele>1016.1034545898438</ele>
        <time>2018-11-25T09:40:00Z</time>
      </trkpt>
      <trkpt lat="41.66401290893555" lon="2.009918451309204">
        <ele>1016.1034545898438</ele>
        <time>2018-11-25T09:40:04Z</time>
      </trkpt>
      <trkpt lat="41.663978576660156" lon="2.0099549293518066">
        <ele>1016.1034545898438</ele>
        <time>2018-11-25T09:40:08Z</time>
      </trkpt>
      <trkpt lat="41.6639404296875" lon="2.0099880695343018">
        <ele>1016.1034545898438</ele>
        <time>2018-11-25T09:40:16Z</time>
      </trkpt>
      <trkpt lat="41.66389465332031" lon="2.0100462436676025">
        <ele>1016.1034545898438</ele>
        <time>2018-11-25T09:40:23Z</time>
      </trkpt>
      <trkpt lat="41.663841247558594" lon="2.0100860595703125">
        <ele>1017.2852783203125</ele>
        <time>2018-11-25T09:40:27Z</time>
      </trkpt>
      <trkpt lat="41.66379928588867" lon="2.010115385055542">
        <ele>1017.2852783203125</ele>
        <time>2018-11-25T09:40:31Z</time>
      </trkpt>
      <trkpt lat="41.663753509521484" lon="2.010150671005249">
        <ele>1017.2852783203125</ele>
        <time>2018-11-25T09:40:35Z</time>
      </trkpt>
      <trkpt lat="41.6637077331543" lon="2.0101797580718994">
        <ele>1017.2852783203125</ele>
        <time>2018-11-25T09:40:39Z</time>
      </trkpt>
      <trkpt lat="41.66365432739258" lon="2.010220766067505">
        <ele>1018.4671020507813</ele>
        <time>2018-11-25T09:40:45Z</time>
      </trkpt>
      <trkpt lat="41.663597106933594" lon="2.0102651119232178">
        <ele>1018.4671020507813</ele>
        <time>2018-11-25T09:40:50Z</time>
      </trkpt>
      <trkpt lat="41.663543701171875" lon="2.010303020477295">
        <ele>1018.4671020507813</ele>
        <time>2018-11-25T09:40:55Z</time>
      </trkpt>
      <trkpt lat="41.663490295410156" lon="2.01033878326416">
        <ele>1018.4671020507813</ele>
        <time>2018-11-25T09:40:59Z</time>
      </trkpt>
      <trkpt lat="41.6634407043457" lon="2.010374069213867">
        <ele>1018.4671020507813</ele>
        <time>2018-11-25T09:41:03Z</time>
      </trkpt>
      <trkpt lat="41.66339874267578" lon="2.010406732559204">
        <ele>1018.4671020507813</ele>
        <time>2018-11-25T09:41:08Z</time>
      </trkpt>
      <trkpt lat="41.66334533691406" lon="2.01045560836792">
        <ele>1019.64892578125</ele>
        <time>2018-11-25T09:41:13Z</time>
      </trkpt>
      <trkpt lat="41.663307189941406" lon="2.0104806423187256">
        <ele>1019.64892578125</ele>
        <time>2018-11-25T09:41:16Z</time>
      </trkpt>
      <trkpt lat="41.66324996948242" lon="2.0104970932006836">
        <ele>1020.8307495117188</ele>
        <time>2018-11-25T09:41:21Z</time>
      </trkpt>
      <trkpt lat="41.66319274902344" lon="2.010516405105591">
        <ele>1022.1943969726563</ele>
        <time>2018-11-25T09:41:25Z</time>
      </trkpt>
      <trkpt lat="41.663150787353516" lon="2.010528326034546">
        <ele>1023.376220703125</ele>
        <time>2018-11-25T09:41:29Z</time>
      </trkpt>
      <trkpt lat="41.66307830810547" lon="2.0105316638946533">
        <ele>1023.376220703125</ele>
        <time>2018-11-25T09:41:34Z</time>
      </trkpt>
      <trkpt lat="41.66302490234375" lon="2.0105302333831787">
        <ele>1023.376220703125</ele>
        <time>2018-11-25T09:41:38Z</time>
      </trkpt>
      <trkpt lat="41.6629753112793" lon="2.010528087615967">
        <ele>1023.376220703125</ele>
        <time>2018-11-25T09:41:41Z</time>
      </trkpt>
      <trkpt lat="41.662925720214844" lon="2.010530948638916">
        <ele>1023.376220703125</ele>
        <time>2018-11-25T09:41:46Z</time>
      </trkpt>
      <trkpt lat="41.66286087036133" lon="2.0105302333831787">
        <ele>1023.376220703125</ele>
        <time>2018-11-25T09:41:52Z</time>
      </trkpt>
      <trkpt lat="41.66281509399414" lon="2.010575294494629">
        <ele>1023.376220703125</ele>
        <time>2018-11-25T09:41:57Z</time>
      </trkpt>
      <trkpt lat="41.66278076171875" lon="2.0106239318847656">
        <ele>1023.376220703125</ele>
        <time>2018-11-25T09:42:02Z</time>
      </trkpt>
      <trkpt lat="41.6627311706543" lon="2.010633945465088">
        <ele>1023.376220703125</ele>
        <time>2018-11-25T09:42:08Z</time>
      </trkpt>
      <trkpt lat="41.66266632080078" lon="2.0106499195098877">
        <ele>1023.376220703125</ele>
        <time>2018-11-25T09:42:13Z</time>
      </trkpt>
      <trkpt lat="41.662620544433594" lon="2.0106289386749268">
        <ele>1023.376220703125</ele>
        <time>2018-11-25T09:42:18Z</time>
      </trkpt>
      <trkpt lat="41.66254806518555" lon="2.0106236934661865">
        <ele>1023.376220703125</ele>
        <time>2018-11-25T09:42:25Z</time>
      </trkpt>
      <trkpt lat="41.662498474121094" lon="2.0106310844421387">
        <ele>1023.376220703125</ele>
        <time>2018-11-25T09:42:29Z</time>
      </trkpt>
      <trkpt lat="41.66244125366211" lon="2.0106472969055176">
        <ele>1024.5579833984375</ele>
        <time>2018-11-25T09:42:34Z</time>
      </trkpt>
      <trkpt lat="41.66238784790039" lon="2.0106379985809326">
        <ele>1024.5579833984375</ele>
        <time>2018-11-25T09:42:38Z</time>
      </trkpt>
      <trkpt lat="41.66233444213867" lon="2.010632038116455">
        <ele>1024.5579833984375</ele>
        <time>2018-11-25T09:42:42Z</time>
      </trkpt>
      <trkpt lat="41.66227722167969" lon="2.0106306076049805">
        <ele>1025.73974609375</ele>
        <time>2018-11-25T09:42:46Z</time>
      </trkpt>
      <trkpt lat="41.66222381591797" lon="2.010634422302246">
        <ele>1025.73974609375</ele>
        <time>2018-11-25T09:42:51Z</time>
      </trkpt>
      <trkpt lat="41.66220474243164" lon="2.0106253623962402">
        <ele>1026.9215087890625</ele>
        <time>2018-11-25T09:43:04Z</time>
      </trkpt>
      <trkpt lat="41.66219711303711" lon="2.0106422901153564">
        <ele>1026.9215087890625</ele>
        <time>2018-11-25T09:43:18Z</time>
      </trkpt>
      <trkpt lat="41.66215896606445" lon="2.0106875896453857">
        <ele>1028.103271484375</ele>
        <time>2018-11-25T09:43:25Z</time>
      </trkpt>
      <trkpt lat="41.6621208190918" lon="2.0107109546661377">
        <ele>1029.2850341796875</ele>
        <time>2018-11-25T09:43:33Z</time>
      </trkpt>
      <trkpt lat="41.66205978393555" lon="2.0107295513153076">
        <ele>1029.2850341796875</ele>
        <time>2018-11-25T09:43:38Z</time>
      </trkpt>
      <trkpt lat="41.662017822265625" lon="2.0107526779174805">
        <ele>1029.2850341796875</ele>
        <time>2018-11-25T09:43:43Z</time>
      </trkpt>
      <trkpt lat="41.661949157714844" lon="2.0107579231262207">
        <ele>1029.2850341796875</ele>
        <time>2018-11-25T09:43:49Z</time>
      </trkpt>
      <trkpt lat="41.66189193725586" lon="2.0107433795928955">
        <ele>1029.2850341796875</ele>
        <time>2018-11-25T09:43:55Z</time>
      </trkpt>
      <trkpt lat="41.66183853149414" lon="2.0107264518737793">
        <ele>1029.2850341796875</ele>
        <time>2018-11-25T09:44:00Z</time>
      </trkpt>
      <trkpt lat="41.661773681640625" lon="2.0107102394104004">
        <ele>1029.2850341796875</ele>
        <time>2018-11-25T09:44:06Z</time>
      </trkpt>
      <trkpt lat="41.66172409057617" lon="2.010680913925171">
        <ele>1029.2850341796875</ele>
        <time>2018-11-25T09:44:12Z</time>
      </trkpt>
      <trkpt lat="41.66166687011719" lon="2.010671615600586">
        <ele>1027.466796875</ele>
        <time>2018-11-25T09:44:18Z</time>
      </trkpt>
      <trkpt lat="41.66160202026367" lon="2.0106546878814697">
        <ele>1027.466796875</ele>
        <time>2018-11-25T09:44:23Z</time>
      </trkpt>
      <trkpt lat="41.661556243896484" lon="2.010653257369995">
        <ele>1026.2850341796875</ele>
        <time>2018-11-25T09:44:28Z</time>
      </trkpt>
      <trkpt lat="41.66151809692383" lon="2.0107274055480957">
        <ele>1025.103271484375</ele>
        <time>2018-11-25T09:44:34Z</time>
      </trkpt>
      <trkpt lat="41.6614875793457" lon="2.0107955932617188">
        <ele>1025.103271484375</ele>
        <time>2018-11-25T09:44:40Z</time>
      </trkpt>
      <trkpt lat="41.66143798828125" lon="2.0108563899993896">
        <ele>1023.9214477539063</ele>
        <time>2018-11-25T09:44:46Z</time>
      </trkpt>
      <trkpt lat="41.66138458251953" lon="2.0109076499938965">
        <ele>1022.6487426757813</ele>
        <time>2018-11-25T09:44:51Z</time>
      </trkpt>
      <trkpt lat="41.66133499145508" lon="2.0109357833862305">
        <ele>1021.4669189453125</ele>
        <time>2018-11-25T09:44:55Z</time>
      </trkpt>
      <trkpt lat="41.66128158569336" lon="2.0109126567840576">
        <ele>1021.4669189453125</ele>
        <time>2018-11-25T09:44:59Z</time>
      </trkpt>
      <trkpt lat="41.66123580932617" lon="2.010899782180786">
        <ele>1020.1942138671875</ele>
        <time>2018-11-25T09:45:03Z</time>
      </trkpt>
      <trkpt lat="41.66119384765625" lon="2.0108582973480225">
        <ele>1020.1942138671875</ele>
        <time>2018-11-25T09:45:08Z</time>
      </trkpt>
      <trkpt lat="41.661170959472656" lon="2.0108449459075928">
        <ele>1018.9215087890625</ele>
        <time>2018-11-25T09:45:35Z</time>
      </trkpt>
      <trkpt lat="41.66112518310547" lon="2.0107829570770264">
        <ele>1018.9215087890625</ele>
        <time>2018-11-25T09:45:42Z</time>
      </trkpt>
      <trkpt lat="41.661094665527344" lon="2.010746955871582">
        <ele>1017.7396850585938</ele>
        <time>2018-11-25T09:45:47Z</time>
      </trkpt>
      <trkpt lat="41.66104507446289" lon="2.010751724243164">
        <ele>1017.7396850585938</ele>
        <time>2018-11-25T09:45:53Z</time>
      </trkpt>
      <trkpt lat="41.66100311279297" lon="2.0107133388519287">
        <ele>1017.7396850585938</ele>
        <time>2018-11-25T09:46:00Z</time>
      </trkpt>
      <trkpt lat="41.66094970703125" lon="2.010658025741577">
        <ele>1016.557861328125</ele>
        <time>2018-11-25T09:46:07Z</time>
      </trkpt>
      <trkpt lat="41.6609001159668" lon="2.010629415512085">
        <ele>1016.557861328125</ele>
        <time>2018-11-25T09:46:12Z</time>
      </trkpt>
      <trkpt lat="41.66084289550781" lon="2.0106194019317627">
        <ele>1016.557861328125</ele>
        <time>2018-11-25T09:46:17Z</time>
      </trkpt>
      <trkpt lat="41.660789489746094" lon="2.0106122493743896">
        <ele>1016.557861328125</ele>
        <time>2018-11-25T09:46:23Z</time>
      </trkpt>
      <trkpt lat="41.660728454589844" lon="2.010611057281494">
        <ele>1016.557861328125</ele>
        <time>2018-11-25T09:46:28Z</time>
      </trkpt>
      <trkpt lat="41.660667419433594" lon="2.010608673095703">
        <ele>1015.3760375976563</ele>
        <time>2018-11-25T09:46:32Z</time>
      </trkpt>
      <trkpt lat="41.660614013671875" lon="2.0106101036071777">
        <ele>1015.3760375976563</ele>
        <time>2018-11-25T09:46:37Z</time>
      </trkpt>
      <trkpt lat="41.66056442260742" lon="2.010615110397339">
        <ele>1015.3760375976563</ele>
        <time>2018-11-25T09:46:41Z</time>
      </trkpt>
      <trkpt lat="41.660499572753906" lon="2.0106215476989746">
        <ele>1015.3760375976563</ele>
        <time>2018-11-25T09:46:46Z</time>
      </trkpt>
      <trkpt lat="41.66044235229492" lon="2.0106253623962402">
        <ele>1014.1942138671875</ele>
        <time>2018-11-25T09:46:51Z</time>
      </trkpt>
      <trkpt lat="41.66038513183594" lon="2.0106277465820313">
        <ele>1014.1942138671875</ele>
        <time>2018-11-25T09:46:55Z</time>
      </trkpt>
      <trkpt lat="41.66032409667969" lon="2.0106332302093506">
        <ele>1014.1942138671875</ele>
        <time>2018-11-25T09:46:59Z</time>
      </trkpt>
      <trkpt lat="41.660274505615234" lon="2.010636329650879">
        <ele>1013.0123901367188</ele>
        <time>2018-11-25T09:47:03Z</time>
      </trkpt>
      <trkpt lat="41.66021728515625" lon="2.0106372833251953">
        <ele>1013.0123901367188</ele>
        <time>2018-11-25T09:47:08Z</time>
      </trkpt>
      <trkpt lat="41.660160064697266" lon="2.010641574859619">
        <ele>1011.83056640625</ele>
        <time>2018-11-25T09:47:12Z</time>
      </trkpt>
      <trkpt lat="41.66010665893555" lon="2.010646104812622">
        <ele>1011.83056640625</ele>
        <time>2018-11-25T09:47:16Z</time>
      </trkpt>
      <trkpt lat="41.66004943847656" lon="2.010647773742676">
        <ele>1011.83056640625</ele>
        <time>2018-11-25T09:47:21Z</time>
      </trkpt>
      <trkpt lat="41.659996032714844" lon="2.0106470584869385">
        <ele>1011.83056640625</ele>
        <time>2018-11-25T09:47:25Z</time>
      </trkpt>
      <trkpt lat="41.65993881225586" lon="2.010650634765625">
        <ele>1010.6487426757813</ele>
        <time>2018-11-25T09:47:32Z</time>
      </trkpt>
      <trkpt lat="41.65988540649414" lon="2.0106687545776367">
        <ele>1010.6487426757813</ele>
        <time>2018-11-25T09:47:37Z</time>
      </trkpt>
      <trkpt lat="41.659828186035156" lon="2.0106871128082275">
        <ele>1010.6487426757813</ele>
        <time>2018-11-25T09:47:41Z</time>
      </trkpt>
      <trkpt lat="41.659767150878906" lon="2.0106983184814453">
        <ele>1010.6487426757813</ele>
        <time>2018-11-25T09:47:46Z</time>
      </trkpt>
      <trkpt lat="41.65971374511719" lon="2.0107014179229736">
        <ele>1010.6487426757813</ele>
        <time>2018-11-25T09:47:50Z</time>
      </trkpt>
      <trkpt lat="41.65966033935547" lon="2.010697364807129">
        <ele>1010.6487426757813</ele>
        <time>2018-11-25T09:47:54Z</time>
      </trkpt>
      <trkpt lat="41.659610748291016" lon="2.010681390762329">
        <ele>1010.6487426757813</ele>
        <time>2018-11-25T09:47:58Z</time>
      </trkpt>
      <trkpt lat="41.6595573425293" lon="2.010667085647583">
        <ele>1010.6487426757813</ele>
        <time>2018-11-25T09:48:03Z</time>
      </trkpt>
      <trkpt lat="41.65950393676758" lon="2.0106632709503174">
        <ele>1010.6487426757813</ele>
        <time>2018-11-25T09:48:07Z</time>
      </trkpt>
      <trkpt lat="41.65945053100586" lon="2.010667085647583">
        <ele>1010.6487426757813</ele>
        <time>2018-11-25T09:48:11Z</time>
      </trkpt>
      <trkpt lat="41.65938949584961" lon="2.0106775760650635">
        <ele>1010.6487426757813</ele>
        <time>2018-11-25T09:48:16Z</time>
      </trkpt>
      <trkpt lat="41.659339904785156" lon="2.010685920715332">
        <ele>1010.6487426757813</ele>
        <time>2018-11-25T09:48:21Z</time>
      </trkpt>
      <trkpt lat="41.65927505493164" lon="2.0106863975524902">
        <ele>1011.83056640625</ele>
        <time>2018-11-25T09:48:26Z</time>
      </trkpt>
      <trkpt lat="41.65922164916992" lon="2.01068377494812">
        <ele>1013.1942138671875</ele>
        <time>2018-11-25T09:48:30Z</time>
      </trkpt>
      <trkpt lat="41.65916442871094" lon="2.010678768157959">
        <ele>1013.1942138671875</ele>
        <time>2018-11-25T09:48:35Z</time>
      </trkpt>
      <trkpt lat="41.65911102294922" lon="2.010669231414795">
        <ele>1013.1942138671875</ele>
        <time>2018-11-25T09:48:40Z</time>
      </trkpt>
      <trkpt lat="41.65904998779297" lon="2.0106592178344727">
        <ele>1014.4669189453125</ele>
        <time>2018-11-25T09:48:44Z</time>
      </trkpt>
      <trkpt lat="41.65900421142578" lon="2.0106465816497803">
        <ele>1014.4669189453125</ele>
        <time>2018-11-25T09:48:48Z</time>
      </trkpt>
      <trkpt lat="41.658939361572266" lon="2.0106232166290283">
        <ele>1014.4669189453125</ele>
        <time>2018-11-25T09:48:53Z</time>
      </trkpt>
      <trkpt lat="41.65888977050781" lon="2.0106089115142822">
        <ele>1014.4669189453125</ele>
        <time>2018-11-25T09:48:59Z</time>
      </trkpt>
      <trkpt lat="41.6588249206543" lon="2.0106027126312256">
        <ele>1015.7396240234375</ele>
        <time>2018-11-25T09:49:04Z</time>
      </trkpt>
      <trkpt lat="41.65876388549805" lon="2.010606288909912">
        <ele>1015.7396240234375</ele>
        <time>2018-11-25T09:49:09Z</time>
      </trkpt>
      <trkpt lat="41.658695220947266" lon="2.010622978210449">
        <ele>1016.9214477539063</ele>
        <time>2018-11-25T09:49:14Z</time>
      </trkpt>
      <trkpt lat="41.65864562988281" lon="2.0106377601623535">
        <ele>1016.9214477539063</ele>
        <time>2018-11-25T09:49:18Z</time>
      </trkpt>
      <trkpt lat="41.658592224121094" lon="2.0106472969055176">
        <ele>1016.9214477539063</ele>
        <time>2018-11-25T09:49:22Z</time>
      </trkpt>
      <trkpt lat="41.658531188964844" lon="2.010619640350342">
        <ele>1016.9214477539063</ele>
        <time>2018-11-25T09:49:27Z</time>
      </trkpt>
      <trkpt lat="41.65850067138672" lon="2.0105669498443604">
        <ele>1018.1941528320313</ele>
        <time>2018-11-25T09:49:31Z</time>
      </trkpt>
      <trkpt lat="41.658477783203125" lon="2.010505437850952">
        <ele>1018.1941528320313</ele>
        <time>2018-11-25T09:49:35Z</time>
      </trkpt>
      <trkpt lat="41.65843963623047" lon="2.0104587078094482">
        <ele>1019.3759765625</ele>
        <time>2018-11-25T09:49:41Z</time>
      </trkpt>
      <trkpt lat="41.65839385986328" lon="2.0104284286499023">
        <ele>1020.648681640625</ele>
        <time>2018-11-25T09:49:46Z</time>
      </trkpt>
      <trkpt lat="41.65834045410156" lon="2.010397434234619">
        <ele>1020.648681640625</ele>
        <time>2018-11-25T09:49:51Z</time>
      </trkpt>
      <trkpt lat="41.65828323364258" lon="2.010380744934082">
        <ele>1020.648681640625</ele>
        <time>2018-11-25T09:49:56Z</time>
      </trkpt>
      <trkpt lat="41.65822219848633" lon="2.0103724002838135">
        <ele>1021.92138671875</ele>
        <time>2018-11-25T09:50:01Z</time>
      </trkpt>
      <trkpt lat="41.658172607421875" lon="2.010368585586548">
        <ele>1021.92138671875</ele>
        <time>2018-11-25T09:50:05Z</time>
      </trkpt>
      <trkpt lat="41.65812301635742" lon="2.010361433029175">
        <ele>1021.92138671875</ele>
        <time>2018-11-25T09:50:09Z</time>
      </trkpt>
      <trkpt lat="41.6580696105957" lon="2.010356903076172">
        <ele>1021.92138671875</ele>
        <time>2018-11-25T09:50:13Z</time>
      </trkpt>
      <trkpt lat="41.65800857543945" lon="2.0103681087493896">
        <ele>1021.92138671875</ele>
        <time>2018-11-25T09:50:19Z</time>
      </trkpt>
      <trkpt lat="41.65795135498047" lon="2.0103816986083984">
        <ele>1021.92138671875</ele>
        <time>2018-11-25T09:50:24Z</time>
      </trkpt>
      <trkpt lat="41.657901763916016" lon="2.01039457321167">
        <ele>1021.92138671875</ele>
        <time>2018-11-25T09:50:29Z</time>
      </trkpt>
      <trkpt lat="41.65784454345703" lon="2.0104117393493652">
        <ele>1021.92138671875</ele>
        <time>2018-11-25T09:50:36Z</time>
      </trkpt>
      <trkpt lat="41.65778350830078" lon="2.010425090789795">
        <ele>1023.194091796875</ele>
        <time>2018-11-25T09:50:42Z</time>
      </trkpt>
      <trkpt lat="41.65773391723633" lon="2.0103776454925537">
        <ele>1023.194091796875</ele>
        <time>2018-11-25T09:50:48Z</time>
      </trkpt>
      <trkpt lat="41.657691955566406" lon="2.0103366374969482">
        <ele>1023.194091796875</ele>
        <time>2018-11-25T09:50:52Z</time>
      </trkpt>
      <trkpt lat="41.65763854980469" lon="2.0102813243865967">
        <ele>1023.194091796875</ele>
        <time>2018-11-25T09:50:57Z</time>
      </trkpt>
      <trkpt lat="41.65760040283203" lon="2.0102386474609375">
        <ele>1023.194091796875</ele>
        <time>2018-11-25T09:51:02Z</time>
      </trkpt>
      <trkpt lat="41.65754699707031" lon="2.010202407836914">
        <ele>1023.194091796875</ele>
        <time>2018-11-25T09:51:08Z</time>
      </trkpt>
      <trkpt lat="41.65750503540039" lon="2.010162353515625">
        <ele>1023.194091796875</ele>
        <time>2018-11-25T09:51:12Z</time>
      </trkpt>
      <trkpt lat="41.65744400024414" lon="2.010133743286133">
        <ele>1024.5577392578125</ele>
        <time>2018-11-25T09:51:17Z</time>
      </trkpt>
      <trkpt lat="41.65738296508789" lon="2.0101490020751953">
        <ele>1024.5577392578125</ele>
        <time>2018-11-25T09:51:22Z</time>
      </trkpt>
      <trkpt lat="41.657325744628906" lon="2.0101475715637207">
        <ele>1024.5577392578125</ele>
        <time>2018-11-25T09:51:26Z</time>
      </trkpt>
      <trkpt lat="41.657264709472656" lon="2.010145664215088">
        <ele>1025.92138671875</ele>
        <time>2018-11-25T09:51:30Z</time>
      </trkpt>
      <trkpt lat="41.65721130371094" lon="2.0101571083068848">
        <ele>1027.194091796875</ele>
        <time>2018-11-25T09:51:34Z</time>
      </trkpt>
      <trkpt lat="41.65715408325195" lon="2.0101699829101563">
        <ele>1027.194091796875</ele>
        <time>2018-11-25T09:51:39Z</time>
      </trkpt>
      <trkpt lat="41.65709686279297" lon="2.010188102722168">
        <ele>1028.466796875</ele>
        <time>2018-11-25T09:51:44Z</time>
      </trkpt>
      <trkpt lat="41.65704345703125" lon="2.010200262069702">
        <ele>1028.466796875</ele>
        <time>2018-11-25T09:51:48Z</time>
      </trkpt>
      <trkpt lat="41.656982421875" lon="2.010219097137451">
        <ele>1029.6485595703125</ele>
        <time>2018-11-25T09:51:53Z</time>
      </trkpt>
      <trkpt lat="41.65692901611328" lon="2.0102343559265137">
        <ele>1029.6485595703125</ele>
        <time>2018-11-25T09:51:57Z</time>
      </trkpt>
      <trkpt lat="41.6568717956543" lon="2.0102505683898926">
        <ele>1029.6485595703125</ele>
        <time>2018-11-25T09:52:01Z</time>
      </trkpt>
      <trkpt lat="41.65682601928711" lon="2.010258436203003">
        <ele>1030.830322265625</ele>
        <time>2018-11-25T09:52:05Z</time>
      </trkpt>
      <trkpt lat="41.65677261352539" lon="2.010298252105713">
        <ele>1030.830322265625</ele>
        <time>2018-11-25T09:52:10Z</time>
      </trkpt>
      <trkpt lat="41.6567268371582" lon="2.010329246520996">
        <ele>1030.830322265625</ele>
        <time>2018-11-25T09:52:15Z</time>
      </trkpt>
      <trkpt lat="41.65666961669922" lon="2.0103390216827393">
        <ele>1030.830322265625</ele>
        <time>2018-11-25T09:52:20Z</time>
      </trkpt>
      <trkpt lat="41.656620025634766" lon="2.010359764099121">
        <ele>1029.5576171875</ele>
        <time>2018-11-25T09:52:26Z</time>
      </trkpt>
      <trkpt lat="41.65656661987305" lon="2.0103840827941895">
        <ele>1028.284912109375</ele>
        <time>2018-11-25T09:52:31Z</time>
      </trkpt>
      <trkpt lat="41.65651321411133" lon="2.0104117393493652">
        <ele>1027.1031494140625</ele>
        <time>2018-11-25T09:52:37Z</time>
      </trkpt>
      <trkpt lat="41.656463623046875" lon="2.010434627532959">
        <ele>1025.92138671875</ele>
        <time>2018-11-25T09:52:41Z</time>
      </trkpt>
      <trkpt lat="41.65640640258789" lon="2.0104117393493652">
        <ele>1025.92138671875</ele>
        <time>2018-11-25T09:52:46Z</time>
      </trkpt>
      <trkpt lat="41.656349182128906" lon="2.0104150772094727">
        <ele>1024.5577392578125</ele>
        <time>2018-11-25T09:52:50Z</time>
      </trkpt>
      <trkpt lat="41.65629196166992" lon="2.0104076862335205">
        <ele>1023.2850341796875</ele>
        <time>2018-11-25T09:52:55Z</time>
      </trkpt>
      <trkpt lat="41.65623092651367" lon="2.0103957653045654">
        <ele>1022.0123291015625</ele>
        <time>2018-11-25T09:53:00Z</time>
      </trkpt>
      <trkpt lat="41.65617752075195" lon="2.0103883743286133">
        <ele>1022.0123291015625</ele>
        <time>2018-11-25T09:53:04Z</time>
      </trkpt>
      <trkpt lat="41.656124114990234" lon="2.0103769302368164">
        <ele>1020.8305053710938</ele>
        <time>2018-11-25T09:53:08Z</time>
      </trkpt>
      <trkpt lat="41.65607452392578" lon="2.010364055633545">
        <ele>1020.8305053710938</ele>
        <time>2018-11-25T09:53:14Z</time>
      </trkpt>
      <trkpt lat="41.6560173034668" lon="2.0103743076324463">
        <ele>1019.648681640625</ele>
        <time>2018-11-25T09:53:20Z</time>
      </trkpt>
      <trkpt lat="41.65596389770508" lon="2.0103812217712402">
        <ele>1019.648681640625</ele>
        <time>2018-11-25T09:53:25Z</time>
      </trkpt>
      <trkpt lat="41.655914306640625" lon="2.010416269302368">
        <ele>1019.648681640625</ele>
        <time>2018-11-25T09:53:31Z</time>
      </trkpt>
      <trkpt lat="41.65586471557617" lon="2.0104353427886963">
        <ele>1016.2850952148438</ele>
        <time>2018-11-25T09:53:38Z</time>
      </trkpt>
      <trkpt lat="41.65581130981445" lon="2.0104386806488037">
        <ele>1013.9214477539063</ele>
        <time>2018-11-25T09:53:44Z</time>
      </trkpt>
      <trkpt lat="41.65574645996094" lon="2.010435104370117">
        <ele>1012.7396240234375</ele>
        <time>2018-11-25T09:53:50Z</time>
      </trkpt>
      <trkpt lat="41.655696868896484" lon="2.0104176998138428">
        <ele>1009.1941528320313</ele>
        <time>2018-11-25T09:53:55Z</time>
      </trkpt>
      <trkpt lat="41.655677795410156" lon="2.010342597961426">
        <ele>1008.0123291015625</ele>
        <time>2018-11-25T09:54:00Z</time>
      </trkpt>
      <trkpt lat="41.655662536621094" lon="2.010287046432495">
        <ele>1006.7396240234375</ele>
        <time>2018-11-25T09:54:06Z</time>
      </trkpt>
      <trkpt lat="41.655723571777344" lon="2.010296583175659">
        <ele>1005.5578002929688</ele>
        <time>2018-11-25T09:54:40Z</time>
      </trkpt>
      <trkpt lat="41.655670166015625" lon="2.01029109954834">
        <ele>1002.0123291015625</ele>
        <time>2018-11-25T09:54:49Z</time>
      </trkpt>
      <trkpt lat="41.6556396484375" lon="2.010237693786621">
        <ele>1000.1941528320313</ele>
        <time>2018-11-25T09:54:58Z</time>
      </trkpt>
      <trkpt lat="41.65559005737305" lon="2.0102217197418213">
        <ele>998.9214477539063</ele>
        <time>2018-11-25T09:55:12Z</time>
      </trkpt>
      <trkpt lat="41.65556716918945" lon="2.0101664066314697">
        <ele>997.6487426757813</ele>
        <time>2018-11-25T09:55:25Z</time>
      </trkpt>
      <trkpt lat="41.65553283691406" lon="2.010174036026001">
        <ele>995.2850952148438</ele>
        <time>2018-11-25T09:55:36Z</time>
      </trkpt>
      <trkpt lat="41.655452728271484" lon="2.010185956954956">
        <ele>994.103271484375</ele>
        <time>2018-11-25T09:55:56Z</time>
      </trkpt>
      <trkpt lat="41.65540313720703" lon="2.010221004486084">
        <ele>992.9214477539063</ele>
        <time>2018-11-25T09:56:03Z</time>
      </trkpt>
      <trkpt lat="41.655357360839844" lon="2.010206699371338">
        <ele>991.5578002929688</ele>
        <time>2018-11-25T09:56:10Z</time>
      </trkpt>
      <trkpt lat="41.65532302856445" lon="2.010213613510132">
        <ele>991.5578002929688</ele>
        <time>2018-11-25T09:56:26Z</time>
      </trkpt>
      <trkpt lat="41.6552619934082" lon="2.010317325592041">
        <ele>990.2850952148438</ele>
        <time>2018-11-25T09:57:24Z</time>
      </trkpt>
      <trkpt lat="41.65522766113281" lon="2.0103530883789063">
        <ele>990.2850952148438</ele>
        <time>2018-11-25T09:57:35Z</time>
      </trkpt>
      <trkpt lat="41.65519332885742" lon="2.010380744934082">
        <ele>990.2850952148438</ele>
        <time>2018-11-25T09:57:49Z</time>
      </trkpt>
      <trkpt lat="41.655147552490234" lon="2.010390281677246">
        <ele>990.2850952148438</ele>
        <time>2018-11-25T09:58:03Z</time>
      </trkpt>
      <trkpt lat="41.65510559082031" lon="2.010383367538452">
        <ele>990.2850952148438</ele>
        <time>2018-11-25T09:58:26Z</time>
      </trkpt>
      <trkpt lat="41.655059814453125" lon="2.0103635787963867">
        <ele>990.2850952148438</ele>
        <time>2018-11-25T09:58:34Z</time>
      </trkpt>
      <trkpt lat="41.65501403808594" lon="2.0103390216827393">
        <ele>991.5578002929688</ele>
        <time>2018-11-25T09:58:44Z</time>
      </trkpt>
      <trkpt lat="41.65495681762695" lon="2.0103323459625244">
        <ele>992.7396240234375</ele>
        <time>2018-11-25T09:58:49Z</time>
      </trkpt>
      <trkpt lat="41.654911041259766" lon="2.0103116035461426">
        <ele>992.7396240234375</ele>
        <time>2018-11-25T09:58:53Z</time>
      </trkpt>
      <trkpt lat="41.65486145019531" lon="2.0103280544281006">
        <ele>992.7396240234375</ele>
        <time>2018-11-25T09:58:59Z</time>
      </trkpt>
      <trkpt lat="41.6547966003418" lon="2.0103464126586914">
        <ele>992.7396240234375</ele>
        <time>2018-11-25T09:59:05Z</time>
      </trkpt>
      <trkpt lat="41.65473937988281" lon="2.0103518962860107">
        <ele>992.7396240234375</ele>
        <time>2018-11-25T09:59:09Z</time>
      </trkpt>
      <trkpt lat="41.65467834472656" lon="2.0103540420532227">
        <ele>992.7396240234375</ele>
        <time>2018-11-25T09:59:14Z</time>
      </trkpt>
      <trkpt lat="41.654632568359375" lon="2.0103518962860107">
        <ele>993.9214477539063</ele>
        <time>2018-11-25T09:59:17Z</time>
      </trkpt>
      <trkpt lat="41.654563903808594" lon="2.0103516578674316">
        <ele>993.9214477539063</ele>
        <time>2018-11-25T09:59:22Z</time>
      </trkpt>
      <trkpt lat="41.654510498046875" lon="2.010354995727539">
        <ele>995.1941528320313</ele>
        <time>2018-11-25T09:59:26Z</time>
      </trkpt>
      <trkpt lat="41.65445327758789" lon="2.010359048843384">
        <ele>996.4668579101563</ele>
        <time>2018-11-25T09:59:30Z</time>
      </trkpt>
      <trkpt lat="41.65441131591797" lon="2.0103652477264404">
        <ele>997.648681640625</ele>
        <time>2018-11-25T09:59:35Z</time>
      </trkpt>
      <trkpt lat="41.65434265136719" lon="2.010380983352661">
        <ele>997.648681640625</ele>
        <time>2018-11-25T09:59:41Z</time>
      </trkpt>
      <trkpt lat="41.6542854309082" lon="2.01039457321167">
        <ele>998.92138671875</ele>
        <time>2018-11-25T09:59:45Z</time>
      </trkpt>
      <trkpt lat="41.65423583984375" lon="2.010411262512207">
        <ele>998.92138671875</ele>
        <time>2018-11-25T09:59:49Z</time>
      </trkpt>
      <trkpt lat="41.654178619384766" lon="2.0104289054870605">
        <ele>1000.194091796875</ele>
        <time>2018-11-25T09:59:53Z</time>
      </trkpt>
      <trkpt lat="41.65413284301758" lon="2.010443687438965">
        <ele>1000.194091796875</ele>
        <time>2018-11-25T09:59:57Z</time>
      </trkpt>
      <trkpt lat="41.65407943725586" lon="2.010460376739502">
        <ele>1000.194091796875</ele>
        <time>2018-11-25T10:00:04Z</time>
      </trkpt>
      <trkpt lat="41.65401840209961" lon="2.010477304458618">
        <ele>1000.194091796875</ele>
        <time>2018-11-25T10:00:10Z</time>
      </trkpt>
      <trkpt lat="41.65396499633789" lon="2.0104925632476807">
        <ele>1000.194091796875</ele>
        <time>2018-11-25T10:00:19Z</time>
      </trkpt>
      <trkpt lat="41.65391540527344" lon="2.010514259338379">
        <ele>1000.194091796875</ele>
        <time>2018-11-25T10:00:25Z</time>
      </trkpt>
      <trkpt lat="41.65385437011719" lon="2.0106260776519775">
        <ele>1000.194091796875</ele>
        <time>2018-11-25T10:00:38Z</time>
      </trkpt>
      <trkpt lat="41.65380859375" lon="2.010676622390747">
        <ele>1000.194091796875</ele>
        <time>2018-11-25T10:00:46Z</time>
      </trkpt>
      <trkpt lat="41.65376281738281" lon="2.0107266902923584">
        <ele>1000.194091796875</ele>
        <time>2018-11-25T10:00:51Z</time>
      </trkpt>
      <trkpt lat="41.65372085571289" lon="2.010774612426758">
        <ele>1000.194091796875</ele>
        <time>2018-11-25T10:00:56Z</time>
      </trkpt>
      <trkpt lat="41.6536750793457" lon="2.0108416080474854">
        <ele>1000.194091796875</ele>
        <time>2018-11-25T10:01:01Z</time>
      </trkpt>
      <trkpt lat="41.65364074707031" lon="2.0108914375305176">
        <ele>1000.194091796875</ele>
        <time>2018-11-25T10:01:04Z</time>
      </trkpt>
      <trkpt lat="41.653602600097656" lon="2.0109469890594482">
        <ele>1000.194091796875</ele>
        <time>2018-11-25T10:01:08Z</time>
      </trkpt>
      <trkpt lat="41.65355682373047" lon="2.0109803676605225">
        <ele>1000.194091796875</ele>
        <time>2018-11-25T10:01:13Z</time>
      </trkpt>
      <trkpt lat="41.65351104736328" lon="2.01102876663208">
        <ele>1000.194091796875</ele>
        <time>2018-11-25T10:01:20Z</time>
      </trkpt>
      <trkpt lat="41.65346145629883" lon="2.011064291000366">
        <ele>998.92138671875</ele>
        <time>2018-11-25T10:01:25Z</time>
      </trkpt>
      <trkpt lat="41.653411865234375" lon="2.0111145973205566">
        <ele>997.7395629882813</ele>
        <time>2018-11-25T10:01:30Z</time>
      </trkpt>
      <trkpt lat="41.65336227416992" lon="2.011159896850586">
        <ele>997.7395629882813</ele>
        <time>2018-11-25T10:01:35Z</time>
      </trkpt>
      <trkpt lat="41.6533203125" lon="2.011204719543457">
        <ele>996.5577392578125</ele>
        <time>2018-11-25T10:01:39Z</time>
      </trkpt>
      <trkpt lat="41.653263092041016" lon="2.0112552642822266">
        <ele>996.5577392578125</ele>
        <time>2018-11-25T10:01:44Z</time>
      </trkpt>
      <trkpt lat="41.6532096862793" lon="2.011239767074585">
        <ele>996.5577392578125</ele>
        <time>2018-11-25T10:01:48Z</time>
      </trkpt>
      <trkpt lat="41.65315246582031" lon="2.0112130641937256">
        <ele>996.5577392578125</ele>
        <time>2018-11-25T10:01:53Z</time>
      </trkpt>
      <trkpt lat="41.65310287475586" lon="2.0112099647521973">
        <ele>996.5577392578125</ele>
        <time>2018-11-25T10:01:57Z</time>
      </trkpt>
      <trkpt lat="41.653045654296875" lon="2.0112054347991943">
        <ele>996.5577392578125</ele>
        <time>2018-11-25T10:02:02Z</time>
      </trkpt>
      <trkpt lat="41.65300369262695" lon="2.0112359523773193">
        <ele>996.5577392578125</ele>
        <time>2018-11-25T10:02:08Z</time>
      </trkpt>
      <trkpt lat="41.6529655456543" lon="2.0112900733947754">
        <ele>996.5577392578125</ele>
        <time>2018-11-25T10:02:14Z</time>
      </trkpt>
      <trkpt lat="41.65291213989258" lon="2.011312961578369">
        <ele>996.5577392578125</ele>
        <time>2018-11-25T10:02:19Z</time>
      </trkpt>
      <trkpt lat="41.652854919433594" lon="2.0113134384155273">
        <ele>994.4668579101563</ele>
        <time>2018-11-25T10:02:24Z</time>
      </trkpt>
      <trkpt lat="41.652801513671875" lon="2.011305570602417">
        <ele>994.4668579101563</ele>
        <time>2018-11-25T10:02:28Z</time>
      </trkpt>
      <trkpt lat="41.65275955200195" lon="2.0112900733947754">
        <ele>994.4668579101563</ele>
        <time>2018-11-25T10:02:34Z</time>
      </trkpt>
      <trkpt lat="41.6527214050293" lon="2.0112476348876953">
        <ele>994.4668579101563</ele>
        <time>2018-11-25T10:02:46Z</time>
      </trkpt>
      <trkpt lat="41.652671813964844" lon="2.0112180709838867">
        <ele>994.4668579101563</ele>
        <time>2018-11-25T10:02:51Z</time>
      </trkpt>
      <trkpt lat="41.652618408203125" lon="2.0112087726593018">
        <ele>994.4668579101563</ele>
        <time>2018-11-25T10:02:57Z</time>
      </trkpt>
      <trkpt lat="41.652565002441406" lon="2.0112154483795166">
        <ele>993.1941528320313</ele>
        <time>2018-11-25T10:03:02Z</time>
      </trkpt>
      <trkpt lat="41.65251159667969" lon="2.0112226009368896">
        <ele>993.1941528320313</ele>
        <time>2018-11-25T10:03:07Z</time>
      </trkpt>
      <trkpt lat="41.6524543762207" lon="2.011244297027588">
        <ele>993.1941528320313</ele>
        <time>2018-11-25T10:03:12Z</time>
      </trkpt>
      <trkpt lat="41.65239715576172" lon="2.0112483501434326">
        <ele>992.0123291015625</ele>
        <time>2018-11-25T10:03:18Z</time>
      </trkpt>
      <trkpt lat="41.65233612060547" lon="2.011261224746704">
        <ele>990.8305053710938</ele>
        <time>2018-11-25T10:03:23Z</time>
      </trkpt>
      <trkpt lat="41.652286529541016" lon="2.0112760066986084">
        <ele>990.8305053710938</ele>
        <time>2018-11-25T10:03:28Z</time>
      </trkpt>
      <trkpt lat="41.6522331237793" lon="2.011286735534668">
        <ele>989.648681640625</ele>
        <time>2018-11-25T10:03:32Z</time>
      </trkpt>
      <trkpt lat="41.65217971801758" lon="2.0113253593444824">
        <ele>989.648681640625</ele>
        <time>2018-11-25T10:03:37Z</time>
      </trkpt>
      <trkpt lat="41.65212631225586" lon="2.0113673210144043">
        <ele>989.648681640625</ele>
        <time>2018-11-25T10:03:41Z</time>
      </trkpt>
      <trkpt lat="41.65207290649414" lon="2.0113863945007324">
        <ele>989.648681640625</ele>
        <time>2018-11-25T10:03:45Z</time>
      </trkpt>
      <trkpt lat="41.65201950073242" lon="2.011396884918213">
        <ele>989.648681640625</ele>
        <time>2018-11-25T10:03:50Z</time>
      </trkpt>
      <trkpt lat="41.65196228027344" lon="2.0114099979400635">
        <ele>989.648681640625</ele>
        <time>2018-11-25T10:03:55Z</time>
      </trkpt>
      <trkpt lat="41.65190887451172" lon="2.011428117752075">
        <ele>989.648681640625</ele>
        <time>2018-11-25T10:04:00Z</time>
      </trkpt>
      <trkpt lat="41.651859283447266" lon="2.011460304260254">
        <ele>989.648681640625</ele>
        <time>2018-11-25T10:04:04Z</time>
      </trkpt>
      <trkpt lat="41.65180587768555" lon="2.0114996433258057">
        <ele>989.648681640625</ele>
        <time>2018-11-25T10:04:09Z</time>
      </trkpt>
      <trkpt lat="41.651763916015625" lon="2.0115280151367188">
        <ele>989.648681640625</ele>
        <time>2018-11-25T10:04:13Z</time>
      </trkpt>
      <trkpt lat="41.65171432495117" lon="2.0115506649017334">
        <ele>988.4668579101563</ele>
        <time>2018-11-25T10:04:18Z</time>
      </trkpt>
      <trkpt lat="41.65165710449219" lon="2.0115907192230225">
        <ele>988.4668579101563</ele>
        <time>2018-11-25T10:04:23Z</time>
      </trkpt>
      <trkpt lat="41.651607513427734" lon="2.0116193294525146">
        <ele>988.4668579101563</ele>
        <time>2018-11-25T10:04:27Z</time>
      </trkpt>
      <trkpt lat="41.65156936645508" lon="2.0116500854492188">
        <ele>988.4668579101563</ele>
        <time>2018-11-25T10:04:31Z</time>
      </trkpt>
      <trkpt lat="41.65150451660156" lon="2.0116848945617676">
        <ele>988.4668579101563</ele>
        <time>2018-11-25T10:04:36Z</time>
      </trkpt>
      <trkpt lat="41.65146255493164" lon="2.011730432510376">
        <ele>989.648681640625</ele>
        <time>2018-11-25T10:04:40Z</time>
      </trkpt>
      <trkpt lat="41.65142822265625" lon="2.0117874145507813">
        <ele>989.648681640625</ele>
        <time>2018-11-25T10:04:44Z</time>
      </trkpt>
      <trkpt lat="41.651371002197266" lon="2.0117950439453125">
        <ele>989.648681640625</ele>
        <time>2018-11-25T10:04:49Z</time>
      </trkpt>
      <trkpt lat="41.65132141113281" lon="2.0117862224578857">
        <ele>989.648681640625</ele>
        <time>2018-11-25T10:04:54Z</time>
      </trkpt>
      <trkpt lat="41.651268005371094" lon="2.0118119716644287">
        <ele>990.92138671875</ele>
        <time>2018-11-25T10:04:59Z</time>
      </trkpt>
      <trkpt lat="41.651222229003906" lon="2.0118322372436523">
        <ele>990.92138671875</ele>
        <time>2018-11-25T10:05:03Z</time>
      </trkpt>
      <trkpt lat="41.65115737915039" lon="2.0118370056152344">
        <ele>990.92138671875</ele>
        <time>2018-11-25T10:05:08Z</time>
      </trkpt>
      <trkpt lat="41.65110778808594" lon="2.0118446350097656">
        <ele>990.92138671875</ele>
        <time>2018-11-25T10:05:12Z</time>
      </trkpt>
      <trkpt lat="41.65106201171875" lon="2.0118696689605713">
        <ele>990.92138671875</ele>
        <time>2018-11-25T10:05:17Z</time>
      </trkpt>
      <trkpt lat="41.6510124206543" lon="2.0119025707244873">
        <ele>990.92138671875</ele>
        <time>2018-11-25T10:05:25Z</time>
      </trkpt>
      <trkpt lat="41.65095138549805" lon="2.0119290351867676">
        <ele>990.92138671875</ele>
        <time>2018-11-25T10:05:31Z</time>
      </trkpt>
      <trkpt lat="41.650901794433594" lon="2.011956214904785">
        <ele>990.92138671875</ele>
        <time>2018-11-25T10:05:36Z</time>
      </trkpt>
      <trkpt lat="41.65085983276367" lon="2.0120127201080322">
        <ele>990.92138671875</ele>
        <time>2018-11-25T10:05:41Z</time>
      </trkpt>
      <trkpt lat="41.65081787109375" lon="2.012051582336426">
        <ele>992.1032104492188</ele>
        <time>2018-11-25T10:05:45Z</time>
      </trkpt>
      <trkpt lat="41.6507682800293" lon="2.012054681777954">
        <ele>992.1032104492188</ele>
        <time>2018-11-25T10:05:50Z</time>
      </trkpt>
      <trkpt lat="41.65071105957031" lon="2.012089729309082">
        <ele>992.1032104492188</ele>
        <time>2018-11-25T10:05:55Z</time>
      </trkpt>
      <trkpt lat="41.65065383911133" lon="2.0121123790740967">
        <ele>993.4668579101563</ele>
        <time>2018-11-25T10:05:59Z</time>
      </trkpt>
      <trkpt lat="41.650604248046875" lon="2.0121309757232666">
        <ele>994.7395629882813</ele>
        <time>2018-11-25T10:06:03Z</time>
      </trkpt>
      <trkpt lat="41.65055465698242" lon="2.0121476650238037">
        <ele>996.0122680664063</ele>
        <time>2018-11-25T10:06:07Z</time>
      </trkpt>
      <trkpt lat="41.65049743652344" lon="2.0121676921844482">
        <ele>996.0122680664063</ele>
        <time>2018-11-25T10:06:13Z</time>
      </trkpt>
      <trkpt lat="41.650447845458984" lon="2.0121843814849854">
        <ele>996.0122680664063</ele>
        <time>2018-11-25T10:06:17Z</time>
      </trkpt>
      <trkpt lat="41.650394439697266" lon="2.012195348739624">
        <ele>996.0122680664063</ele>
        <time>2018-11-25T10:06:22Z</time>
      </trkpt>
      <trkpt lat="41.65032958984375" lon="2.012204647064209">
        <ele>996.0122680664063</ele>
        <time>2018-11-25T10:06:29Z</time>
      </trkpt>
      <trkpt lat="41.6502799987793" lon="2.012212038040161">
        <ele>994.7395629882813</ele>
        <time>2018-11-25T10:06:33Z</time>
      </trkpt>
      <trkpt lat="41.65022659301758" lon="2.012216329574585">
        <ele>994.7395629882813</ele>
        <time>2018-11-25T10:06:38Z</time>
      </trkpt>
      <trkpt lat="41.65016555786133" lon="2.0122146606445313">
        <ele>993.4668579101563</ele>
        <time>2018-11-25T10:06:44Z</time>
      </trkpt>
      <trkpt lat="41.650123596191406" lon="2.012216329574585">
        <ele>992.2850341796875</ele>
        <time>2018-11-25T10:06:49Z</time>
      </trkpt>
      <trkpt lat="41.650062561035156" lon="2.0122263431549072">
        <ele>991.0123291015625</ele>
        <time>2018-11-25T10:06:55Z</time>
      </trkpt>
      <trkpt lat="41.65000915527344" lon="2.012248992919922">
        <ele>991.0123291015625</ele>
        <time>2018-11-25T10:07:00Z</time>
      </trkpt>
      <trkpt lat="41.64995193481445" lon="2.01227068901062">
        <ele>991.0123291015625</ele>
        <time>2018-11-25T10:07:06Z</time>
      </trkpt>
      <trkpt lat="41.64990997314453" lon="2.0122902393341064">
        <ele>988.648681640625</ele>
        <time>2018-11-25T10:07:11Z</time>
      </trkpt>
      <trkpt lat="41.649845123291016" lon="2.0123002529144287">
        <ele>987.2850341796875</ele>
        <time>2018-11-25T10:07:17Z</time>
      </trkpt>
      <trkpt lat="41.649776458740234" lon="2.0123136043548584">
        <ele>987.2850341796875</ele>
        <time>2018-11-25T10:07:21Z</time>
      </trkpt>
      <trkpt lat="41.64973831176758" lon="2.012326955795288">
        <ele>987.2850341796875</ele>
        <time>2018-11-25T10:07:26Z</time>
      </trkpt>
      <trkpt lat="41.649688720703125" lon="2.0123493671417236">
        <ele>987.2850341796875</ele>
        <time>2018-11-25T10:07:32Z</time>
      </trkpt>
      <trkpt lat="41.64962387084961" lon="2.012342691421509">
        <ele>987.2850341796875</ele>
        <time>2018-11-25T10:07:39Z</time>
      </trkpt>
      <trkpt lat="41.64957046508789" lon="2.0123400688171387">
        <ele>987.2850341796875</ele>
        <time>2018-11-25T10:07:44Z</time>
      </trkpt>
      <trkpt lat="41.64952087402344" lon="2.012319326400757">
        <ele>987.2850341796875</ele>
        <time>2018-11-25T10:07:49Z</time>
      </trkpt>
      <trkpt lat="41.649471282958984" lon="2.0123109817504883">
        <ele>987.2850341796875</ele>
        <time>2018-11-25T10:07:54Z</time>
      </trkpt>
      <trkpt lat="41.64942169189453" lon="2.0122973918914795">
        <ele>985.92138671875</ele>
        <time>2018-11-25T10:08:00Z</time>
      </trkpt>
      <trkpt lat="41.64936447143555" lon="2.012258291244507">
        <ele>985.92138671875</ele>
        <time>2018-11-25T10:08:07Z</time>
      </trkpt>
      <trkpt lat="41.64930725097656" lon="2.0122454166412354">
        <ele>985.92138671875</ele>
        <time>2018-11-25T10:08:12Z</time>
      </trkpt>
      <trkpt lat="41.649253845214844" lon="2.0122361183166504">
        <ele>985.92138671875</ele>
        <time>2018-11-25T10:08:17Z</time>
      </trkpt>
      <trkpt lat="41.64919662475586" lon="2.0122272968292236">
        <ele>985.92138671875</ele>
        <time>2018-11-25T10:08:21Z</time>
      </trkpt>
      <trkpt lat="41.64914321899414" lon="2.012225389480591">
        <ele>985.92138671875</ele>
        <time>2018-11-25T10:08:26Z</time>
      </trkpt>
      <trkpt lat="41.64908981323242" lon="2.012218713760376">
        <ele>984.7395629882813</ele>
        <time>2018-11-25T10:08:31Z</time>
      </trkpt>
      <trkpt lat="41.6490364074707" lon="2.012240409851074">
        <ele>984.7395629882813</ele>
        <time>2018-11-25T10:08:38Z</time>
      </trkpt>
      <trkpt lat="41.64897155761719" lon="2.012242555618286">
        <ele>983.5577392578125</ele>
        <time>2018-11-25T10:08:44Z</time>
      </trkpt>
      <trkpt lat="41.64891815185547" lon="2.0122604370117188">
        <ele>983.5577392578125</ele>
        <time>2018-11-25T10:08:48Z</time>
      </trkpt>
      <trkpt lat="41.648868560791016" lon="2.0122785568237305">
        <ele>983.5577392578125</ele>
        <time>2018-11-25T10:08:52Z</time>
      </trkpt>
      <trkpt lat="41.6488151550293" lon="2.012298583984375">
        <ele>983.5577392578125</ele>
        <time>2018-11-25T10:08:56Z</time>
      </trkpt>
      <trkpt lat="41.64876174926758" lon="2.0123116970062256">
        <ele>983.5577392578125</ele>
        <time>2018-11-25T10:09:00Z</time>
      </trkpt>
      <trkpt lat="41.64870834350586" lon="2.012319326400757">
        <ele>983.5577392578125</ele>
        <time>2018-11-25T10:09:04Z</time>
      </trkpt>
      <trkpt lat="41.64864730834961" lon="2.0123183727264404">
        <ele>983.5577392578125</ele>
        <time>2018-11-25T10:09:09Z</time>
      </trkpt>
      <trkpt lat="41.64860534667969" lon="2.0123093128204346">
        <ele>983.5577392578125</ele>
        <time>2018-11-25T10:09:14Z</time>
      </trkpt>
      <trkpt lat="41.64854049682617" lon="2.012308359146118">
        <ele>983.5577392578125</ele>
        <time>2018-11-25T10:09:20Z</time>
      </trkpt>
      <trkpt lat="41.648468017578125" lon="2.0123119354248047">
        <ele>983.5577392578125</ele>
        <time>2018-11-25T10:09:26Z</time>
      </trkpt>
      <trkpt lat="41.648414611816406" lon="2.0123116970062256">
        <ele>983.5577392578125</ele>
        <time>2018-11-25T10:09:31Z</time>
      </trkpt>
      <trkpt lat="41.64836120605469" lon="2.0123157501220703">
        <ele>983.5577392578125</ele>
        <time>2018-11-25T10:09:38Z</time>
      </trkpt>
      <trkpt lat="41.64830017089844" lon="2.0123324394226074">
        <ele>982.3759155273438</ele>
        <time>2018-11-25T10:09:45Z</time>
      </trkpt>
      <trkpt lat="41.64824676513672" lon="2.012362003326416">
        <ele>982.3759155273438</ele>
        <time>2018-11-25T10:09:52Z</time>
      </trkpt>
      <trkpt lat="41.648189544677734" lon="2.0124175548553467">
        <ele>981.1032104492188</ele>
        <time>2018-11-25T10:09:57Z</time>
      </trkpt>
      <trkpt lat="41.64815139770508" lon="2.012465000152588">
        <ele>981.1032104492188</ele>
        <time>2018-11-25T10:10:00Z</time>
      </trkpt>
      <trkpt lat="41.648109436035156" lon="2.012500047683716">
        <ele>981.1032104492188</ele>
        <time>2018-11-25T10:10:04Z</time>
      </trkpt>
      <trkpt lat="41.64806365966797" lon="2.0125510692596436">
        <ele>981.1032104492188</ele>
        <time>2018-11-25T10:10:10Z</time>
      </trkpt>
      <trkpt lat="41.648006439208984" lon="2.0125646591186523">
        <ele>981.1032104492188</ele>
        <time>2018-11-25T10:10:15Z</time>
      </trkpt>
      <trkpt lat="41.64795684814453" lon="2.0125732421875">
        <ele>981.1032104492188</ele>
        <time>2018-11-25T10:10:20Z</time>
      </trkpt>
      <trkpt lat="41.64789581298828" lon="2.012591600418091">
        <ele>981.1032104492188</ele>
        <time>2018-11-25T10:10:25Z</time>
      </trkpt>
      <trkpt lat="41.647850036621094" lon="2.012610912322998">
        <ele>981.1032104492188</ele>
        <time>2018-11-25T10:10:29Z</time>
      </trkpt>
      <trkpt lat="41.647762298583984" lon="2.0126712322235107">
        <ele>981.1032104492188</ele>
        <time>2018-11-25T10:10:40Z</time>
      </trkpt>
      <trkpt lat="41.647708892822266" lon="2.012662410736084">
        <ele>981.1032104492188</ele>
        <time>2018-11-25T10:10:44Z</time>
      </trkpt>
      <trkpt lat="41.64765930175781" lon="2.012683391571045">
        <ele>982.2850341796875</ele>
        <time>2018-11-25T10:10:49Z</time>
      </trkpt>
      <trkpt lat="41.64759826660156" lon="2.0126841068267822">
        <ele>982.2850341796875</ele>
        <time>2018-11-25T10:10:55Z</time>
      </trkpt>
      <trkpt lat="41.647552490234375" lon="2.012643575668335">
        <ele>981.1032104492188</ele>
        <time>2018-11-25T10:10:59Z</time>
      </trkpt>
      <trkpt lat="41.64750289916992" lon="2.0126116275787354">
        <ele>981.1032104492188</ele>
        <time>2018-11-25T10:11:03Z</time>
      </trkpt>
      <trkpt lat="41.6474494934082" lon="2.0125789642333984">
        <ele>981.1032104492188</ele>
        <time>2018-11-25T10:11:09Z</time>
      </trkpt>
      <trkpt lat="41.64739990234375" lon="2.012542963027954">
        <ele>981.1032104492188</ele>
        <time>2018-11-25T10:11:14Z</time>
      </trkpt>
      <trkpt lat="41.6473503112793" lon="2.0125083923339844">
        <ele>981.1032104492188</ele>
        <time>2018-11-25T10:11:19Z</time>
      </trkpt>
      <trkpt lat="41.64729690551758" lon="2.0124807357788086">
        <ele>981.1032104492188</ele>
        <time>2018-11-25T10:11:24Z</time>
      </trkpt>
      <trkpt lat="41.647247314453125" lon="2.0124523639678955">
        <ele>981.1032104492188</ele>
        <time>2018-11-25T10:11:30Z</time>
      </trkpt>
      <trkpt lat="41.64719009399414" lon="2.0124120712280273">
        <ele>981.1032104492188</ele>
        <time>2018-11-25T10:11:38Z</time>
      </trkpt>
      <trkpt lat="41.64713668823242" lon="2.012376308441162">
        <ele>981.1032104492188</ele>
        <time>2018-11-25T10:11:44Z</time>
      </trkpt>
      <trkpt lat="41.6470832824707" lon="2.0123486518859863">
        <ele>981.1032104492188</ele>
        <time>2018-11-25T10:11:49Z</time>
      </trkpt>
      <trkpt lat="41.647029876708984" lon="2.01233172416687">
        <ele>981.1032104492188</ele>
        <time>2018-11-25T10:11:56Z</time>
      </trkpt>
      <trkpt lat="41.64697265625" lon="2.01230525970459">
        <ele>982.2850341796875</ele>
        <time>2018-11-25T10:12:02Z</time>
      </trkpt>
      <trkpt lat="41.64691925048828" lon="2.01228928565979">
        <ele>982.2850341796875</ele>
        <time>2018-11-25T10:12:07Z</time>
      </trkpt>
      <trkpt lat="41.6468620300293" lon="2.0122785568237305">
        <ele>982.2850341796875</ele>
        <time>2018-11-25T10:12:12Z</time>
      </trkpt>
      <trkpt lat="41.64680480957031" lon="2.012263059616089">
        <ele>983.4668579101563</ele>
        <time>2018-11-25T10:12:17Z</time>
      </trkpt>
      <trkpt lat="41.646751403808594" lon="2.01224422454834">
        <ele>983.4668579101563</ele>
        <time>2018-11-25T10:12:21Z</time>
      </trkpt>
      <trkpt lat="41.64670181274414" lon="2.012223958969116">
        <ele>984.648681640625</ele>
        <time>2018-11-25T10:12:26Z</time>
      </trkpt>
      <trkpt lat="41.64665222167969" lon="2.0122029781341553">
        <ele>985.92138671875</ele>
        <time>2018-11-25T10:12:34Z</time>
      </trkpt>
      <trkpt lat="41.6465950012207" lon="2.012181282043457">
        <ele>985.92138671875</ele>
        <time>2018-11-25T10:12:40Z</time>
      </trkpt>
      <trkpt lat="41.64653778076172" lon="2.0121560096740723">
        <ele>985.92138671875</ele>
        <time>2018-11-25T10:12:46Z</time>
      </trkpt>
      <trkpt lat="41.646488189697266" lon="2.012132406234741">
        <ele>987.194091796875</ele>
        <time>2018-11-25T10:12:51Z</time>
      </trkpt>
      <trkpt lat="41.64643096923828" lon="2.0121023654937744">
        <ele>987.194091796875</ele>
        <time>2018-11-25T10:12:56Z</time>
      </trkpt>
      <trkpt lat="41.646385192871094" lon="2.012078046798706">
        <ele>987.194091796875</ele>
        <time>2018-11-25T10:13:01Z</time>
      </trkpt>
      <trkpt lat="41.646331787109375" lon="2.012057065963745">
        <ele>987.194091796875</ele>
        <time>2018-11-25T10:13:06Z</time>
      </trkpt>
      <trkpt lat="41.64628219604492" lon="2.012044668197632">
        <ele>985.92138671875</ele>
        <time>2018-11-25T10:13:11Z</time>
      </trkpt>
      <trkpt lat="41.6462287902832" lon="2.012040615081787">
        <ele>985.92138671875</ele>
        <time>2018-11-25T10:13:16Z</time>
      </trkpt>
      <trkpt lat="41.64616394042969" lon="2.0120420455932617">
        <ele>985.92138671875</ele>
        <time>2018-11-25T10:13:22Z</time>
      </trkpt>
      <trkpt lat="41.646114349365234" lon="2.012052059173584">
        <ele>985.92138671875</ele>
        <time>2018-11-25T10:13:26Z</time>
      </trkpt>
      <trkpt lat="41.64606857299805" lon="2.0120773315429688">
        <ele>985.92138671875</ele>
        <time>2018-11-25T10:13:31Z</time>
      </trkpt>
      <trkpt lat="41.64602279663086" lon="2.012105703353882">
        <ele>985.92138671875</ele>
        <time>2018-11-25T10:13:37Z</time>
      </trkpt>
      <trkpt lat="41.645999908447266" lon="2.012199640274048">
        <ele>985.92138671875</ele>
        <time>2018-11-25T10:13:42Z</time>
      </trkpt>
      <trkpt lat="41.645999908447266" lon="2.012267589569092">
        <ele>985.92138671875</ele>
        <time>2018-11-25T10:13:48Z</time>
      </trkpt>
      <trkpt lat="41.646026611328125" lon="2.01235032081604">
        <ele>985.92138671875</ele>
        <time>2018-11-25T10:13:55Z</time>
      </trkpt>
      <trkpt lat="41.646034240722656" lon="2.0124247074127197">
        <ele>982.2850341796875</ele>
        <time>2018-11-25T10:13:59Z</time>
      </trkpt>
      <trkpt lat="41.64604949951172" lon="2.012491226196289">
        <ele>982.2850341796875</ele>
        <time>2018-11-25T10:14:03Z</time>
      </trkpt>
      <trkpt lat="41.64606475830078" lon="2.0125527381896973">
        <ele>981.0123291015625</ele>
        <time>2018-11-25T10:14:08Z</time>
      </trkpt>
      <trkpt lat="41.64608383178711" lon="2.0126140117645264">
        <ele>981.0123291015625</ele>
        <time>2018-11-25T10:14:23Z</time>
      </trkpt>
      <trkpt lat="41.646141052246094" lon="2.0126309394836426">
        <ele>979.7396240234375</ele>
        <time>2018-11-25T10:14:28Z</time>
      </trkpt>
      <trkpt lat="41.64617156982422" lon="2.0126845836639404">
        <ele>979.7396240234375</ele>
        <time>2018-11-25T10:14:43Z</time>
      </trkpt>
      <trkpt lat="41.646202087402344" lon="2.012737274169922">
        <ele>979.7396240234375</ele>
        <time>2018-11-25T10:14:47Z</time>
      </trkpt>
      <trkpt lat="41.64622116088867" lon="2.0127973556518555">
        <ele>979.7396240234375</ele>
        <time>2018-11-25T10:14:52Z</time>
      </trkpt>
      <trkpt lat="41.64621353149414" lon="2.0128557682037354">
        <ele>979.7396240234375</ele>
        <time>2018-11-25T10:14:59Z</time>
      </trkpt>
      <trkpt lat="41.64619445800781" lon="2.012932777404785">
        <ele>979.7396240234375</ele>
        <time>2018-11-25T10:15:07Z</time>
      </trkpt>
      <trkpt lat="41.64622116088867" lon="2.0129892826080322">
        <ele>979.7396240234375</ele>
        <time>2018-11-25T10:15:11Z</time>
      </trkpt>
      <trkpt lat="41.646244049072266" lon="2.0130367279052734">
        <ele>979.7396240234375</ele>
        <time>2018-11-25T10:15:17Z</time>
      </trkpt>
      <trkpt lat="41.64622116088867" lon="2.013113260269165">
        <ele>981.8305053710938</ele>
        <time>2018-11-25T10:15:26Z</time>
      </trkpt>
      <trkpt lat="41.646244049072266" lon="2.0131757259368896">
        <ele>981.8305053710938</ele>
        <time>2018-11-25T10:15:33Z</time>
      </trkpt>
      <trkpt lat="41.646263122558594" lon="2.0132436752319336">
        <ele>983.0123291015625</ele>
        <time>2018-11-25T10:15:40Z</time>
      </trkpt>
      <trkpt lat="41.64625549316406" lon="2.013317108154297">
        <ele>983.0123291015625</ele>
        <time>2018-11-25T10:15:46Z</time>
      </trkpt>
      <trkpt lat="41.64625930786133" lon="2.0133960247039795">
        <ele>983.0123291015625</ele>
        <time>2018-11-25T10:15:51Z</time>
      </trkpt>
      <trkpt lat="41.64625549316406" lon="2.0134472846984863">
        <ele>983.0123291015625</ele>
        <time>2018-11-25T10:15:54Z</time>
      </trkpt>
      <trkpt lat="41.64623260498047" lon="2.0135302543640137">
        <ele>983.0123291015625</ele>
        <time>2018-11-25T10:16:01Z</time>
      </trkpt>
      <trkpt lat="41.646202087402344" lon="2.0135767459869385">
        <ele>980.4668579101563</ele>
        <time>2018-11-25T10:16:05Z</time>
      </trkpt>
      <trkpt lat="41.64617156982422" lon="2.0136449337005615">
        <ele>979.2850341796875</ele>
        <time>2018-11-25T10:16:10Z</time>
      </trkpt>
      <trkpt lat="41.64613723754883" lon="2.013693332672119">
        <ele>978.1032104492188</ele>
        <time>2018-11-25T10:16:14Z</time>
      </trkpt>
      <trkpt lat="41.64611053466797" lon="2.013753890991211">
        <ele>978.1032104492188</ele>
        <time>2018-11-25T10:16:19Z</time>
      </trkpt>
      <trkpt lat="41.646060943603516" lon="2.013807773590088">
        <ele>978.1032104492188</ele>
        <time>2018-11-25T10:16:25Z</time>
      </trkpt>
      <trkpt lat="41.646018981933594" lon="2.013873338699341">
        <ele>979.2850341796875</ele>
        <time>2018-11-25T10:16:30Z</time>
      </trkpt>
      <trkpt lat="41.64597702026367" lon="2.013916015625">
        <ele>979.2850341796875</ele>
        <time>2018-11-25T10:16:36Z</time>
      </trkpt>
      <trkpt lat="41.645938873291016" lon="2.013962745666504">
        <ele>978.1032104492188</ele>
        <time>2018-11-25T10:16:42Z</time>
      </trkpt>
      <trkpt lat="41.64591598510742" lon="2.0140137672424316">
        <ele>978.1032104492188</ele>
        <time>2018-11-25T10:16:52Z</time>
      </trkpt>
      <trkpt lat="41.645904541015625" lon="2.0140879154205322">
        <ele>978.1032104492188</ele>
        <time>2018-11-25T10:17:02Z</time>
      </trkpt>
      <trkpt lat="41.6458854675293" lon="2.014157772064209">
        <ele>978.1032104492188</ele>
        <time>2018-11-25T10:17:10Z</time>
      </trkpt>
      <trkpt lat="41.64592742919922" lon="2.014207363128662">
        <ele>978.1032104492188</ele>
        <time>2018-11-25T10:17:27Z</time>
      </trkpt>
      <trkpt lat="41.64597702026367" lon="2.0142452716827393">
        <ele>978.1032104492188</ele>
        <time>2018-11-25T10:17:33Z</time>
      </trkpt>
      <trkpt lat="41.64602279663086" lon="2.014256238937378">
        <ele>978.1032104492188</ele>
        <time>2018-11-25T10:17:37Z</time>
      </trkpt>
      <trkpt lat="41.646080017089844" lon="2.014302968978882">
        <ele>978.1032104492188</ele>
        <time>2018-11-25T10:18:01Z</time>
      </trkpt>
      <trkpt lat="41.6461181640625" lon="2.014322280883789">
        <ele>978.1032104492188</ele>
        <time>2018-11-25T10:18:04Z</time>
      </trkpt>
      <trkpt lat="41.64616394042969" lon="2.0143399238586426">
        <ele>978.1032104492188</ele>
        <time>2018-11-25T10:18:09Z</time>
      </trkpt>
      <trkpt lat="41.646175384521484" lon="2.0143513679504395">
        <ele>978.1032104492188</ele>
        <time>2018-11-25T10:18:47Z</time>
      </trkpt>
      <trkpt lat="41.64617919921875" lon="2.0143399238586426">
        <ele>978.1032104492188</ele>
        <time>2018-11-25T10:19:12Z</time>
      </trkpt>
      <trkpt lat="41.64613342285156" lon="2.014331102371216">
        <ele>978.1032104492188</ele>
        <time>2018-11-25T10:21:59Z</time>
      </trkpt>
      <trkpt lat="41.64607238769531" lon="2.014326333999634">
        <ele>978.1032104492188</ele>
        <time>2018-11-25T10:22:05Z</time>
      </trkpt>
      <trkpt lat="41.646018981933594" lon="2.0143327713012695">
        <ele>978.1032104492188</ele>
        <time>2018-11-25T10:22:10Z</time>
      </trkpt>
      <trkpt lat="41.64596939086914" lon="2.0143306255340576">
        <ele>978.1032104492188</ele>
        <time>2018-11-25T10:22:15Z</time>
      </trkpt>
      <trkpt lat="41.64595031738281" lon="2.014270305633545">
        <ele>968.194091796875</ele>
        <time>2018-11-25T10:22:22Z</time>
      </trkpt>
      <trkpt lat="41.64594268798828" lon="2.0142462253570557">
        <ele>967.0122680664063</ele>
        <time>2018-11-25T10:22:33Z</time>
      </trkpt>
      <trkpt lat="41.645896911621094" lon="2.014259099960327">
        <ele>967.0122680664063</ele>
        <time>2018-11-25T10:22:43Z</time>
      </trkpt>
      <trkpt lat="41.64588928222656" lon="2.014256715774536">
        <ele>967.0122680664063</ele>
        <time>2018-11-25T10:23:20Z</time>
      </trkpt>
      <trkpt lat="41.645816802978516" lon="2.0142626762390137">
        <ele>968.2849731445313</ele>
        <time>2018-11-25T10:23:23Z</time>
      </trkpt>
      <trkpt lat="41.645809173583984" lon="2.0143051147460938">
        <ele>968.2849731445313</ele>
        <time>2018-11-25T10:23:33Z</time>
      </trkpt>
      <trkpt lat="41.645809173583984" lon="2.0143814086914063">
        <ele>968.2849731445313</ele>
        <time>2018-11-25T10:23:40Z</time>
      </trkpt>
      <trkpt lat="41.64577865600586" lon="2.0144436359405518">
        <ele>967.0122680664063</ele>
        <time>2018-11-25T10:23:50Z</time>
      </trkpt>
      <trkpt lat="41.64573669433594" lon="2.0144636631011963">
        <ele>965.7395629882813</ele>
        <time>2018-11-25T10:23:55Z</time>
      </trkpt>
      <trkpt lat="41.64569091796875" lon="2.0145106315612793">
        <ele>965.7395629882813</ele>
        <time>2018-11-25T10:24:06Z</time>
      </trkpt>
      <trkpt lat="41.64567565917969" lon="2.014594316482544">
        <ele>965.7395629882813</ele>
        <time>2018-11-25T10:24:12Z</time>
      </trkpt>
      <trkpt lat="41.645652770996094" lon="2.014660596847534">
        <ele>964.4668579101563</ele>
        <time>2018-11-25T10:24:16Z</time>
      </trkpt>
      <trkpt lat="41.6456298828125" lon="2.014723777770996">
        <ele>964.4668579101563</ele>
        <time>2018-11-25T10:24:21Z</time>
      </trkpt>
      <trkpt lat="41.645606994628906" lon="2.014785051345825">
        <ele>964.4668579101563</ele>
        <time>2018-11-25T10:24:26Z</time>
      </trkpt>
      <trkpt lat="41.64553451538086" lon="2.014798641204834">
        <ele>964.4668579101563</ele>
        <time>2018-11-25T10:24:33Z</time>
      </trkpt>
      <trkpt lat="41.64548110961914" lon="2.01482892036438">
        <ele>964.4668579101563</ele>
        <time>2018-11-25T10:24:41Z</time>
      </trkpt>
      <trkpt lat="41.64542770385742" lon="2.014842987060547">
        <ele>964.4668579101563</ele>
        <time>2018-11-25T10:24:46Z</time>
      </trkpt>
      <trkpt lat="41.6453742980957" lon="2.0148370265960693">
        <ele>964.4668579101563</ele>
        <time>2018-11-25T10:24:52Z</time>
      </trkpt>
      <trkpt lat="41.64531707763672" lon="2.0148487091064453">
        <ele>964.4668579101563</ele>
        <time>2018-11-25T10:24:58Z</time>
      </trkpt>
      <trkpt lat="41.645263671875" lon="2.014859437942505">
        <ele>967.2850341796875</ele>
        <time>2018-11-25T10:25:04Z</time>
      </trkpt>
      <trkpt lat="41.645206451416016" lon="2.0148708820343018">
        <ele>967.2850341796875</ele>
        <time>2018-11-25T10:25:10Z</time>
      </trkpt>
      <trkpt lat="41.64515686035156" lon="2.0148732662200928">
        <ele>969.8305053710938</ele>
        <time>2018-11-25T10:25:16Z</time>
      </trkpt>
      <trkpt lat="41.64511489868164" lon="2.0148613452911377">
        <ele>971.1032104492188</ele>
        <time>2018-11-25T10:25:23Z</time>
      </trkpt>
      <trkpt lat="41.64508819580078" lon="2.0148394107818604">
        <ele>972.3759155273438</ele>
        <time>2018-11-25T10:25:37Z</time>
      </trkpt>
      <trkpt lat="41.64502716064453" lon="2.0148210525512695">
        <ele>974.7395629882813</ele>
        <time>2018-11-25T10:25:45Z</time>
      </trkpt>
      <trkpt lat="41.64498519897461" lon="2.0148000717163086">
        <ele>977.194091796875</ele>
        <time>2018-11-25T10:25:58Z</time>
      </trkpt>
      <trkpt lat="41.64494323730469" lon="2.0147550106048584">
        <ele>977.194091796875</ele>
        <time>2018-11-25T10:26:08Z</time>
      </trkpt>
      <trkpt lat="41.64488983154297" lon="2.014742374420166">
        <ele>977.194091796875</ele>
        <time>2018-11-25T10:26:15Z</time>
      </trkpt>
      <trkpt lat="41.64482879638672" lon="2.0147175788879395">
        <ele>978.466796875</ele>
        <time>2018-11-25T10:26:21Z</time>
      </trkpt>
      <trkpt lat="41.644798278808594" lon="2.014673948287964">
        <ele>978.466796875</ele>
        <time>2018-11-25T10:26:27Z</time>
      </trkpt>
      <trkpt lat="41.644744873046875" lon="2.014648914337158">
        <ele>979.739501953125</ele>
        <time>2018-11-25T10:26:38Z</time>
      </trkpt>
      <trkpt lat="41.644683837890625" lon="2.014634609222412">
        <ele>979.739501953125</ele>
        <time>2018-11-25T10:26:44Z</time>
      </trkpt>
      <trkpt lat="41.644622802734375" lon="2.0146026611328125">
        <ele>979.2849731445313</ele>
        <time>2018-11-25T10:27:02Z</time>
      </trkpt>
      <trkpt lat="41.64458465576172" lon="2.0145857334136963">
        <ele>979.2849731445313</ele>
        <time>2018-11-25T10:27:11Z</time>
      </trkpt>
      <trkpt lat="41.6445198059082" lon="2.0145516395568848">
        <ele>979.2849731445313</ele>
        <time>2018-11-25T10:27:27Z</time>
      </trkpt>
      <trkpt lat="41.644474029541016" lon="2.014543294906616">
        <ele>979.2849731445313</ele>
        <time>2018-11-25T10:27:33Z</time>
      </trkpt>
      <trkpt lat="41.644432067871094" lon="2.0145926475524902">
        <ele>980.466796875</ele>
        <time>2018-11-25T10:27:42Z</time>
      </trkpt>
      <trkpt lat="41.64438247680664" lon="2.0146191120147705">
        <ele>980.466796875</ele>
        <time>2018-11-25T10:27:48Z</time>
      </trkpt>
      <trkpt lat="41.64433288574219" lon="2.014645576477051">
        <ele>981.739501953125</ele>
        <time>2018-11-25T10:27:55Z</time>
      </trkpt>
      <trkpt lat="41.64426040649414" lon="2.014693260192871">
        <ele>984.466796875</ele>
        <time>2018-11-25T10:28:09Z</time>
      </trkpt>
      <trkpt lat="41.64421463012695" lon="2.0146877765655518">
        <ele>985.739501953125</ele>
        <time>2018-11-25T10:28:14Z</time>
      </trkpt>
      <trkpt lat="41.64421463012695" lon="2.0146799087524414">
        <ele>987.01220703125</ele>
        <time>2018-11-25T10:28:44Z</time>
      </trkpt>
      <trkpt lat="41.6441650390625" lon="2.0147314071655273">
        <ele>987.01220703125</ele>
        <time>2018-11-25T10:28:48Z</time>
      </trkpt>
      <trkpt lat="41.64412307739258" lon="2.0147509574890137">
        <ele>985.5576782226563</ele>
        <time>2018-11-25T10:28:55Z</time>
      </trkpt>
      <trkpt lat="41.64406967163086" lon="2.0147736072540283">
        <ele>984.3758544921875</ele>
        <time>2018-11-25T10:29:01Z</time>
      </trkpt>
      <trkpt lat="41.644020080566406" lon="2.0147533416748047">
        <ele>985.9213256835938</ele>
        <time>2018-11-25T10:29:09Z</time>
      </trkpt>
      <trkpt lat="41.64397048950195" lon="2.014742612838745">
        <ele>988.5576782226563</ele>
        <time>2018-11-25T10:29:15Z</time>
      </trkpt>
      <trkpt lat="41.643959045410156" lon="2.014749765396118">
        <ele>988.5576782226563</ele>
        <time>2018-11-25T10:29:31Z</time>
      </trkpt>
      <trkpt lat="41.6439094543457" lon="2.0147736072540283">
        <ele>989.739501953125</ele>
        <time>2018-11-25T10:29:42Z</time>
      </trkpt>
      <trkpt lat="41.643863677978516" lon="2.014785051345825">
        <ele>990.9213256835938</ele>
        <time>2018-11-25T10:29:48Z</time>
      </trkpt>
      <trkpt lat="41.64377975463867" lon="2.014794111251831">
        <ele>995.8303833007813</ele>
        <time>2018-11-25T10:30:02Z</time>
      </trkpt>
      <trkpt lat="41.64372253417969" lon="2.014803886413574">
        <ele>997.01220703125</ele>
        <time>2018-11-25T10:30:09Z</time>
      </trkpt>
      <trkpt lat="41.643680572509766" lon="2.014815330505371">
        <ele>999.5576782226563</ele>
        <time>2018-11-25T10:30:15Z</time>
      </trkpt>
      <trkpt lat="41.643611907958984" lon="2.014836072921753">
        <ele>1000.8303833007813</ele>
        <time>2018-11-25T10:30:22Z</time>
      </trkpt>
      <trkpt lat="41.6435546875" lon="2.0148251056671143">
        <ele>1002.01220703125</ele>
        <time>2018-11-25T10:30:29Z</time>
      </trkpt>
      <trkpt lat="41.64349365234375" lon="2.014796733856201">
        <ele>1002.01220703125</ele>
        <time>2018-11-25T10:30:39Z</time>
      </trkpt>
      <trkpt lat="41.643436431884766" lon="2.0147945880889893">
        <ele>1003.3758544921875</ele>
        <time>2018-11-25T10:30:45Z</time>
      </trkpt>
      <trkpt lat="41.643394470214844" lon="2.014821767807007">
        <ele>1004.5576782226563</ele>
        <time>2018-11-25T10:30:55Z</time>
      </trkpt>
      <trkpt lat="41.64336395263672" lon="2.0148587226867676">
        <ele>1005.8303833007813</ele>
        <time>2018-11-25T10:31:00Z</time>
      </trkpt>
      <trkpt lat="41.64339828491211" lon="2.0149285793304443">
        <ele>1007.01220703125</ele>
        <time>2018-11-25T10:31:25Z</time>
      </trkpt>
      <trkpt lat="41.6434440612793" lon="2.0149269104003906">
        <ele>1005.8303833007813</ele>
        <time>2018-11-25T10:31:35Z</time>
      </trkpt>
      <trkpt lat="41.643436431884766" lon="2.0150105953216553">
        <ele>1005.8303833007813</ele>
        <time>2018-11-25T10:31:43Z</time>
      </trkpt>
      <trkpt lat="41.64346694946289" lon="2.0150539875030518">
        <ele>1005.8303833007813</ele>
        <time>2018-11-25T10:31:48Z</time>
      </trkpt>
      <trkpt lat="41.643524169921875" lon="2.015077590942383">
        <ele>1007.1940307617188</ele>
        <time>2018-11-25T10:31:56Z</time>
      </trkpt>
      <trkpt lat="41.6435661315918" lon="2.0151050090789795">
        <ele>1008.3758544921875</ele>
        <time>2018-11-25T10:32:01Z</time>
      </trkpt>
      <trkpt lat="41.643558502197266" lon="2.0151588916778564">
        <ele>1009.6485595703125</ele>
        <time>2018-11-25T10:32:07Z</time>
      </trkpt>
      <trkpt lat="41.643577575683594" lon="2.0151560306549072">
        <ele>1009.6485595703125</ele>
        <time>2018-11-25T10:32:15Z</time>
      </trkpt>
      <trkpt lat="41.643592834472656" lon="2.015214443206787">
        <ele>1010.8303833007813</ele>
        <time>2018-11-25T10:32:21Z</time>
      </trkpt>
      <trkpt lat="41.64364242553711" lon="2.015230894088745">
        <ele>1012.01220703125</ele>
        <time>2018-11-25T10:32:26Z</time>
      </trkpt>
      <trkpt lat="41.643619537353516" lon="2.0152652263641357">
        <ele>1014.4667358398438</ele>
        <time>2018-11-25T10:32:33Z</time>
      </trkpt>
      <trkpt lat="41.643524169921875" lon="2.0152807235717773">
        <ele>1015.6485595703125</ele>
        <time>2018-11-25T10:32:35Z</time>
      </trkpt>
      <trkpt lat="41.64347839355469" lon="2.015279769897461">
        <ele>1015.6485595703125</ele>
        <time>2018-11-25T10:32:37Z</time>
      </trkpt>
      <trkpt lat="41.64353942871094" lon="2.0152881145477295">
        <ele>1018.01220703125</ele>
        <time>2018-11-25T10:32:41Z</time>
      </trkpt>
      <trkpt lat="41.643592834472656" lon="2.015294313430786">
        <ele>1019.284912109375</ele>
        <time>2018-11-25T10:32:45Z</time>
      </trkpt>
      <trkpt lat="41.643653869628906" lon="2.015273332595825">
        <ele>1020.7394409179688</ele>
        <time>2018-11-25T10:32:53Z</time>
      </trkpt>
      <trkpt lat="41.64371109008789" lon="2.0152647495269775">
        <ele>1023.3757934570313</ele>
        <time>2018-11-25T10:32:56Z</time>
      </trkpt>
      <trkpt lat="41.64373016357422" lon="2.0152642726898193">
        <ele>1024.6485595703125</ele>
        <time>2018-11-25T10:33:02Z</time>
      </trkpt>
      <trkpt lat="41.643798828125" lon="2.015237331390381">
        <ele>1024.6485595703125</ele>
        <time>2018-11-25T10:33:15Z</time>
      </trkpt>
      <trkpt lat="41.64384078979492" lon="2.0152289867401123">
        <ele>1025.9212646484375</ele>
        <time>2018-11-25T10:33:29Z</time>
      </trkpt>
      <trkpt lat="41.64387130737305" lon="2.015275716781616">
        <ele>1027.10302734375</ele>
        <time>2018-11-25T10:33:44Z</time>
      </trkpt>
      <trkpt lat="41.6439094543457" lon="2.0152952671051025">
        <ele>1028.375732421875</ele>
        <time>2018-11-25T10:33:47Z</time>
      </trkpt>
      <trkpt lat="41.64397430419922" lon="2.015326738357544">
        <ele>1031.0120849609375</ele>
        <time>2018-11-25T10:33:59Z</time>
      </trkpt>
      <trkpt lat="41.64401626586914" lon="2.0153586864471436">
        <ele>1031.0120849609375</ele>
        <time>2018-11-25T10:34:05Z</time>
      </trkpt>
      <trkpt lat="41.64406204223633" lon="2.0153815746307373">
        <ele>1033.6484375</ele>
        <time>2018-11-25T10:34:12Z</time>
      </trkpt>
      <trkpt lat="41.64412307739258" lon="2.0153839588165283">
        <ele>1034.8302001953125</ele>
        <time>2018-11-25T10:34:21Z</time>
      </trkpt>
      <trkpt lat="41.644161224365234" lon="2.015371561050415">
        <ele>1036.011962890625</ele>
        <time>2018-11-25T10:34:26Z</time>
      </trkpt>
      <trkpt lat="41.64417266845703" lon="2.0154452323913574">
        <ele>1038.7392578125</ele>
        <time>2018-11-25T10:34:35Z</time>
      </trkpt>
      <trkpt lat="41.644203186035156" lon="2.0155045986175537">
        <ele>1040.011962890625</ele>
        <time>2018-11-25T10:34:43Z</time>
      </trkpt>
      <trkpt lat="41.64424133300781" lon="2.0155527591705322">
        <ele>1041.1937255859375</ele>
        <time>2018-11-25T10:34:50Z</time>
      </trkpt>
      <trkpt lat="41.64421081542969" lon="2.015610694885254">
        <ele>1042.4664306640625</ele>
        <time>2018-11-25T10:34:57Z</time>
      </trkpt>
      <trkpt lat="41.6441764831543" lon="2.015655040740967">
        <ele>1042.4664306640625</ele>
        <time>2018-11-25T10:35:05Z</time>
      </trkpt>
      <trkpt lat="41.644134521484375" lon="2.015714645385742">
        <ele>1042.4664306640625</ele>
        <time>2018-11-25T10:35:14Z</time>
      </trkpt>
      <trkpt lat="41.64411544799805" lon="2.0157687664031982">
        <ele>1042.4664306640625</ele>
        <time>2018-11-25T10:35:23Z</time>
      </trkpt>
      <trkpt lat="41.644065856933594" lon="2.0158209800720215">
        <ele>1042.4664306640625</ele>
        <time>2018-11-25T10:35:33Z</time>
      </trkpt>
      <trkpt lat="41.64401626586914" lon="2.015824317932129">
        <ele>1042.4664306640625</ele>
        <time>2018-11-25T10:35:38Z</time>
      </trkpt>
      <trkpt lat="41.643959045410156" lon="2.015831232070923">
        <ele>1047.2845458984375</ele>
        <time>2018-11-25T10:35:53Z</time>
      </trkpt>
      <trkpt lat="41.643898010253906" lon="2.0158650875091553">
        <ele>1047.2845458984375</ele>
        <time>2018-11-25T10:35:59Z</time>
      </trkpt>
      <trkpt lat="41.64384460449219" lon="2.015897750854492">
        <ele>1048.648193359375</ele>
        <time>2018-11-25T10:36:04Z</time>
      </trkpt>
      <trkpt lat="41.643798828125" lon="2.015925645828247">
        <ele>1049.9208984375</ele>
        <time>2018-11-25T10:36:09Z</time>
      </trkpt>
      <trkpt lat="41.64375305175781" lon="2.0159707069396973">
        <ele>1052.3753662109375</ele>
        <time>2018-11-25T10:36:16Z</time>
      </trkpt>
      <trkpt lat="41.643768310546875" lon="2.0159647464752197">
        <ele>1053.55712890625</ele>
        <time>2018-11-25T10:37:11Z</time>
      </trkpt>
      <trkpt lat="41.64369201660156" lon="2.016007423400879">
        <ele>1055.920654296875</ele>
        <time>2018-11-25T10:37:26Z</time>
      </trkpt>
      <trkpt lat="41.643653869628906" lon="2.01601243019104">
        <ele>1058.2841796875</ele>
        <time>2018-11-25T10:37:29Z</time>
      </trkpt>
      <trkpt lat="41.64359664916992" lon="2.0160086154937744">
        <ele>1058.2841796875</ele>
        <time>2018-11-25T10:37:33Z</time>
      </trkpt>
      <trkpt lat="41.643516540527344" lon="2.0160505771636963">
        <ele>1059.4659423828125</ele>
        <time>2018-11-25T10:38:00Z</time>
      </trkpt>
      <trkpt lat="41.64348220825195" lon="2.0160932540893555">
        <ele>1060.647705078125</ele>
        <time>2018-11-25T10:38:05Z</time>
      </trkpt>
      <trkpt lat="41.64345169067383" lon="2.016164779663086">
        <ele>1063.01123046875</ele>
        <time>2018-11-25T10:38:11Z</time>
      </trkpt>
      <trkpt lat="41.64341735839844" lon="2.016200304031372">
        <ele>1063.01123046875</ele>
        <time>2018-11-25T10:38:17Z</time>
      </trkpt>
      <trkpt lat="41.64339065551758" lon="2.016268730163574">
        <ele>1064.556640625</ele>
        <time>2018-11-25T10:38:26Z</time>
      </trkpt>
      <trkpt lat="41.643367767333984" lon="2.0163373947143555">
        <ele>1065.829345703125</ele>
        <time>2018-11-25T10:38:34Z</time>
      </trkpt>
      <trkpt lat="41.64331817626953" lon="2.016388416290283">
        <ele>1065.829345703125</ele>
        <time>2018-11-25T10:38:51Z</time>
      </trkpt>
      <trkpt lat="41.64329528808594" lon="2.0163943767547607">
        <ele>1067.1929931640625</ele>
        <time>2018-11-25T10:39:16Z</time>
      </trkpt>
      <trkpt lat="41.64326095581055" lon="2.0164084434509277">
        <ele>1069.6474609375</ele>
        <time>2018-11-25T10:39:18Z</time>
      </trkpt>
      <trkpt lat="41.643218994140625" lon="2.0164296627044678">
        <ele>1070.8292236328125</ele>
        <time>2018-11-25T10:39:26Z</time>
      </trkpt>
      <trkpt lat="41.64319610595703" lon="2.016479015350342">
        <ele>1072.010986328125</ele>
        <time>2018-11-25T10:39:35Z</time>
      </trkpt>
      <trkpt lat="41.64316940307617" lon="2.0164926052093506">
        <ele>1074.37451171875</ele>
        <time>2018-11-25T10:40:12Z</time>
      </trkpt>
      <trkpt lat="41.643131256103516" lon="2.016509771347046">
        <ele>1075.647216796875</ele>
        <time>2018-11-25T10:40:15Z</time>
      </trkpt>
      <trkpt lat="41.6430778503418" lon="2.016516923904419">
        <ele>1076.8289794921875</ele>
        <time>2018-11-25T10:40:19Z</time>
      </trkpt>
      <trkpt lat="41.643035888671875" lon="2.016559362411499">
        <ele>1076.8289794921875</ele>
        <time>2018-11-25T10:40:26Z</time>
      </trkpt>
      <trkpt lat="41.64302444458008" lon="2.0166237354278564">
        <ele>1078.1016845703125</ele>
        <time>2018-11-25T10:40:32Z</time>
      </trkpt>
      <trkpt lat="41.64301681518555" lon="2.016688346862793">
        <ele>1080.55615234375</ele>
        <time>2018-11-25T10:40:38Z</time>
      </trkpt>
      <trkpt lat="41.642974853515625" lon="2.0167343616485596">
        <ele>1080.55615234375</ele>
        <time>2018-11-25T10:40:48Z</time>
      </trkpt>
      <trkpt lat="41.64295196533203" lon="2.0167953968048096">
        <ele>1083.1015625</ele>
        <time>2018-11-25T10:40:58Z</time>
      </trkpt>
      <trkpt lat="41.64290237426758" lon="2.0168676376342773">
        <ele>1083.1015625</ele>
        <time>2018-11-25T10:41:13Z</time>
      </trkpt>
      <trkpt lat="41.642860412597656" lon="2.016964912414551">
        <ele>1083.1015625</ele>
        <time>2018-11-25T10:41:30Z</time>
      </trkpt>
      <trkpt lat="41.642852783203125" lon="2.0170207023620605">
        <ele>1083.1015625</ele>
        <time>2018-11-25T10:41:36Z</time>
      </trkpt>
      <trkpt lat="41.642799377441406" lon="2.017087697982788">
        <ele>1084.374267578125</ele>
        <time>2018-11-25T10:41:54Z</time>
      </trkpt>
      <trkpt lat="41.64274215698242" lon="2.017090320587158">
        <ele>1085.5560302734375</ele>
        <time>2018-11-25T10:41:59Z</time>
      </trkpt>
      <trkpt lat="41.642696380615234" lon="2.0170767307281494">
        <ele>1086.8287353515625</ele>
        <time>2018-11-25T10:42:04Z</time>
      </trkpt>
      <trkpt lat="41.64265823364258" lon="2.017117977142334">
        <ele>1088.010498046875</ele>
        <time>2018-11-25T10:42:15Z</time>
      </trkpt>
      <trkpt lat="41.64262390136719" lon="2.017162322998047">
        <ele>1088.010498046875</ele>
        <time>2018-11-25T10:42:20Z</time>
      </trkpt>
      <trkpt lat="41.64258575439453" lon="2.0171725749969482">
        <ele>1089.283203125</ele>
        <time>2018-11-25T10:42:39Z</time>
      </trkpt>
      <trkpt lat="41.64253616333008" lon="2.0172064304351807">
        <ele>1090.4649658203125</ele>
        <time>2018-11-25T10:42:44Z</time>
      </trkpt>
      <trkpt lat="41.64248275756836" lon="2.0172436237335205">
        <ele>1090.4649658203125</ele>
        <time>2018-11-25T10:42:49Z</time>
      </trkpt>
      <trkpt lat="41.642433166503906" lon="2.017282009124756">
        <ele>1091.646728515625</ele>
        <time>2018-11-25T10:42:54Z</time>
      </trkpt>
      <trkpt lat="41.64238739013672" lon="2.0173227787017822">
        <ele>1091.646728515625</ele>
        <time>2018-11-25T10:42:59Z</time>
      </trkpt>
      <trkpt lat="41.6423454284668" lon="2.017364263534546">
        <ele>1091.646728515625</ele>
        <time>2018-11-25T10:43:04Z</time>
      </trkpt>
      <trkpt lat="41.64228057861328" lon="2.017385959625244">
        <ele>1092.91943359375</ele>
        <time>2018-11-25T10:43:17Z</time>
      </trkpt>
      <trkpt lat="41.64221954345703" lon="2.017409563064575">
        <ele>1092.91943359375</ele>
        <time>2018-11-25T10:43:23Z</time>
      </trkpt>
      <trkpt lat="41.642173767089844" lon="2.017422676086426">
        <ele>1094.192138671875</ele>
        <time>2018-11-25T10:43:27Z</time>
      </trkpt>
      <trkpt lat="41.64211654663086" lon="2.017444372177124">
        <ele>1094.192138671875</ele>
        <time>2018-11-25T10:43:32Z</time>
      </trkpt>
      <trkpt lat="41.642059326171875" lon="2.0174739360809326">
        <ele>1095.46484375</ele>
        <time>2018-11-25T10:43:37Z</time>
      </trkpt>
      <trkpt lat="41.642005920410156" lon="2.0175065994262695">
        <ele>1096.91943359375</ele>
        <time>2018-11-25T10:43:42Z</time>
      </trkpt>
      <trkpt lat="41.6419563293457" lon="2.0175440311431885">
        <ele>1098.1011962890625</ele>
        <time>2018-11-25T10:43:48Z</time>
      </trkpt>
      <trkpt lat="41.64191818237305" lon="2.0175833702087402">
        <ele>1100.5556640625</ele>
        <time>2018-11-25T10:43:55Z</time>
      </trkpt>
      <trkpt lat="41.64189147949219" lon="2.017656087875366">
        <ele>1102.01025390625</ele>
        <time>2018-11-25T10:44:00Z</time>
      </trkpt>
      <trkpt lat="41.6418571472168" lon="2.0177175998687744">
        <ele>1104.5556640625</ele>
        <time>2018-11-25T10:44:04Z</time>
      </trkpt>
      <trkpt lat="41.64181137084961" lon="2.0177900791168213">
        <ele>1105.828369140625</ele>
        <time>2018-11-25T10:44:09Z</time>
      </trkpt>
      <trkpt lat="41.64176940917969" lon="2.0178494453430176">
        <ele>1107.10107421875</ele>
        <time>2018-11-25T10:44:13Z</time>
      </trkpt>
      <trkpt lat="41.6417350769043" lon="2.017909049987793">
        <ele>1108.373779296875</ele>
        <time>2018-11-25T10:44:18Z</time>
      </trkpt>
      <trkpt lat="41.64170455932617" lon="2.0179526805877686">
        <ele>1110.8282470703125</ele>
        <time>2018-11-25T10:44:22Z</time>
      </trkpt>
      <trkpt lat="41.64165496826172" lon="2.0179688930511475">
        <ele>1110.8282470703125</ele>
        <time>2018-11-25T10:44:29Z</time>
      </trkpt>
      <trkpt lat="41.64160919189453" lon="2.0180187225341797">
        <ele>1110.8282470703125</ele>
        <time>2018-11-25T10:44:38Z</time>
      </trkpt>
      <trkpt lat="41.641563415527344" lon="2.018052577972412">
        <ele>1110.8282470703125</ele>
        <time>2018-11-25T10:44:47Z</time>
      </trkpt>
      <trkpt lat="41.641517639160156" lon="2.018085241317749">
        <ele>1110.8282470703125</ele>
        <time>2018-11-25T10:44:53Z</time>
      </trkpt>
      <trkpt lat="41.64147186279297" lon="2.0181336402893066">
        <ele>1110.8282470703125</ele>
        <time>2018-11-25T10:45:02Z</time>
      </trkpt>
      <trkpt lat="41.64142990112305" lon="2.018195390701294">
        <ele>1110.8282470703125</ele>
        <time>2018-11-25T10:45:07Z</time>
      </trkpt>
      <trkpt lat="41.641380310058594" lon="2.0182363986968994">
        <ele>1110.8282470703125</ele>
        <time>2018-11-25T10:45:15Z</time>
      </trkpt>
      <trkpt lat="41.64133834838867" lon="2.018259048461914">
        <ele>1110.8282470703125</ele>
        <time>2018-11-25T10:45:21Z</time>
      </trkpt>
      <trkpt lat="41.64133834838867" lon="2.0182297229766846">
        <ele>1110.8282470703125</ele>
        <time>2018-11-25T10:45:45Z</time>
      </trkpt>
      <trkpt lat="41.64125061035156" lon="2.0182559490203857">
        <ele>1110.8282470703125</ele>
        <time>2018-11-25T10:46:03Z</time>
      </trkpt>
      <trkpt lat="41.641204833984375" lon="2.0182442665100098">
        <time>2018-11-25T10:46:08Z</time>
      </trkpt>
      <trkpt lat="41.64114761352539" lon="2.0182130336761475">
        <time>2018-11-25T10:46:13Z</time>
      </trkpt>
      <trkpt lat="41.641117095947266" lon="2.018151044845581">
        <time>2018-11-25T10:46:17Z</time>
      </trkpt>
      <trkpt lat="41.64110565185547" lon="2.0180790424346924">
        <time>2018-11-25T10:46:21Z</time>
      </trkpt>
      <trkpt lat="41.64109420776367" lon="2.0180060863494873">
        <time>2018-11-25T10:46:25Z</time>
      </trkpt>
      <trkpt lat="41.64107894897461" lon="2.0179402828216553">
        <time>2018-11-25T10:46:29Z</time>
      </trkpt>
      <trkpt lat="41.641056060791016" lon="2.0178797245025635">
        <time>2018-11-25T10:46:33Z</time>
      </trkpt>
      <trkpt lat="41.641082763671875" lon="2.0175232887268066">
        <time>2018-11-25T10:49:32Z</time>
      </trkpt>
      <trkpt lat="41.641090393066406" lon="2.017524003982544">
        <time>2018-11-25T10:49:36Z</time>
      </trkpt>
      <trkpt lat="41.641761779785156" lon="2.017859935760498">
        <ele>1087.7418212890625</ele>
        <time>2018-11-25T11:18:52Z</time>
      </trkpt>
      <trkpt lat="41.64177322387695" lon="2.017843246459961">
        <ele>1087.7418212890625</ele>
        <time>2018-11-25T11:18:53Z</time>
      </trkpt>
      <trkpt lat="41.64177322387695" lon="2.0178298950195313">
        <ele>1087.7418212890625</ele>
        <time>2018-11-25T11:18:54Z</time>
      </trkpt>
      <trkpt lat="41.641780853271484" lon="2.0178167819976807">
        <ele>1087.7418212890625</ele>
        <time>2018-11-25T11:18:55Z</time>
      </trkpt>
      <trkpt lat="41.64178466796875" lon="2.0178050994873047">
        <ele>1086.56005859375</ele>
        <time>2018-11-25T11:18:56Z</time>
      </trkpt>
      <trkpt lat="41.64178466796875" lon="2.01779842376709">
        <ele>1085.287353515625</ele>
        <time>2018-11-25T11:18:57Z</time>
      </trkpt>
      <trkpt lat="41.64179229736328" lon="2.01778507232666">
        <ele>1085.287353515625</ele>
        <time>2018-11-25T11:18:58Z</time>
      </trkpt>
      <trkpt lat="41.64179992675781" lon="2.0177717208862305">
        <ele>1085.287353515625</ele>
        <time>2018-11-25T11:18:59Z</time>
      </trkpt>
      <trkpt lat="41.641807556152344" lon="2.017758369445801">
        <ele>1085.287353515625</ele>
        <time>2018-11-25T11:19:00Z</time>
      </trkpt>
      <trkpt lat="41.641841888427734" lon="2.0177199840545654">
        <ele>1084.0146484375</ele>
        <time>2018-11-25T11:19:04Z</time>
      </trkpt>
      <trkpt lat="41.64188766479492" lon="2.017676591873169">
        <ele>1082.8328857421875</ele>
        <time>2018-11-25T11:19:09Z</time>
      </trkpt>
      <trkpt lat="41.64192581176758" lon="2.0176234245300293">
        <ele>1082.8328857421875</ele>
        <time>2018-11-25T11:19:13Z</time>
      </trkpt>
      <trkpt lat="41.6419677734375" lon="2.0175600051879883">
        <ele>1081.651123046875</ele>
        <time>2018-11-25T11:19:17Z</time>
      </trkpt>
      <trkpt lat="41.64202117919922" lon="2.0175082683563232">
        <ele>1081.651123046875</ele>
        <time>2018-11-25T11:19:22Z</time>
      </trkpt>
      <trkpt lat="41.642066955566406" lon="2.017467737197876">
        <ele>1078.8330078125</ele>
        <time>2018-11-25T11:19:27Z</time>
      </trkpt>
      <trkpt lat="41.642120361328125" lon="2.0174379348754883">
        <ele>1077.560302734375</ele>
        <time>2018-11-25T11:19:31Z</time>
      </trkpt>
      <trkpt lat="41.64216995239258" lon="2.0174143314361572">
        <ele>1076.1966552734375</ele>
        <time>2018-11-25T11:19:35Z</time>
      </trkpt>
      <trkpt lat="41.642215728759766" lon="2.0173933506011963">
        <ele>1076.1966552734375</ele>
        <time>2018-11-25T11:19:39Z</time>
      </trkpt>
      <trkpt lat="41.642276763916016" lon="2.017362594604492">
        <ele>1074.9239501953125</ele>
        <time>2018-11-25T11:19:44Z</time>
      </trkpt>
      <trkpt lat="41.64232635498047" lon="2.017331600189209">
        <ele>1073.560302734375</ele>
        <time>2018-11-25T11:19:49Z</time>
      </trkpt>
      <trkpt lat="41.64238357543945" lon="2.017301559448242">
        <ele>1072.3785400390625</ele>
        <time>2018-11-25T11:19:55Z</time>
      </trkpt>
      <trkpt lat="41.64242935180664" lon="2.0172770023345947">
        <ele>1071.19677734375</ele>
        <time>2018-11-25T11:19:59Z</time>
      </trkpt>
      <trkpt lat="41.642494201660156" lon="2.017249584197998">
        <ele>1070.0150146484375</ele>
        <time>2018-11-25T11:20:04Z</time>
      </trkpt>
      <trkpt lat="41.642539978027344" lon="2.0172276496887207">
        <ele>1070.0150146484375</ele>
        <time>2018-11-25T11:20:09Z</time>
      </trkpt>
      <trkpt lat="41.6425895690918" lon="2.017202377319336">
        <ele>1068.833251953125</ele>
        <time>2018-11-25T11:20:14Z</time>
      </trkpt>
      <trkpt lat="41.64264678955078" lon="2.017167568206787">
        <ele>1068.833251953125</ele>
        <time>2018-11-25T11:20:21Z</time>
      </trkpt>
      <trkpt lat="41.64269256591797" lon="2.0171430110931396">
        <ele>1069.01513671875</ele>
        <time>2018-11-25T11:20:26Z</time>
      </trkpt>
      <trkpt lat="41.64274215698242" lon="2.0171215534210205">
        <ele>1069.01513671875</ele>
        <time>2018-11-25T11:20:32Z</time>
      </trkpt>
      <trkpt lat="41.642784118652344" lon="2.0170793533325195">
        <ele>1069.01513671875</ele>
        <time>2018-11-25T11:20:38Z</time>
      </trkpt>
      <trkpt lat="41.64282989501953" lon="2.017042398452759">
        <ele>1069.01513671875</ele>
        <time>2018-11-25T11:20:44Z</time>
      </trkpt>
      <trkpt lat="41.64285659790039" lon="2.0169808864593506">
        <ele>1066.9241943359375</ele>
        <time>2018-11-25T11:20:49Z</time>
      </trkpt>
      <trkpt lat="41.64286422729492" lon="2.0169143676757813">
        <ele>1065.742431640625</ele>
        <time>2018-11-25T11:20:55Z</time>
      </trkpt>
      <trkpt lat="41.6428337097168" lon="2.0168426036834717">
        <ele>1064.5606689453125</ele>
        <time>2018-11-25T11:21:01Z</time>
      </trkpt>
      <trkpt lat="41.64281463623047" lon="2.016793966293335">
        <ele>1064.5606689453125</ele>
        <time>2018-11-25T11:21:06Z</time>
      </trkpt>
      <trkpt lat="41.64280700683594" lon="2.0167813301086426">
        <ele>1063.37890625</ele>
        <time>2018-11-25T11:21:15Z</time>
      </trkpt>
      <trkpt lat="41.642852783203125" lon="2.016819953918457">
        <ele>1062.106201171875</ele>
        <time>2018-11-25T11:22:09Z</time>
      </trkpt>
      <trkpt lat="41.64284896850586" lon="2.0168683528900146">
        <ele>1060.83349609375</ele>
        <time>2018-11-25T11:22:12Z</time>
      </trkpt>
      <trkpt lat="41.64290237426758" lon="2.016871690750122">
        <ele>1058.2880859375</ele>
        <time>2018-11-25T11:22:24Z</time>
      </trkpt>
      <trkpt lat="41.6429328918457" lon="2.0168275833129883">
        <ele>1057.1063232421875</ele>
        <time>2018-11-25T11:22:30Z</time>
      </trkpt>
      <trkpt lat="41.64297103881836" lon="2.016770362854004">
        <ele>1055.924560546875</ele>
        <time>2018-11-25T11:22:42Z</time>
      </trkpt>
      <trkpt lat="41.64299392700195" lon="2.01670503616333">
        <ele>1054.65185546875</ele>
        <time>2018-11-25T11:22:46Z</time>
      </trkpt>
      <trkpt lat="41.64301681518555" lon="2.0166454315185547">
        <ele>1053.4700927734375</ele>
        <time>2018-11-25T11:22:51Z</time>
      </trkpt>
      <trkpt lat="41.643028259277344" lon="2.0165817737579346">
        <ele>1052.1973876953125</ele>
        <time>2018-11-25T11:22:57Z</time>
      </trkpt>
      <trkpt lat="41.643043518066406" lon="2.016508102416992">
        <ele>1050.9246826171875</ele>
        <time>2018-11-25T11:23:06Z</time>
      </trkpt>
      <trkpt lat="41.64308547973633" lon="2.0164713859558105">
        <ele>1049.742919921875</ele>
        <time>2018-11-25T11:23:13Z</time>
      </trkpt>
      <trkpt lat="41.64312744140625" lon="2.016453742980957">
        <ele>1047.2884521484375</ele>
        <time>2018-11-25T11:23:19Z</time>
      </trkpt>
      <trkpt lat="41.64318084716797" lon="2.0164287090301514">
        <ele>1046.0157470703125</ele>
        <time>2018-11-25T11:23:28Z</time>
      </trkpt>
      <trkpt lat="41.64323425292969" lon="2.016388416290283">
        <ele>1043.561279296875</ele>
        <time>2018-11-25T11:23:38Z</time>
      </trkpt>
      <trkpt lat="41.64324188232422" lon="2.0163331031799316">
        <ele>1043.561279296875</ele>
        <time>2018-11-25T11:23:45Z</time>
      </trkpt>
      <trkpt lat="41.643287658691406" lon="2.0163414478302">
        <ele>1042.3795166015625</ele>
        <time>2018-11-25T11:23:54Z</time>
      </trkpt>
      <trkpt lat="41.64333724975586" lon="2.0163512229919434">
        <ele>1039.8341064453125</ele>
        <time>2018-11-25T11:24:02Z</time>
      </trkpt>
      <trkpt lat="41.64335632324219" lon="2.0162973403930664">
        <ele>1038.65234375</ele>
        <time>2018-11-25T11:24:11Z</time>
      </trkpt>
      <trkpt lat="41.64338302612305" lon="2.0162353515625">
        <ele>1038.65234375</ele>
        <time>2018-11-25T11:24:19Z</time>
      </trkpt>
      <trkpt lat="41.64341354370117" lon="2.016183376312256">
        <ele>1037.4705810546875</ele>
        <time>2018-11-25T11:24:28Z</time>
      </trkpt>
      <trkpt lat="41.643455505371094" lon="2.0161757469177246">
        <ele>1037.4705810546875</ele>
        <time>2018-11-25T11:24:40Z</time>
      </trkpt>
      <trkpt lat="41.64349365234375" lon="2.01611590385437">
        <ele>1036.1978759765625</ele>
        <time>2018-11-25T11:24:51Z</time>
      </trkpt>
      <trkpt lat="41.64353561401367" lon="2.016066551208496">
        <ele>1036.1978759765625</ele>
        <time>2018-11-25T11:25:05Z</time>
      </trkpt>
      <trkpt lat="41.643585205078125" lon="2.016071319580078">
        <ele>1036.1978759765625</ele>
        <time>2018-11-25T11:25:12Z</time>
      </trkpt>
      <trkpt lat="41.643638610839844" lon="2.0160739421844482">
        <ele>1033.470703125</ele>
        <time>2018-11-25T11:25:20Z</time>
      </trkpt>
      <trkpt lat="41.64369201660156" lon="2.016057252883911">
        <ele>1029.3797607421875</ele>
        <time>2018-11-25T11:25:30Z</time>
      </trkpt>
      <trkpt lat="41.64373779296875" lon="2.0160157680511475">
        <ele>1028.197998046875</ele>
        <time>2018-11-25T11:25:36Z</time>
      </trkpt>
      <trkpt lat="41.643775939941406" lon="2.015976905822754">
        <ele>1026.8343505859375</ele>
        <time>2018-11-25T11:25:41Z</time>
      </trkpt>
      <trkpt lat="41.64381790161133" lon="2.015932559967041">
        <ele>1025.470703125</ele>
        <time>2018-11-25T11:25:47Z</time>
      </trkpt>
      <trkpt lat="41.64384841918945" lon="2.0158743858337402">
        <ele>1025.470703125</ele>
        <time>2018-11-25T11:25:53Z</time>
      </trkpt>
      <trkpt lat="41.643890380859375" lon="2.0158190727233887">
        <ele>1023.0161743164063</ele>
        <time>2018-11-25T11:25:59Z</time>
      </trkpt>
      <trkpt lat="41.6439323425293" lon="2.015795946121216">
        <ele>1021.8343505859375</ele>
        <time>2018-11-25T11:26:04Z</time>
      </trkpt>
      <trkpt lat="41.643985748291016" lon="2.01577091217041">
        <ele>1021.8343505859375</ele>
        <time>2018-11-25T11:26:09Z</time>
      </trkpt>
      <trkpt lat="41.644039154052734" lon="2.0157856941223145">
        <ele>1020.5616455078125</ele>
        <time>2018-11-25T11:26:15Z</time>
      </trkpt>
      <trkpt lat="41.64410400390625" lon="2.0157394409179688">
        <ele>1019.3798217773438</ele>
        <time>2018-11-25T11:26:33Z</time>
      </trkpt>
      <trkpt lat="41.64411544799805" lon="2.01566743850708">
        <ele>1018.197998046875</ele>
        <time>2018-11-25T11:26:43Z</time>
      </trkpt>
      <trkpt lat="41.64414596557617" lon="2.0156164169311523">
        <ele>1015.7434692382813</ele>
        <time>2018-11-25T11:26:49Z</time>
      </trkpt>
      <trkpt lat="41.644168853759766" lon="2.015558958053589">
        <ele>1014.4707641601563</ele>
        <time>2018-11-25T11:26:55Z</time>
      </trkpt>
      <trkpt lat="41.64413833618164" lon="2.015524387359619">
        <ele>1013.1980590820313</ele>
        <time>2018-11-25T11:27:03Z</time>
      </trkpt>
      <trkpt lat="41.64414978027344" lon="2.015519380569458">
        <ele>1011.9253540039063</ele>
        <time>2018-11-25T11:27:17Z</time>
      </trkpt>
      <trkpt lat="41.64411544799805" lon="2.0154664516448975">
        <ele>1010.7435302734375</ele>
        <time>2018-11-25T11:27:28Z</time>
      </trkpt>
      <trkpt lat="41.644100189208984" lon="2.0154225826263428">
        <ele>1009.5617065429688</ele>
        <time>2018-11-25T11:27:33Z</time>
      </trkpt>
      <trkpt lat="41.64406204223633" lon="2.0154199600219727">
        <ele>1008.3798828125</ele>
        <time>2018-11-25T11:27:46Z</time>
      </trkpt>
      <trkpt lat="41.644012451171875" lon="2.015376567840576">
        <ele>1007.1980590820313</ele>
        <time>2018-11-25T11:27:55Z</time>
      </trkpt>
      <trkpt lat="41.64397430419922" lon="2.015336275100708">
        <ele>1007.1980590820313</ele>
        <time>2018-11-25T11:28:03Z</time>
      </trkpt>
      <trkpt lat="41.643943786621094" lon="2.0152926445007324">
        <ele>1007.1980590820313</ele>
        <time>2018-11-25T11:28:12Z</time>
      </trkpt>
      <trkpt lat="41.6439323425293" lon="2.0153133869171143">
        <ele>1007.1980590820313</ele>
        <time>2018-11-25T11:28:26Z</time>
      </trkpt>
      <trkpt lat="41.64397430419922" lon="2.015260934829712">
        <ele>1007.1980590820313</ele>
        <time>2018-11-25T11:28:29Z</time>
      </trkpt>
      <trkpt lat="41.64394760131836" lon="2.0152273178100586">
        <ele>1006.0162353515625</ele>
        <time>2018-11-25T11:28:35Z</time>
      </trkpt>
      <trkpt lat="41.643924713134766" lon="2.015230655670166">
        <ele>1003.5617065429688</ele>
        <time>2018-11-25T11:28:45Z</time>
      </trkpt>
      <trkpt lat="41.643863677978516" lon="2.015204429626465">
        <ele>1002.3798828125</ele>
        <time>2018-11-25T11:28:50Z</time>
      </trkpt>
      <trkpt lat="41.64385223388672" lon="2.0151419639587402">
        <ele>1001.0162353515625</ele>
        <time>2018-11-25T11:29:01Z</time>
      </trkpt>
      <trkpt lat="41.6438102722168" lon="2.0151290893554688">
        <ele>1001.0162353515625</ele>
        <time>2018-11-25T11:29:08Z</time>
      </trkpt>
      <trkpt lat="41.64377212524414" lon="2.0151379108428955">
        <ele>998.4707641601563</ele>
        <time>2018-11-25T11:29:12Z</time>
      </trkpt>
      <trkpt lat="41.643707275390625" lon="2.0151479244232178">
        <ele>998.4707641601563</ele>
        <time>2018-11-25T11:29:18Z</time>
      </trkpt>
      <trkpt lat="41.64371109008789" lon="2.01516056060791">
        <ele>997.2889404296875</ele>
        <time>2018-11-25T11:29:25Z</time>
      </trkpt>
      <trkpt lat="41.64366912841797" lon="2.015186309814453">
        <ele>996.1071166992188</ele>
        <time>2018-11-25T11:29:29Z</time>
      </trkpt>
      <trkpt lat="41.64362335205078" lon="2.0151729583740234">
        <ele>994.8344116210938</ele>
        <time>2018-11-25T11:29:36Z</time>
      </trkpt>
      <trkpt lat="41.643611907958984" lon="2.0151619911193848">
        <ele>992.4707641601563</ele>
        <time>2018-11-25T11:29:44Z</time>
      </trkpt>
      <trkpt lat="41.64358139038086" lon="2.0151469707489014">
        <ele>991.1980590820313</ele>
        <time>2018-11-25T11:29:52Z</time>
      </trkpt>
      <trkpt lat="41.64360427856445" lon="2.0150747299194336">
        <ele>990.0162353515625</ele>
        <time>2018-11-25T11:29:57Z</time>
      </trkpt>
      <trkpt lat="41.6435432434082" lon="2.015037775039673">
        <ele>990.0162353515625</ele>
        <time>2018-11-25T11:30:03Z</time>
      </trkpt>
      <trkpt lat="41.64350891113281" lon="2.0150067806243896">
        <ele>988.7435302734375</ele>
        <time>2018-11-25T11:30:12Z</time>
      </trkpt>
      <trkpt lat="41.64346694946289" lon="2.0149776935577393">
        <ele>987.4708251953125</ele>
        <time>2018-11-25T11:30:20Z</time>
      </trkpt>
      <trkpt lat="41.64344787597656" lon="2.0149474143981934">
        <ele>987.4708251953125</ele>
        <time>2018-11-25T11:30:27Z</time>
      </trkpt>
      <trkpt lat="41.64338684082031" lon="2.014951705932617">
        <ele>987.4708251953125</ele>
        <time>2018-11-25T11:30:35Z</time>
      </trkpt>
      <trkpt lat="41.64336395263672" lon="2.0149309635162354">
        <ele>987.4708251953125</ele>
        <time>2018-11-25T11:30:43Z</time>
      </trkpt>
      <trkpt lat="41.643375396728516" lon="2.014859914779663">
        <ele>987.4708251953125</ele>
        <time>2018-11-25T11:30:49Z</time>
      </trkpt>
      <trkpt lat="41.643333435058594" lon="2.0148160457611084">
        <ele>984.83447265625</ele>
        <time>2018-11-25T11:30:56Z</time>
      </trkpt>
      <trkpt lat="41.64332962036133" lon="2.014777898788452">
        <ele>983.4708251953125</ele>
        <time>2018-11-25T11:31:10Z</time>
      </trkpt>
      <trkpt lat="41.64338302612305" lon="2.0147767066955566">
        <ele>982.107177734375</ele>
        <time>2018-11-25T11:31:19Z</time>
      </trkpt>
      <trkpt lat="41.64344024658203" lon="2.0147950649261475">
        <ele>980.9253540039063</ele>
        <time>2018-11-25T11:31:28Z</time>
      </trkpt>
      <trkpt lat="41.64349365234375" lon="2.0148205757141113">
        <ele>979.7435302734375</ele>
        <time>2018-11-25T11:32:02Z</time>
      </trkpt>
      <trkpt lat="41.64352798461914" lon="2.014838933944702">
        <ele>979.7435302734375</ele>
        <time>2018-11-25T11:32:10Z</time>
      </trkpt>
      <trkpt lat="41.64358139038086" lon="2.0148537158966064">
        <ele>978.5617065429688</ele>
        <time>2018-11-25T11:32:15Z</time>
      </trkpt>
      <trkpt lat="41.64363479614258" lon="2.014845609664917">
        <ele>978.5617065429688</ele>
        <time>2018-11-25T11:32:21Z</time>
      </trkpt>
      <trkpt lat="41.6436653137207" lon="2.0148026943206787">
        <ele>978.5617065429688</ele>
        <time>2018-11-25T11:32:26Z</time>
      </trkpt>
      <trkpt lat="41.6436767578125" lon="2.014742374420166">
        <ele>978.5617065429688</ele>
        <time>2018-11-25T11:32:35Z</time>
      </trkpt>
      <trkpt lat="41.643733978271484" lon="2.0147175788879395">
        <ele>978.5617065429688</ele>
        <time>2018-11-25T11:32:44Z</time>
      </trkpt>
      <trkpt lat="41.64377975463867" lon="2.0146756172180176">
        <ele>977.0162353515625</ele>
        <time>2018-11-25T11:32:49Z</time>
      </trkpt>
      <trkpt lat="41.64381790161133" lon="2.014634370803833">
        <ele>977.0162353515625</ele>
        <time>2018-11-25T11:32:57Z</time>
      </trkpt>
      <trkpt lat="41.64386749267578" lon="2.0146453380584717">
        <ele>977.0162353515625</ele>
        <time>2018-11-25T11:33:04Z</time>
      </trkpt>
      <trkpt lat="41.6439208984375" lon="2.014636278152466">
        <ele>977.0162353515625</ele>
        <time>2018-11-25T11:33:13Z</time>
      </trkpt>
      <trkpt lat="41.64396286010742" lon="2.01462459564209">
        <ele>977.0162353515625</ele>
        <time>2018-11-25T11:33:25Z</time>
      </trkpt>
      <trkpt lat="41.64400100708008" lon="2.014629364013672">
        <ele>977.0162353515625</ele>
        <time>2018-11-25T11:33:42Z</time>
      </trkpt>
      <trkpt lat="41.644046783447266" lon="2.0146286487579346">
        <ele>977.0162353515625</ele>
        <time>2018-11-25T11:33:46Z</time>
      </trkpt>
      <trkpt lat="41.64409255981445" lon="2.014638662338257">
        <ele>974.4707641601563</ele>
        <time>2018-11-25T11:33:52Z</time>
      </trkpt>
      <trkpt lat="41.64414596557617" lon="2.0146212577819824">
        <ele>973.2889404296875</ele>
        <time>2018-11-25T11:34:01Z</time>
      </trkpt>
      <trkpt lat="41.644203186035156" lon="2.0146217346191406">
        <ele>972.0162353515625</ele>
        <time>2018-11-25T11:34:06Z</time>
      </trkpt>
      <trkpt lat="41.644256591796875" lon="2.0146169662475586">
        <ele>969.5617065429688</ele>
        <time>2018-11-25T11:34:11Z</time>
      </trkpt>
      <trkpt lat="41.64430618286133" lon="2.014604091644287">
        <ele>968.3798828125</ele>
        <time>2018-11-25T11:34:17Z</time>
      </trkpt>
      <trkpt lat="41.64435577392578" lon="2.014582395553589">
        <ele>967.1980590820313</ele>
        <time>2018-11-25T11:34:24Z</time>
      </trkpt>
      <trkpt lat="41.64441680908203" lon="2.014566659927368">
        <ele>965.9253540039063</ele>
        <time>2018-11-25T11:34:34Z</time>
      </trkpt>
      <trkpt lat="41.644466400146484" lon="2.014566659927368">
        <ele>964.7435302734375</ele>
        <time>2018-11-25T11:34:40Z</time>
      </trkpt>
      <trkpt lat="41.644439697265625" lon="2.0145976543426514">
        <ele>964.7435302734375</ele>
        <time>2018-11-25T11:34:50Z</time>
      </trkpt>
      <trkpt lat="41.64447021484375" lon="2.014556407928467">
        <ele>963.5617065429688</ele>
        <time>2018-11-25T11:35:09Z</time>
      </trkpt>
      <trkpt lat="41.64451217651367" lon="2.0145559310913086">
        <ele>962.3798828125</ele>
        <time>2018-11-25T11:35:21Z</time>
      </trkpt>
      <trkpt lat="41.64455032348633" lon="2.014552354812622">
        <ele>962.3798828125</ele>
        <time>2018-11-25T11:35:40Z</time>
      </trkpt>
      <trkpt lat="41.644596099853516" lon="2.014531373977661">
        <ele>961.1980590820313</ele>
        <time>2018-11-25T11:36:03Z</time>
      </trkpt>
      <trkpt lat="41.644622802734375" lon="2.01456356048584">
        <ele>961.1980590820313</ele>
        <time>2018-11-25T11:36:08Z</time>
      </trkpt>
      <trkpt lat="41.64466857910156" lon="2.014573335647583">
        <ele>961.1980590820313</ele>
        <time>2018-11-25T11:36:18Z</time>
      </trkpt>
      <trkpt lat="41.64473342895508" lon="2.014613389968872">
        <ele>961.1980590820313</ele>
        <time>2018-11-25T11:36:28Z</time>
      </trkpt>
      <trkpt lat="41.64479064941406" lon="2.014626979827881">
        <ele>961.1980590820313</ele>
        <time>2018-11-25T11:36:36Z</time>
      </trkpt>
      <trkpt lat="41.644805908203125" lon="2.01466703414917">
        <ele>961.1980590820313</ele>
        <time>2018-11-25T11:36:45Z</time>
      </trkpt>
      <trkpt lat="41.64485168457031" lon="2.0146937370300293">
        <ele>961.1980590820313</ele>
        <time>2018-11-25T11:36:54Z</time>
      </trkpt>
      <trkpt lat="41.644901275634766" lon="2.0147275924682617">
        <ele>963.107177734375</ele>
        <time>2018-11-25T11:37:03Z</time>
      </trkpt>
      <trkpt lat="41.644935607910156" lon="2.0147480964660645">
        <ele>964.2890014648438</ele>
        <time>2018-11-25T11:37:09Z</time>
      </trkpt>
      <trkpt lat="41.64499282836914" lon="2.014760971069336">
        <ele>964.2890014648438</ele>
        <time>2018-11-25T11:37:27Z</time>
      </trkpt>
      <trkpt lat="41.64503860473633" lon="2.014758348464966">
        <ele>965.4708251953125</ele>
        <time>2018-11-25T11:37:33Z</time>
      </trkpt>
      <trkpt lat="41.64510726928711" lon="2.014802932739258">
        <ele>965.4708251953125</ele>
        <time>2018-11-25T11:37:42Z</time>
      </trkpt>
      <trkpt lat="41.64516067504883" lon="2.014806032180786">
        <ele>965.4708251953125</ele>
        <time>2018-11-25T11:37:46Z</time>
      </trkpt>
      <trkpt lat="41.645206451416016" lon="2.014815092086792">
        <ele>964.2890014648438</ele>
        <time>2018-11-25T11:37:51Z</time>
      </trkpt>
      <trkpt lat="41.645263671875" lon="2.0148494243621826">
        <ele>964.2890014648438</ele>
        <time>2018-11-25T11:37:56Z</time>
      </trkpt>
      <trkpt lat="41.64531326293945" lon="2.014833450317383">
        <ele>965.5617065429688</ele>
        <time>2018-11-25T11:38:01Z</time>
      </trkpt>
      <trkpt lat="41.64535903930664" lon="2.014805555343628">
        <ele>966.7435302734375</ele>
        <time>2018-11-25T11:38:09Z</time>
      </trkpt>
      <trkpt lat="41.64541244506836" lon="2.0147693157196045">
        <ele>968.0162353515625</ele>
        <time>2018-11-25T11:38:16Z</time>
      </trkpt>
      <trkpt lat="41.64545822143555" lon="2.0147316455841064">
        <ele>969.1980590820313</ele>
        <time>2018-11-25T11:38:20Z</time>
      </trkpt>
      <trkpt lat="41.64548873901367" lon="2.0146820545196533">
        <ele>969.1980590820313</ele>
        <time>2018-11-25T11:38:25Z</time>
      </trkpt>
      <trkpt lat="41.64552307128906" lon="2.01461124420166">
        <ele>973.2889404296875</ele>
        <time>2018-11-25T11:38:31Z</time>
      </trkpt>
      <trkpt lat="41.64555740356445" lon="2.014561653137207">
        <ele>976.0161743164063</ele>
        <time>2018-11-25T11:38:36Z</time>
      </trkpt>
      <trkpt lat="41.645591735839844" lon="2.014514923095703">
        <ele>976.0161743164063</ele>
        <time>2018-11-25T11:38:43Z</time>
      </trkpt>
      <trkpt lat="41.6456413269043" lon="2.014474630355835">
        <ele>977.197998046875</ele>
        <time>2018-11-25T11:38:49Z</time>
      </trkpt>
      <trkpt lat="41.64567947387695" lon="2.014435052871704">
        <ele>977.197998046875</ele>
        <time>2018-11-25T11:39:00Z</time>
      </trkpt>
      <trkpt lat="41.64570617675781" lon="2.0143933296203613">
        <ele>979.7434692382813</ele>
        <time>2018-11-25T11:39:11Z</time>
      </trkpt>
      <trkpt lat="41.645755767822266" lon="2.0143415927886963">
        <ele>979.7434692382813</ele>
        <time>2018-11-25T11:39:18Z</time>
      </trkpt>
      <trkpt lat="41.64581298828125" lon="2.0142786502838135">
        <ele>979.7434692382813</ele>
        <time>2018-11-25T11:39:37Z</time>
      </trkpt>
      <trkpt lat="41.64584732055664" lon="2.014239549636841">
        <ele>979.7434692382813</ele>
        <time>2018-11-25T11:39:44Z</time>
      </trkpt>
      <trkpt lat="41.64590072631836" lon="2.014218330383301">
        <ele>979.7434692382813</ele>
        <time>2018-11-25T11:39:58Z</time>
      </trkpt>
      <trkpt lat="41.64590072631836" lon="2.0141663551330566">
        <ele>979.7434692382813</ele>
        <time>2018-11-25T11:40:39Z</time>
      </trkpt>
      <trkpt lat="41.64588928222656" lon="2.0141055583953857">
        <ele>979.7434692382813</ele>
        <time>2018-11-25T11:40:44Z</time>
      </trkpt>
      <trkpt lat="41.64590835571289" lon="2.014065742492676">
        <ele>979.7434692382813</ele>
        <time>2018-11-25T11:41:05Z</time>
      </trkpt>
      <trkpt lat="41.64593505859375" lon="2.014030694961548">
        <ele>978.5616455078125</ele>
        <time>2018-11-25T11:41:08Z</time>
      </trkpt>
      <trkpt lat="41.64595031738281" lon="2.0139451026916504">
        <ele>978.5616455078125</ele>
        <time>2018-11-25T11:42:41Z</time>
      </trkpt>
      <trkpt lat="41.64597702026367" lon="2.013895034790039">
        <ele>978.5616455078125</ele>
        <time>2018-11-25T11:42:46Z</time>
      </trkpt>
      <trkpt lat="41.646018981933594" lon="2.0138509273529053">
        <ele>977.3798217773438</ele>
        <time>2018-11-25T11:42:52Z</time>
      </trkpt>
      <trkpt lat="41.646060943603516" lon="2.0138144493103027">
        <ele>977.3798217773438</ele>
        <time>2018-11-25T11:42:57Z</time>
      </trkpt>
      <trkpt lat="41.64610290527344" lon="2.013763904571533">
        <ele>977.3798217773438</ele>
        <time>2018-11-25T11:43:05Z</time>
      </trkpt>
      <trkpt lat="41.64615249633789" lon="2.0136959552764893">
        <ele>977.3798217773438</ele>
        <time>2018-11-25T11:43:12Z</time>
      </trkpt>
      <trkpt lat="41.64618682861328" lon="2.0136513710021973">
        <ele>977.3798217773438</ele>
        <time>2018-11-25T11:43:15Z</time>
      </trkpt>
      <trkpt lat="41.646217346191406" lon="2.0136001110076904">
        <ele>978.5616455078125</ele>
        <time>2018-11-25T11:43:19Z</time>
      </trkpt>
      <trkpt lat="41.64625549316406" lon="2.013559341430664">
        <ele>978.5616455078125</ele>
        <time>2018-11-25T11:43:27Z</time>
      </trkpt>
      <trkpt lat="41.646244049072266" lon="2.0134823322296143">
        <ele>980.92529296875</ele>
        <time>2018-11-25T11:43:35Z</time>
      </trkpt>
      <trkpt lat="41.6462287902832" lon="2.013401746749878">
        <ele>980.92529296875</ele>
        <time>2018-11-25T11:43:41Z</time>
      </trkpt>
      <trkpt lat="41.64622497558594" lon="2.013348340988159">
        <ele>982.1071166992188</ele>
        <time>2018-11-25T11:43:45Z</time>
      </trkpt>
      <trkpt lat="41.64623260498047" lon="2.013261318206787">
        <ele>982.1071166992188</ele>
        <time>2018-11-25T11:43:51Z</time>
      </trkpt>
      <trkpt lat="41.646217346191406" lon="2.0131802558898926">
        <ele>982.1071166992188</ele>
        <time>2018-11-25T11:43:57Z</time>
      </trkpt>
      <trkpt lat="41.646202087402344" lon="2.013094902038574">
        <ele>982.1071166992188</ele>
        <time>2018-11-25T11:44:03Z</time>
      </trkpt>
      <trkpt lat="41.64619064331055" lon="2.0130250453948975">
        <ele>983.7434692382813</ele>
        <time>2018-11-25T11:44:08Z</time>
      </trkpt>
      <trkpt lat="41.646175384521484" lon="2.012962579727173">
        <ele>983.7434692382813</ele>
        <time>2018-11-25T11:44:13Z</time>
      </trkpt>
      <trkpt lat="41.64616394042969" lon="2.012892246246338">
        <ele>983.7434692382813</ele>
        <time>2018-11-25T11:44:20Z</time>
      </trkpt>
      <trkpt lat="41.64617919921875" lon="2.0128207206726074">
        <ele>985.1071166992188</ele>
        <time>2018-11-25T11:44:26Z</time>
      </trkpt>
      <trkpt lat="41.64615249633789" lon="2.0127604007720947">
        <ele>985.1071166992188</ele>
        <time>2018-11-25T11:44:32Z</time>
      </trkpt>
      <trkpt lat="41.64611053466797" lon="2.01271390914917">
        <ele>985.1071166992188</ele>
        <time>2018-11-25T11:44:47Z</time>
      </trkpt>
      <trkpt lat="41.64607238769531" lon="2.0126564502716064">
        <ele>985.1071166992188</ele>
        <time>2018-11-25T11:44:52Z</time>
      </trkpt>
      <trkpt lat="41.64604187011719" lon="2.0125956535339355">
        <ele>985.1071166992188</ele>
        <time>2018-11-25T11:44:57Z</time>
      </trkpt>
      <trkpt lat="41.64601516723633" lon="2.0125317573547363">
        <ele>985.1071166992188</ele>
        <time>2018-11-25T11:45:02Z</time>
      </trkpt>
      <trkpt lat="41.645999908447266" lon="2.012418270111084">
        <ele>985.1071166992188</ele>
        <time>2018-11-25T11:45:30Z</time>
      </trkpt>
      <trkpt lat="41.645992279052734" lon="2.0123493671417236">
        <ele>983.92529296875</ele>
        <time>2018-11-25T11:45:33Z</time>
      </trkpt>
      <trkpt lat="41.64599609375" lon="2.01228666305542">
        <ele>982.7434692382813</ele>
        <time>2018-11-25T11:45:36Z</time>
      </trkpt>
      <trkpt lat="41.64602279663086" lon="2.012216091156006">
        <ele>982.7434692382813</ele>
        <time>2018-11-25T11:45:40Z</time>
      </trkpt>
      <trkpt lat="41.64605712890625" lon="2.0121662616729736">
        <ele>981.5616455078125</ele>
        <time>2018-11-25T11:45:43Z</time>
      </trkpt>
      <trkpt lat="41.6461181640625" lon="2.0121257305145264">
        <ele>981.5616455078125</ele>
        <time>2018-11-25T11:45:47Z</time>
      </trkpt>
      <trkpt lat="41.64617919921875" lon="2.01210355758667">
        <ele>981.5616455078125</ele>
        <time>2018-11-25T11:45:51Z</time>
      </trkpt>
      <trkpt lat="41.64622497558594" lon="2.0120882987976074">
        <ele>980.2889404296875</ele>
        <time>2018-11-25T11:45:54Z</time>
      </trkpt>
      <trkpt lat="41.64627456665039" lon="2.0120739936828613">
        <ele>979.0162353515625</ele>
        <time>2018-11-25T11:45:59Z</time>
      </trkpt>
      <trkpt lat="41.646324157714844" lon="2.012070655822754">
        <ele>979.0162353515625</ele>
        <time>2018-11-25T11:46:03Z</time>
      </trkpt>
      <trkpt lat="41.64637756347656" lon="2.0120689868927">
        <ele>979.0162353515625</ele>
        <time>2018-11-25T11:46:09Z</time>
      </trkpt>
      <trkpt lat="41.64643478393555" lon="2.0120692253112793">
        <ele>979.0162353515625</ele>
        <time>2018-11-25T11:46:15Z</time>
      </trkpt>
      <trkpt lat="41.646480560302734" lon="2.0120866298675537">
        <ele>979.0162353515625</ele>
        <time>2018-11-25T11:46:20Z</time>
      </trkpt>
      <trkpt lat="41.646522521972656" lon="2.0121333599090576">
        <ele>979.0162353515625</ele>
        <time>2018-11-25T11:46:25Z</time>
      </trkpt>
      <trkpt lat="41.64657211303711" lon="2.012171745300293">
        <ele>979.0162353515625</ele>
        <time>2018-11-25T11:46:38Z</time>
      </trkpt>
      <trkpt lat="41.64661407470703" lon="2.0121867656707764">
        <ele>979.0162353515625</ele>
        <time>2018-11-25T11:46:45Z</time>
      </trkpt>
      <trkpt lat="41.64667892456055" lon="2.0122060775756836">
        <ele>979.0162353515625</ele>
        <time>2018-11-25T11:46:55Z</time>
      </trkpt>
      <trkpt lat="41.646724700927734" lon="2.012220621109009">
        <ele>979.0162353515625</ele>
        <time>2018-11-25T11:47:01Z</time>
      </trkpt>
      <trkpt lat="41.64677047729492" lon="2.0122382640838623">
        <ele>979.0162353515625</ele>
        <time>2018-11-25T11:47:07Z</time>
      </trkpt>
      <trkpt lat="41.6468391418457" lon="2.012249708175659">
        <ele>979.0162353515625</ele>
        <time>2018-11-25T11:47:15Z</time>
      </trkpt>
      <trkpt lat="41.64690399169922" lon="2.0122432708740234">
        <ele>979.0162353515625</ele>
        <time>2018-11-25T11:47:21Z</time>
      </trkpt>
      <trkpt lat="41.646949768066406" lon="2.012251377105713">
        <ele>979.0162353515625</ele>
        <time>2018-11-25T11:47:25Z</time>
      </trkpt>
      <trkpt lat="41.647003173828125" lon="2.0122623443603516">
        <ele>979.0162353515625</ele>
        <time>2018-11-25T11:47:31Z</time>
      </trkpt>
      <trkpt lat="41.647056579589844" lon="2.012270450592041">
        <ele>979.0162353515625</ele>
        <time>2018-11-25T11:47:37Z</time>
      </trkpt>
      <trkpt lat="41.6471061706543" lon="2.0122780799865723">
        <ele>979.0162353515625</ele>
        <time>2018-11-25T11:47:42Z</time>
      </trkpt>
      <trkpt lat="41.64714431762695" lon="2.012336254119873">
        <ele>979.0162353515625</ele>
        <time>2018-11-25T11:47:55Z</time>
      </trkpt>
      <trkpt lat="41.647193908691406" lon="2.01236891746521">
        <ele>979.0162353515625</ele>
        <time>2018-11-25T11:48:00Z</time>
      </trkpt>
      <trkpt lat="41.647239685058594" lon="2.0123989582061768">
        <ele>979.0162353515625</ele>
        <time>2018-11-25T11:48:06Z</time>
      </trkpt>
      <trkpt lat="41.64728927612305" lon="2.012434244155884">
        <ele>979.0162353515625</ele>
        <time>2018-11-25T11:48:12Z</time>
      </trkpt>
      <trkpt lat="41.64733123779297" lon="2.0124664306640625">
        <ele>979.0162353515625</ele>
        <time>2018-11-25T11:48:18Z</time>
      </trkpt>
      <trkpt lat="41.64738082885742" lon="2.0124943256378174">
        <ele>980.1980590820313</ele>
        <time>2018-11-25T11:48:24Z</time>
      </trkpt>
      <trkpt lat="41.64743423461914" lon="2.0125272274017334">
        <ele>980.1980590820313</ele>
        <time>2018-11-25T11:48:31Z</time>
      </trkpt>
      <trkpt lat="41.6474723815918" lon="2.012592315673828">
        <ele>980.1980590820313</ele>
        <time>2018-11-25T11:48:36Z</time>
      </trkpt>
      <trkpt lat="41.647518157958984" lon="2.0126283168792725">
        <ele>980.1980590820313</ele>
        <time>2018-11-25T11:48:41Z</time>
      </trkpt>
      <trkpt lat="41.64755630493164" lon="2.012669086456299">
        <ele>980.1980590820313</ele>
        <time>2018-11-25T11:48:47Z</time>
      </trkpt>
      <trkpt lat="41.647605895996094" lon="2.012662887573242">
        <ele>980.1980590820313</ele>
        <time>2018-11-25T11:48:54Z</time>
      </trkpt>
      <trkpt lat="41.64765930175781" lon="2.012643337249756">
        <ele>980.1980590820313</ele>
        <time>2018-11-25T11:49:01Z</time>
      </trkpt>
      <trkpt lat="41.64771270751953" lon="2.012626886367798">
        <ele>980.1980590820313</ele>
        <time>2018-11-25T11:49:08Z</time>
      </trkpt>
      <trkpt lat="41.64775848388672" lon="2.0126283168792725">
        <ele>980.1980590820313</ele>
        <time>2018-11-25T11:49:14Z</time>
      </trkpt>
      <trkpt lat="41.64786148071289" lon="2.012584924697876">
        <ele>980.1980590820313</ele>
        <time>2018-11-25T11:50:31Z</time>
      </trkpt>
      <trkpt lat="41.647891998291016" lon="2.012577772140503">
        <ele>980.1980590820313</ele>
        <time>2018-11-25T11:50:32Z</time>
      </trkpt>
      <trkpt lat="41.647926330566406" lon="2.012568235397339">
        <ele>980.1980590820313</ele>
        <time>2018-11-25T11:50:34Z</time>
      </trkpt>
      <trkpt lat="41.64795684814453" lon="2.0125107765197754">
        <ele>980.1980590820313</ele>
        <time>2018-11-25T11:50:39Z</time>
      </trkpt>
      <trkpt lat="41.64800262451172" lon="2.0124518871307373">
        <ele>980.1980590820313</ele>
        <time>2018-11-25T11:50:43Z</time>
      </trkpt>
      <trkpt lat="41.64805221557617" lon="2.01241135597229">
        <ele>980.1980590820313</ele>
        <time>2018-11-25T11:50:48Z</time>
      </trkpt>
      <trkpt lat="41.648094177246094" lon="2.0123913288116455">
        <ele>980.1980590820313</ele>
        <time>2018-11-25T11:50:51Z</time>
      </trkpt>
      <trkpt lat="41.64814758300781" lon="2.012371301651001">
        <ele>981.4707641601563</ele>
        <time>2018-11-25T11:50:56Z</time>
      </trkpt>
      <trkpt lat="41.6482048034668" lon="2.0123679637908936">
        <ele>981.4707641601563</ele>
        <time>2018-11-25T11:51:00Z</time>
      </trkpt>
      <trkpt lat="41.64827346801758" lon="2.0123488903045654">
        <ele>981.4707641601563</ele>
        <time>2018-11-25T11:51:04Z</time>
      </trkpt>
      <trkpt lat="41.6483268737793" lon="2.012324333190918">
        <ele>981.4707641601563</ele>
        <time>2018-11-25T11:51:07Z</time>
      </trkpt>
      <trkpt lat="41.648380279541016" lon="2.0123040676116943">
        <ele>981.4707641601563</ele>
        <time>2018-11-25T11:51:10Z</time>
      </trkpt>
      <trkpt lat="41.6484489440918" lon="2.0122923851013184">
        <ele>981.4707641601563</ele>
        <time>2018-11-25T11:51:13Z</time>
      </trkpt>
      <trkpt lat="41.64849090576172" lon="2.012291669845581">
        <ele>981.4707641601563</ele>
        <time>2018-11-25T11:51:16Z</time>
      </trkpt>
      <trkpt lat="41.6485481262207" lon="2.0122883319854736">
        <ele>983.1980590820313</ele>
        <time>2018-11-25T11:51:21Z</time>
      </trkpt>
      <trkpt lat="41.648590087890625" lon="2.012279987335205">
        <ele>983.1980590820313</ele>
        <time>2018-11-25T11:51:25Z</time>
      </trkpt>
      <trkpt lat="41.64864730834961" lon="2.0122599601745605">
        <ele>983.1980590820313</ele>
        <time>2018-11-25T11:51:31Z</time>
      </trkpt>
      <trkpt lat="41.64869689941406" lon="2.012251377105713">
        <ele>983.1980590820313</ele>
        <time>2018-11-25T11:51:36Z</time>
      </trkpt>
      <trkpt lat="41.64875793457031" lon="2.012247323989868">
        <ele>984.4707641601563</ele>
        <time>2018-11-25T11:51:43Z</time>
      </trkpt>
      <trkpt lat="41.6488151550293" lon="2.0122389793395996">
        <ele>984.4707641601563</ele>
        <time>2018-11-25T11:51:48Z</time>
      </trkpt>
      <trkpt lat="41.64887237548828" lon="2.0122337341308594">
        <ele>984.4707641601563</ele>
        <time>2018-11-25T11:51:54Z</time>
      </trkpt>
      <trkpt lat="41.648929595947266" lon="2.0122177600860596">
        <ele>985.7434692382813</ele>
        <time>2018-11-25T11:52:00Z</time>
      </trkpt>
      <trkpt lat="41.64897155761719" lon="2.012164354324341">
        <ele>985.7434692382813</ele>
        <time>2018-11-25T11:52:04Z</time>
      </trkpt>
      <trkpt lat="41.649017333984375" lon="2.012144088745117">
        <ele>987.0161743164063</ele>
        <time>2018-11-25T11:52:10Z</time>
      </trkpt>
      <trkpt lat="41.6490592956543" lon="2.012155055999756">
        <ele>987.0161743164063</ele>
        <time>2018-11-25T11:52:19Z</time>
      </trkpt>
      <trkpt lat="41.64912414550781" lon="2.012179374694824">
        <ele>988.197998046875</ele>
        <time>2018-11-25T11:52:26Z</time>
      </trkpt>
      <trkpt lat="41.6491813659668" lon="2.012193441390991">
        <ele>989.470703125</ele>
        <time>2018-11-25T11:52:31Z</time>
      </trkpt>
      <trkpt lat="41.649227142333984" lon="2.012199640274048">
        <ele>990.743408203125</ele>
        <time>2018-11-25T11:52:37Z</time>
      </trkpt>
      <trkpt lat="41.64928436279297" lon="2.012213945388794">
        <ele>990.743408203125</ele>
        <time>2018-11-25T11:52:43Z</time>
      </trkpt>
      <trkpt lat="41.64934158325195" lon="2.012221097946167">
        <ele>992.1070556640625</ele>
        <time>2018-11-25T11:52:51Z</time>
      </trkpt>
      <trkpt lat="41.64939498901367" lon="2.0122220516204834">
        <ele>992.1070556640625</ele>
        <time>2018-11-25T11:52:56Z</time>
      </trkpt>
      <trkpt lat="41.649444580078125" lon="2.0122294425964355">
        <ele>993.2888793945313</ele>
        <time>2018-11-25T11:53:00Z</time>
      </trkpt>
      <trkpt lat="41.64949417114258" lon="2.012244701385498">
        <ele>993.2888793945313</ele>
        <time>2018-11-25T11:53:06Z</time>
      </trkpt>
      <trkpt lat="41.649559020996094" lon="2.0122573375701904">
        <ele>993.2888793945313</ele>
        <time>2018-11-25T11:53:12Z</time>
      </trkpt>
      <trkpt lat="41.64960479736328" lon="2.012268304824829">
        <ele>993.2888793945313</ele>
        <time>2018-11-25T11:53:18Z</time>
      </trkpt>
      <trkpt lat="41.649662017822266" lon="2.012265682220459">
        <ele>992.1070556640625</ele>
        <time>2018-11-25T11:53:26Z</time>
      </trkpt>
      <trkpt lat="41.649723052978516" lon="2.0122950077056885">
        <ele>990.8343505859375</ele>
        <time>2018-11-25T11:53:32Z</time>
      </trkpt>
      <trkpt lat="41.64977264404297" lon="2.0122883319854736">
        <ele>989.6525268554688</ele>
        <time>2018-11-25T11:53:37Z</time>
      </trkpt>
      <trkpt lat="41.64982223510742" lon="2.012270927429199">
        <ele>989.6525268554688</ele>
        <time>2018-11-25T11:53:42Z</time>
      </trkpt>
      <trkpt lat="41.64987564086914" lon="2.012230396270752">
        <ele>989.6525268554688</ele>
        <time>2018-11-25T11:53:47Z</time>
      </trkpt>
      <trkpt lat="41.64992141723633" lon="2.0122156143188477">
        <ele>988.470703125</ele>
        <time>2018-11-25T11:53:52Z</time>
      </trkpt>
      <trkpt lat="41.64997863769531" lon="2.0122032165527344">
        <ele>988.470703125</ele>
        <time>2018-11-25T11:53:57Z</time>
      </trkpt>
      <trkpt lat="41.6500244140625" lon="2.012223720550537">
        <ele>988.470703125</ele>
        <time>2018-11-25T11:54:01Z</time>
      </trkpt>
      <trkpt lat="41.65007781982422" lon="2.0121994018554688">
        <ele>988.470703125</ele>
        <time>2018-11-25T11:54:07Z</time>
      </trkpt>
      <trkpt lat="41.65012741088867" lon="2.012190341949463">
        <ele>988.470703125</ele>
        <time>2018-11-25T11:54:15Z</time>
      </trkpt>
      <trkpt lat="41.65018081665039" lon="2.0121967792510986">
        <ele>988.470703125</ele>
        <time>2018-11-25T11:54:20Z</time>
      </trkpt>
      <trkpt lat="41.65023422241211" lon="2.012209415435791">
        <ele>988.470703125</ele>
        <time>2018-11-25T11:54:27Z</time>
      </trkpt>
      <trkpt lat="41.6502799987793" lon="2.012208938598633">
        <ele>988.470703125</ele>
        <time>2018-11-25T11:54:32Z</time>
      </trkpt>
      <trkpt lat="41.65034103393555" lon="2.012209415435791">
        <ele>988.470703125</ele>
        <time>2018-11-25T11:54:39Z</time>
      </trkpt>
      <trkpt lat="41.650394439697266" lon="2.0122013092041016">
        <ele>987.2888793945313</ele>
        <time>2018-11-25T11:54:44Z</time>
      </trkpt>
      <trkpt lat="41.650447845458984" lon="2.0121872425079346">
        <ele>986.1070556640625</ele>
        <time>2018-11-25T11:54:47Z</time>
      </trkpt>
      <trkpt lat="41.6505012512207" lon="2.012162923812866">
        <ele>986.1070556640625</ele>
        <time>2018-11-25T11:54:51Z</time>
      </trkpt>
      <trkpt lat="41.650543212890625" lon="2.0121428966522217">
        <ele>986.1070556640625</ele>
        <time>2018-11-25T11:54:54Z</time>
      </trkpt>
      <trkpt lat="41.65061569213867" lon="2.0121068954467773">
        <ele>986.1070556640625</ele>
        <time>2018-11-25T11:54:59Z</time>
      </trkpt>
      <trkpt lat="41.650665283203125" lon="2.0120787620544434">
        <ele>986.1070556640625</ele>
        <time>2018-11-25T11:55:03Z</time>
      </trkpt>
      <trkpt lat="41.65071487426758" lon="2.012042760848999">
        <ele>986.1070556640625</ele>
        <time>2018-11-25T11:55:08Z</time>
      </trkpt>
      <trkpt lat="41.65076446533203" lon="2.0120036602020264">
        <ele>986.1070556640625</ele>
        <time>2018-11-25T11:55:13Z</time>
      </trkpt>
      <trkpt lat="41.65082550048828" lon="2.011967897415161">
        <ele>986.1070556640625</ele>
        <time>2018-11-25T11:55:18Z</time>
      </trkpt>
      <trkpt lat="41.650875091552734" lon="2.0119593143463135">
        <ele>986.1070556640625</ele>
        <time>2018-11-25T11:55:23Z</time>
      </trkpt>
      <trkpt lat="41.650909423828125" lon="2.0119268894195557">
        <ele>986.1070556640625</ele>
        <time>2018-11-25T11:55:30Z</time>
      </trkpt>
      <trkpt lat="41.65098190307617" lon="2.0118908882141113">
        <ele>986.1070556640625</ele>
        <time>2018-11-25T11:55:37Z</time>
      </trkpt>
      <trkpt lat="41.651023864746094" lon="2.0118930339813232">
        <ele>986.1070556640625</ele>
        <time>2018-11-25T11:55:41Z</time>
      </trkpt>
      <trkpt lat="41.65108871459961" lon="2.011904001235962">
        <ele>986.1070556640625</ele>
        <time>2018-11-25T11:55:47Z</time>
      </trkpt>
      <trkpt lat="41.65114974975586" lon="2.011887311935425">
        <ele>986.1070556640625</ele>
        <time>2018-11-25T11:55:52Z</time>
      </trkpt>
      <trkpt lat="41.65119552612305" lon="2.011863946914673">
        <ele>986.1070556640625</ele>
        <time>2018-11-25T11:55:57Z</time>
      </trkpt>
      <trkpt lat="41.6512451171875" lon="2.0118343830108643">
        <ele>986.1070556640625</ele>
        <time>2018-11-25T11:56:01Z</time>
      </trkpt>
      <trkpt lat="41.65129470825195" lon="2.011793375015259">
        <ele>986.1070556640625</ele>
        <time>2018-11-25T11:56:05Z</time>
      </trkpt>
      <trkpt lat="41.65134048461914" lon="2.0117785930633545">
        <ele>986.1070556640625</ele>
        <time>2018-11-25T11:56:10Z</time>
      </trkpt>
      <trkpt lat="41.651390075683594" lon="2.0117452144622803">
        <ele>987.2888793945313</ele>
        <time>2018-11-25T11:56:16Z</time>
      </trkpt>
      <trkpt lat="41.65143966674805" lon="2.0117087364196777">
        <ele>987.2888793945313</ele>
        <time>2018-11-25T11:56:20Z</time>
      </trkpt>
      <trkpt lat="41.6514892578125" lon="2.011683940887451">
        <ele>988.5615844726563</ele>
        <time>2018-11-25T11:56:24Z</time>
      </trkpt>
      <trkpt lat="41.65153121948242" lon="2.01164174079895">
        <ele>988.5615844726563</ele>
        <time>2018-11-25T11:56:28Z</time>
      </trkpt>
      <trkpt lat="41.65158462524414" lon="2.0116233825683594">
        <ele>989.743408203125</ele>
        <time>2018-11-25T11:56:32Z</time>
      </trkpt>
      <trkpt lat="41.65163040161133" lon="2.011582612991333">
        <ele>989.743408203125</ele>
        <time>2018-11-25T11:56:36Z</time>
      </trkpt>
      <trkpt lat="41.651676177978516" lon="2.0115573406219482">
        <ele>989.743408203125</ele>
        <time>2018-11-25T11:56:41Z</time>
      </trkpt>
      <trkpt lat="41.65176010131836" lon="2.011507034301758">
        <ele>990.9252319335938</ele>
        <time>2018-11-25T11:56:59Z</time>
      </trkpt>
      <trkpt lat="41.65179443359375" lon="2.0114636421203613">
        <ele>990.9252319335938</ele>
        <time>2018-11-25T11:57:05Z</time>
      </trkpt>
      <trkpt lat="41.65186309814453" lon="2.011420249938965">
        <ele>990.9252319335938</ele>
        <time>2018-11-25T11:57:10Z</time>
      </trkpt>
      <trkpt lat="41.651912689208984" lon="2.011385440826416">
        <ele>992.1070556640625</ele>
        <time>2018-11-25T11:57:14Z</time>
      </trkpt>
      <trkpt lat="41.65196990966797" lon="2.0113344192504883">
        <ele>992.1070556640625</ele>
        <time>2018-11-25T11:57:18Z</time>
      </trkpt>
      <trkpt lat="41.652008056640625" lon="2.0113067626953125">
        <ele>993.2888793945313</ele>
        <time>2018-11-25T11:57:21Z</time>
      </trkpt>
      <trkpt lat="41.652061462402344" lon="2.0112791061401367">
        <ele>993.2888793945313</ele>
        <time>2018-11-25T11:57:25Z</time>
      </trkpt>
      <trkpt lat="41.652103424072266" lon="2.0112507343292236">
        <ele>993.2888793945313</ele>
        <time>2018-11-25T11:57:30Z</time>
      </trkpt>
      <trkpt lat="41.652156829833984" lon="2.0112226009368896">
        <ele>993.2888793945313</ele>
        <time>2018-11-25T11:57:35Z</time>
      </trkpt>
      <trkpt lat="41.6522102355957" lon="2.0111992359161377">
        <ele>993.2888793945313</ele>
        <time>2018-11-25T11:57:41Z</time>
      </trkpt>
      <trkpt lat="41.652259826660156" lon="2.0111823081970215">
        <ele>994.470703125</ele>
        <time>2018-11-25T11:57:47Z</time>
      </trkpt>
      <trkpt lat="41.652313232421875" lon="2.0111615657806396">
        <ele>994.470703125</ele>
        <time>2018-11-25T11:57:52Z</time>
      </trkpt>
      <trkpt lat="41.652374267578125" lon="2.011143445968628">
        <ele>994.470703125</ele>
        <time>2018-11-25T11:58:00Z</time>
      </trkpt>
      <trkpt lat="41.652435302734375" lon="2.011132001876831">
        <ele>994.470703125</ele>
        <time>2018-11-25T11:58:04Z</time>
      </trkpt>
      <trkpt lat="41.652488708496094" lon="2.0111372470855713">
        <ele>995.6525268554688</ele>
        <time>2018-11-25T11:58:08Z</time>
      </trkpt>
      <trkpt lat="41.65254211425781" lon="2.011148691177368">
        <ele>995.6525268554688</ele>
        <time>2018-11-25T11:58:12Z</time>
      </trkpt>
      <trkpt lat="41.652591705322266" lon="2.011167287826538">
        <ele>996.8343505859375</ele>
        <time>2018-11-25T11:58:16Z</time>
      </trkpt>
      <trkpt lat="41.65264892578125" lon="2.0112156867980957">
        <ele>996.8343505859375</ele>
        <time>2018-11-25T11:58:20Z</time>
      </trkpt>
      <trkpt lat="41.6526985168457" lon="2.011241912841797">
        <ele>998.0161743164063</ele>
        <time>2018-11-25T11:58:24Z</time>
      </trkpt>
      <trkpt lat="41.65275955200195" lon="2.011256217956543">
        <ele>998.0161743164063</ele>
        <time>2018-11-25T11:58:28Z</time>
      </trkpt>
      <trkpt lat="41.65281677246094" lon="2.011265277862549">
        <ele>998.0161743164063</ele>
        <time>2018-11-25T11:58:32Z</time>
      </trkpt>
      <trkpt lat="41.652870178222656" lon="2.0112709999084473">
        <ele>998.0161743164063</ele>
        <time>2018-11-25T11:58:36Z</time>
      </trkpt>
      <trkpt lat="41.65291976928711" lon="2.0112602710723877">
        <ele>998.0161743164063</ele>
        <time>2018-11-25T11:58:41Z</time>
      </trkpt>
      <trkpt lat="41.65296936035156" lon="2.011232376098633">
        <ele>998.0161743164063</ele>
        <time>2018-11-25T11:58:49Z</time>
      </trkpt>
      <trkpt lat="41.65301513671875" lon="2.0112037658691406">
        <ele>998.0161743164063</ele>
        <time>2018-11-25T11:58:54Z</time>
      </trkpt>
      <trkpt lat="41.6530647277832" lon="2.01119065284729">
        <ele>998.0161743164063</ele>
        <time>2018-11-25T11:59:01Z</time>
      </trkpt>
      <trkpt lat="41.65312194824219" lon="2.011181116104126">
        <ele>998.0161743164063</ele>
        <time>2018-11-25T11:59:09Z</time>
      </trkpt>
      <trkpt lat="41.653175354003906" lon="2.0111703872680664">
        <ele>998.0161743164063</ele>
        <time>2018-11-25T11:59:15Z</time>
      </trkpt>
      <trkpt lat="41.65323257446289" lon="2.0111446380615234">
        <ele>998.0161743164063</ele>
        <time>2018-11-25T11:59:20Z</time>
      </trkpt>
      <trkpt lat="41.653282165527344" lon="2.011122226715088">
        <ele>996.7434692382813</ele>
        <time>2018-11-25T11:59:27Z</time>
      </trkpt>
      <trkpt lat="41.65333938598633" lon="2.0110878944396973">
        <ele>996.7434692382813</ele>
        <time>2018-11-25T11:59:33Z</time>
      </trkpt>
      <trkpt lat="41.653411865234375" lon="2.01104736328125">
        <ele>996.7434692382813</ele>
        <time>2018-11-25T11:59:41Z</time>
      </trkpt>
      <trkpt lat="41.653465270996094" lon="2.0110137462615967">
        <ele>995.5616455078125</ele>
        <time>2018-11-25T11:59:47Z</time>
      </trkpt>
      <trkpt lat="41.65352249145508" lon="2.0109827518463135">
        <ele>995.5616455078125</ele>
        <time>2018-11-25T11:59:51Z</time>
      </trkpt>
      <trkpt lat="41.653564453125" lon="2.0109217166900635">
        <ele>994.2889404296875</ele>
        <time>2018-11-25T11:59:56Z</time>
      </trkpt>
      <trkpt lat="41.653602600097656" lon="2.0108892917633057">
        <ele>994.2889404296875</ele>
        <time>2018-11-25T12:00:00Z</time>
      </trkpt>
      <trkpt lat="41.65364456176758" lon="2.010847568511963">
        <ele>993.0162353515625</ele>
        <time>2018-11-25T12:00:05Z</time>
      </trkpt>
      <trkpt lat="41.65370178222656" lon="2.0107839107513428">
        <ele>993.0162353515625</ele>
        <time>2018-11-25T12:00:11Z</time>
      </trkpt>
      <trkpt lat="41.65372085571289" lon="2.0107357501983643">
        <ele>991.7435302734375</ele>
        <time>2018-11-25T12:00:14Z</time>
      </trkpt>
      <trkpt lat="41.653751373291016" lon="2.0106756687164307">
        <ele>991.7435302734375</ele>
        <time>2018-11-25T12:00:20Z</time>
      </trkpt>
      <trkpt lat="41.65380096435547" lon="2.0106163024902344">
        <ele>990.5617065429688</ele>
        <time>2018-11-25T12:00:26Z</time>
      </trkpt>
      <trkpt lat="41.65385437011719" lon="2.0105819702148438">
        <ele>990.5617065429688</ele>
        <time>2018-11-25T12:00:30Z</time>
      </trkpt>
      <trkpt lat="41.65390396118164" lon="2.0105466842651367">
        <ele>990.5617065429688</ele>
        <time>2018-11-25T12:00:34Z</time>
      </trkpt>
      <trkpt lat="41.65395736694336" lon="2.0105180740356445">
        <ele>990.5617065429688</ele>
        <time>2018-11-25T12:00:39Z</time>
      </trkpt>
      <trkpt lat="41.653995513916016" lon="2.01054310798645">
        <ele>990.5617065429688</ele>
        <time>2018-11-25T12:00:43Z</time>
      </trkpt>
      <trkpt lat="41.654052734375" lon="2.0104973316192627">
        <ele>990.5617065429688</ele>
        <time>2018-11-25T12:00:50Z</time>
      </trkpt>
      <trkpt lat="41.65409469604492" lon="2.0104732513427734">
        <ele>990.5617065429688</ele>
        <time>2018-11-25T12:00:55Z</time>
      </trkpt>
      <trkpt lat="41.65414810180664" lon="2.010453224182129">
        <ele>990.5617065429688</ele>
        <time>2018-11-25T12:01:00Z</time>
      </trkpt>
      <trkpt lat="41.654205322265625" lon="2.0104386806488037">
        <ele>989.107177734375</ele>
        <time>2018-11-25T12:01:05Z</time>
      </trkpt>
      <trkpt lat="41.65425491333008" lon="2.0104384422302246">
        <ele>989.107177734375</ele>
        <time>2018-11-25T12:01:09Z</time>
      </trkpt>
      <trkpt lat="41.65430450439453" lon="2.0104477405548096">
        <ele>987.9253540039063</ele>
        <time>2018-11-25T12:01:15Z</time>
      </trkpt>
      <trkpt lat="41.654354095458984" lon="2.01043963432312">
        <ele>987.9253540039063</ele>
        <time>2018-11-25T12:01:21Z</time>
      </trkpt>
      <trkpt lat="41.65441131591797" lon="2.0104293823242188">
        <ele>987.9253540039063</ele>
        <time>2018-11-25T12:01:25Z</time>
      </trkpt>
      <trkpt lat="41.65447235107422" lon="2.0104172229766846">
        <ele>987.9253540039063</ele>
        <time>2018-11-25T12:01:31Z</time>
      </trkpt>
      <trkpt lat="41.654518127441406" lon="2.0104010105133057">
        <ele>987.9253540039063</ele>
        <time>2018-11-25T12:01:35Z</time>
      </trkpt>
      <trkpt lat="41.65456771850586" lon="2.010390043258667">
        <ele>989.107177734375</ele>
        <time>2018-11-25T12:01:39Z</time>
      </trkpt>
      <trkpt lat="41.65462112426758" lon="2.010380268096924">
        <ele>990.4708251953125</ele>
        <time>2018-11-25T12:01:44Z</time>
      </trkpt>
      <trkpt lat="41.65467071533203" lon="2.0104143619537354">
        <ele>991.6526489257813</ele>
        <time>2018-11-25T12:01:48Z</time>
      </trkpt>
      <trkpt lat="41.65472412109375" lon="2.0104076862335205">
        <ele>994.107177734375</ele>
        <time>2018-11-25T12:01:53Z</time>
      </trkpt>
      <trkpt lat="41.65478515625" lon="2.010392904281616">
        <ele>996.652587890625</ele>
        <time>2018-11-25T12:01:57Z</time>
      </trkpt>
      <trkpt lat="41.654842376708984" lon="2.010392904281616">
        <ele>999.1071166992188</ele>
        <time>2018-11-25T12:02:02Z</time>
      </trkpt>
      <trkpt lat="41.65489196777344" lon="2.0103960037231445">
        <ele>1000.2889404296875</ele>
        <time>2018-11-25T12:02:07Z</time>
      </trkpt>
      <trkpt lat="41.654937744140625" lon="2.010385274887085">
        <ele>1002.8343505859375</ele>
        <time>2018-11-25T12:02:15Z</time>
      </trkpt>
      <trkpt lat="41.65498733520508" lon="2.010348081588745">
        <ele>1004.0161743164063</ele>
        <time>2018-11-25T12:02:20Z</time>
      </trkpt>
      <trkpt lat="41.655025482177734" lon="2.0103156566619873">
        <ele>1005.197998046875</ele>
        <time>2018-11-25T12:02:26Z</time>
      </trkpt>
      <trkpt lat="41.65508270263672" lon="2.010317087173462">
        <ele>1006.3798217773438</ele>
        <time>2018-11-25T12:02:32Z</time>
      </trkpt>
      <trkpt lat="41.655128479003906" lon="2.0103349685668945">
        <ele>1008.92529296875</ele>
        <time>2018-11-25T12:02:42Z</time>
      </trkpt>
      <trkpt lat="41.6551399230957" lon="2.010287284851074">
        <ele>1008.92529296875</ele>
        <time>2018-11-25T12:02:52Z</time>
      </trkpt>
      <trkpt lat="41.65517044067383" lon="2.010227680206299">
        <ele>1008.92529296875</ele>
        <time>2018-11-25T12:03:02Z</time>
      </trkpt>
      <trkpt lat="41.655235290527344" lon="2.010258436203003">
        <ele>1011.92529296875</ele>
        <time>2018-11-25T12:03:18Z</time>
      </trkpt>
      <trkpt lat="41.6552848815918" lon="2.01025128364563">
        <ele>1014.7434692382813</ele>
        <time>2018-11-25T12:03:28Z</time>
      </trkpt>
      <trkpt lat="41.655330657958984" lon="2.0102016925811768">
        <ele>1017.197998046875</ele>
        <time>2018-11-25T12:03:52Z</time>
      </trkpt>
      <trkpt lat="41.65538024902344" lon="2.0102243423461914">
        <ele>1017.2888793945313</ele>
        <time>2018-11-25T12:04:04Z</time>
      </trkpt>
      <trkpt lat="41.65544128417969" lon="2.010206699371338">
        <ele>1018.470703125</ele>
        <time>2018-11-25T12:04:17Z</time>
      </trkpt>
      <trkpt lat="41.655487060546875" lon="2.010183572769165">
        <ele>1018.470703125</ele>
        <time>2018-11-25T12:04:25Z</time>
      </trkpt>
      <trkpt lat="41.65549087524414" lon="2.0101735591888428">
        <ele>1020.9252319335938</ele>
        <time>2018-11-25T12:04:58Z</time>
      </trkpt>
      <trkpt lat="41.655555725097656" lon="2.0101144313812256">
        <ele>1020.9252319335938</ele>
        <time>2018-11-25T12:05:01Z</time>
      </trkpt>
      <trkpt lat="41.65558624267578" lon="2.0101053714752197">
        <ele>1022.1070556640625</ele>
        <time>2018-11-25T12:05:04Z</time>
      </trkpt>
      <trkpt lat="41.65562057495117" lon="2.010166883468628">
        <ele>1023.2888793945313</ele>
        <time>2018-11-25T12:05:12Z</time>
      </trkpt>
      <trkpt lat="41.65565490722656" lon="2.0102193355560303">
        <ele>1023.2888793945313</ele>
        <time>2018-11-25T12:05:20Z</time>
      </trkpt>
      <trkpt lat="41.65570068359375" lon="2.010258674621582">
        <ele>1024.5616455078125</ele>
        <time>2018-11-25T12:05:30Z</time>
      </trkpt>
      <trkpt lat="41.65570068359375" lon="2.0103697776794434">
        <ele>1024.5616455078125</ele>
        <time>2018-11-25T12:06:07Z</time>
      </trkpt>
      <trkpt lat="41.65571975708008" lon="2.0104169845581055">
        <ele>1024.5616455078125</ele>
        <time>2018-11-25T12:06:12Z</time>
      </trkpt>
      <trkpt lat="41.65576934814453" lon="2.0104565620422363">
        <ele>1026.470703125</ele>
        <time>2018-11-25T12:06:19Z</time>
      </trkpt>
      <trkpt lat="41.65578842163086" lon="2.0104587078094482">
        <ele>1027.743408203125</ele>
        <time>2018-11-25T12:06:41Z</time>
      </trkpt>
      <trkpt lat="41.655845642089844" lon="2.0104384422302246">
        <ele>1027.743408203125</ele>
        <time>2018-11-25T12:06:45Z</time>
      </trkpt>
      <trkpt lat="41.655887603759766" lon="2.0104212760925293">
        <ele>1027.743408203125</ele>
        <time>2018-11-25T12:06:51Z</time>
      </trkpt>
      <trkpt lat="41.655941009521484" lon="2.010413408279419">
        <ele>1027.743408203125</ele>
        <time>2018-11-25T12:07:07Z</time>
      </trkpt>
      <trkpt lat="41.65597915649414" lon="2.010392665863037">
        <ele>1027.743408203125</ele>
        <time>2018-11-25T12:07:14Z</time>
      </trkpt>
      <trkpt lat="41.6559944152832" lon="2.010396718978882">
        <ele>1027.743408203125</ele>
        <time>2018-11-25T12:07:52Z</time>
      </trkpt>
      <trkpt lat="41.65606689453125" lon="2.010453701019287">
        <ele>1027.743408203125</ele>
        <time>2018-11-25T12:07:55Z</time>
      </trkpt>
      <trkpt lat="41.656097412109375" lon="2.0104610919952393">
        <ele>1026.288818359375</ele>
        <time>2018-11-25T12:07:59Z</time>
      </trkpt>
      <trkpt lat="41.65614318847656" lon="2.0104401111602783">
        <ele>1025.1070556640625</ele>
        <time>2018-11-25T12:08:09Z</time>
      </trkpt>
      <trkpt lat="41.65620040893555" lon="2.010430335998535">
        <ele>1025.1070556640625</ele>
        <time>2018-11-25T12:08:17Z</time>
      </trkpt>
      <trkpt lat="41.65625" lon="2.0103907585144043">
        <ele>1023.9252319335938</ele>
        <time>2018-11-25T12:08:24Z</time>
      </trkpt>
      <trkpt lat="41.65629577636719" lon="2.010356903076172">
        <ele>1023.9252319335938</ele>
        <time>2018-11-25T12:08:28Z</time>
      </trkpt>
      <trkpt lat="41.656341552734375" lon="2.0103187561035156">
        <ele>1022.743408203125</ele>
        <time>2018-11-25T12:08:32Z</time>
      </trkpt>
      <trkpt lat="41.656394958496094" lon="2.0102832317352295">
        <ele>1021.5615844726563</ele>
        <time>2018-11-25T12:08:37Z</time>
      </trkpt>
      <trkpt lat="41.65644836425781" lon="2.010253667831421">
        <ele>1021.5615844726563</ele>
        <time>2018-11-25T12:08:42Z</time>
      </trkpt>
      <trkpt lat="41.656497955322266" lon="2.0102312564849854">
        <ele>1021.5615844726563</ele>
        <time>2018-11-25T12:08:47Z</time>
      </trkpt>
      <trkpt lat="41.656558990478516" lon="2.010218620300293">
        <ele>1021.5615844726563</ele>
        <time>2018-11-25T12:08:52Z</time>
      </trkpt>
      <trkpt lat="41.6566047668457" lon="2.010218620300293">
        <ele>1021.5615844726563</ele>
        <time>2018-11-25T12:08:56Z</time>
      </trkpt>
      <trkpt lat="41.65665817260742" lon="2.010214328765869">
        <ele>1020.3797607421875</ele>
        <time>2018-11-25T12:09:01Z</time>
      </trkpt>
      <trkpt lat="41.65671157836914" lon="2.0102086067199707">
        <ele>1020.3797607421875</ele>
        <time>2018-11-25T12:09:06Z</time>
      </trkpt>
      <trkpt lat="41.65676498413086" lon="2.010207414627075">
        <ele>1020.3797607421875</ele>
        <time>2018-11-25T12:09:12Z</time>
      </trkpt>
      <trkpt lat="41.65681457519531" lon="2.010204315185547">
        <ele>1020.3797607421875</ele>
        <time>2018-11-25T12:09:17Z</time>
      </trkpt>
      <trkpt lat="41.656883239746094" lon="2.0101959705352783">
        <ele>1020.3797607421875</ele>
        <time>2018-11-25T12:09:23Z</time>
      </trkpt>
      <trkpt lat="41.65694046020508" lon="2.0101873874664307">
        <ele>1020.3797607421875</ele>
        <time>2018-11-25T12:09:27Z</time>
      </trkpt>
      <trkpt lat="41.65699005126953" lon="2.0101752281188965">
        <ele>1020.3797607421875</ele>
        <time>2018-11-25T12:09:31Z</time>
      </trkpt>
      <trkpt lat="41.657047271728516" lon="2.0101613998413086">
        <ele>1020.3797607421875</ele>
        <time>2018-11-25T12:09:35Z</time>
      </trkpt>
      <trkpt lat="41.6571044921875" lon="2.0101523399353027">
        <ele>1020.3797607421875</ele>
        <time>2018-11-25T12:09:39Z</time>
      </trkpt>
      <trkpt lat="41.65715789794922" lon="2.010145902633667">
        <ele>1020.3797607421875</ele>
        <time>2018-11-25T12:09:43Z</time>
      </trkpt>
      <trkpt lat="41.65720748901367" lon="2.01015305519104">
        <ele>1020.3797607421875</ele>
        <time>2018-11-25T12:09:49Z</time>
      </trkpt>
      <trkpt lat="41.65726089477539" lon="2.0101699829101563">
        <ele>1019.1979370117188</ele>
        <time>2018-11-25T12:09:53Z</time>
      </trkpt>
      <trkpt lat="41.657318115234375" lon="2.0101866722106934">
        <ele>1019.1979370117188</ele>
        <time>2018-11-25T12:09:57Z</time>
      </trkpt>
      <trkpt lat="41.65736770629883" lon="2.010202407836914">
        <ele>1018.01611328125</ele>
        <time>2018-11-25T12:10:01Z</time>
      </trkpt>
      <trkpt lat="41.657413482666016" lon="2.0102107524871826">
        <ele>1016.743408203125</ele>
        <time>2018-11-25T12:10:05Z</time>
      </trkpt>
      <trkpt lat="41.657474517822266" lon="2.0102128982543945">
        <ele>1016.743408203125</ele>
        <time>2018-11-25T12:10:10Z</time>
      </trkpt>
      <trkpt lat="41.657527923583984" lon="2.0102169513702393">
        <ele>1016.743408203125</ele>
        <time>2018-11-25T12:10:13Z</time>
      </trkpt>
      <trkpt lat="41.65758514404297" lon="2.0102362632751465">
        <ele>1016.743408203125</ele>
        <time>2018-11-25T12:10:18Z</time>
      </trkpt>
      <trkpt lat="41.65763854980469" lon="2.0102596282958984">
        <ele>1016.743408203125</ele>
        <time>2018-11-25T12:10:22Z</time>
      </trkpt>
      <trkpt lat="41.657684326171875" lon="2.0102853775024414">
        <ele>1016.743408203125</ele>
        <time>2018-11-25T12:10:27Z</time>
      </trkpt>
      <trkpt lat="41.657752990722656" lon="2.0103180408477783">
        <ele>1015.3797607421875</ele>
        <time>2018-11-25T12:10:32Z</time>
      </trkpt>
      <trkpt lat="41.657814025878906" lon="2.010326385498047">
        <ele>1014.1979370117188</ele>
        <time>2018-11-25T12:10:36Z</time>
      </trkpt>
      <trkpt lat="41.657867431640625" lon="2.010327100753784">
        <ele>1014.1979370117188</ele>
        <time>2018-11-25T12:10:40Z</time>
      </trkpt>
      <trkpt lat="41.65792465209961" lon="2.0103321075439453">
        <ele>1013.01611328125</ele>
        <time>2018-11-25T12:10:44Z</time>
      </trkpt>
      <trkpt lat="41.65799331665039" lon="2.0103325843811035">
        <ele>1013.01611328125</ele>
        <time>2018-11-25T12:10:50Z</time>
      </trkpt>
      <trkpt lat="41.65805435180664" lon="2.0103323459625244">
        <ele>1013.01611328125</ele>
        <time>2018-11-25T12:10:54Z</time>
      </trkpt>
      <trkpt lat="41.65811538696289" lon="2.010335683822632">
        <ele>1011.8342895507813</ele>
        <time>2018-11-25T12:11:00Z</time>
      </trkpt>
      <trkpt lat="41.65817642211914" lon="2.0103392601013184">
        <ele>1011.8342895507813</ele>
        <time>2018-11-25T12:11:04Z</time>
      </trkpt>
      <trkpt lat="41.65822982788086" lon="2.0103366374969482">
        <ele>1011.8342895507813</ele>
        <time>2018-11-25T12:11:08Z</time>
      </trkpt>
      <trkpt lat="41.65829086303711" lon="2.010334014892578">
        <ele>1010.6524658203125</ele>
        <time>2018-11-25T12:11:13Z</time>
      </trkpt>
      <trkpt lat="41.65831756591797" lon="2.0103759765625">
        <ele>1010.6524658203125</ele>
        <time>2018-11-25T12:11:17Z</time>
      </trkpt>
      <trkpt lat="41.65835952758789" lon="2.0104405879974365">
        <ele>1010.6524658203125</ele>
        <time>2018-11-25T12:11:22Z</time>
      </trkpt>
      <trkpt lat="41.65839385986328" lon="2.010493278503418">
        <ele>1009.3797607421875</ele>
        <time>2018-11-25T12:11:26Z</time>
      </trkpt>
      <trkpt lat="41.65843963623047" lon="2.0105552673339844">
        <ele>1008.01611328125</ele>
        <time>2018-11-25T12:11:31Z</time>
      </trkpt>
      <trkpt lat="41.65847396850586" lon="2.0106112957000732">
        <ele>1008.01611328125</ele>
        <time>2018-11-25T12:11:35Z</time>
      </trkpt>
      <trkpt lat="41.65852737426758" lon="2.0106582641601563">
        <ele>1006.8342895507813</ele>
        <time>2018-11-25T12:11:40Z</time>
      </trkpt>
      <trkpt lat="41.6585807800293" lon="2.010679244995117">
        <ele>1006.8342895507813</ele>
        <time>2018-11-25T12:11:44Z</time>
      </trkpt>
      <trkpt lat="41.65863037109375" lon="2.0106914043426514">
        <ele>1006.8342895507813</ele>
        <time>2018-11-25T12:11:48Z</time>
      </trkpt>
      <trkpt lat="41.65869140625" lon="2.010690927505493">
        <ele>1006.8342895507813</ele>
        <time>2018-11-25T12:11:53Z</time>
      </trkpt>
      <trkpt lat="41.65873718261719" lon="2.010671615600586">
        <ele>1006.8342895507813</ele>
        <time>2018-11-25T12:11:57Z</time>
      </trkpt>
      <trkpt lat="41.65878677368164" lon="2.01064395904541">
        <ele>1006.8342895507813</ele>
        <time>2018-11-25T12:12:03Z</time>
      </trkpt>
      <trkpt lat="41.65884017944336" lon="2.0106287002563477">
        <ele>1006.8342895507813</ele>
        <time>2018-11-25T12:12:07Z</time>
      </trkpt>
      <trkpt lat="41.658897399902344" lon="2.0106394290924072">
        <ele>1006.8342895507813</ele>
        <time>2018-11-25T12:12:11Z</time>
      </trkpt>
      <trkpt lat="41.65895462036133" lon="2.010648012161255">
        <ele>1006.8342895507813</ele>
        <time>2018-11-25T12:12:17Z</time>
      </trkpt>
      <trkpt lat="41.65901565551758" lon="2.0106658935546875">
        <ele>1006.8342895507813</ele>
        <time>2018-11-25T12:12:22Z</time>
      </trkpt>
      <trkpt lat="41.6590576171875" lon="2.010700225830078">
        <ele>1006.8342895507813</ele>
        <time>2018-11-25T12:12:26Z</time>
      </trkpt>
      <trkpt lat="41.65911102294922" lon="2.0107035636901855">
        <ele>1006.8342895507813</ele>
        <time>2018-11-25T12:12:32Z</time>
      </trkpt>
      <trkpt lat="41.6591682434082" lon="2.0107362270355225">
        <ele>1006.8342895507813</ele>
        <time>2018-11-25T12:12:37Z</time>
      </trkpt>
      <trkpt lat="41.65922546386719" lon="2.010754108428955">
        <ele>1008.01611328125</ele>
        <time>2018-11-25T12:12:41Z</time>
      </trkpt>
      <trkpt lat="41.659278869628906" lon="2.0107533931732178">
        <ele>1008.01611328125</ele>
        <time>2018-11-25T12:12:46Z</time>
      </trkpt>
      <trkpt lat="41.65932846069336" lon="2.010751247406006">
        <ele>1009.1979370117188</ele>
        <time>2018-11-25T12:12:50Z</time>
      </trkpt>
      <trkpt lat="41.659393310546875" lon="2.0107436180114746">
        <ele>1009.1979370117188</ele>
        <time>2018-11-25T12:12:55Z</time>
      </trkpt>
      <trkpt lat="41.65945053100586" lon="2.0107319355010986">
        <ele>1010.3797607421875</ele>
        <time>2018-11-25T12:12:59Z</time>
      </trkpt>
      <trkpt lat="41.65950012207031" lon="2.0107197761535645">
        <ele>1010.3797607421875</ele>
        <time>2018-11-25T12:13:03Z</time>
      </trkpt>
      <trkpt lat="41.65955352783203" lon="2.0107076168060303">
        <ele>1010.3797607421875</ele>
        <time>2018-11-25T12:13:07Z</time>
      </trkpt>
      <trkpt lat="41.65960693359375" lon="2.010704278945923">
        <ele>1010.3797607421875</ele>
        <time>2018-11-25T12:13:10Z</time>
      </trkpt>
      <trkpt lat="41.65965270996094" lon="2.01070237159729">
        <ele>1010.3797607421875</ele>
        <time>2018-11-25T12:13:14Z</time>
      </trkpt>
      <trkpt lat="41.65971755981445" lon="2.0107009410858154">
        <ele>1011.5615844726563</ele>
        <time>2018-11-25T12:13:20Z</time>
      </trkpt>
      <trkpt lat="41.65978240966797" lon="2.010695219039917">
        <ele>1011.5615844726563</ele>
        <time>2018-11-25T12:13:26Z</time>
      </trkpt>
      <trkpt lat="41.65983963012695" lon="2.0106823444366455">
        <ele>1011.5615844726563</ele>
        <time>2018-11-25T12:13:30Z</time>
      </trkpt>
      <trkpt lat="41.659889221191406" lon="2.0106515884399414">
        <ele>1011.5615844726563</ele>
        <time>2018-11-25T12:13:34Z</time>
      </trkpt>
      <trkpt lat="41.65995407104492" lon="2.010627269744873">
        <ele>1012.743408203125</ele>
        <time>2018-11-25T12:13:39Z</time>
      </trkpt>
      <trkpt lat="41.660003662109375" lon="2.0106213092803955">
        <ele>1012.743408203125</ele>
        <time>2018-11-25T12:13:42Z</time>
      </trkpt>
      <trkpt lat="41.66006088256836" lon="2.010617256164551">
        <ele>1012.743408203125</ele>
        <time>2018-11-25T12:13:46Z</time>
      </trkpt>
      <trkpt lat="41.66012191772461" lon="2.0106210708618164">
        <ele>1014.01611328125</ele>
        <time>2018-11-25T12:13:51Z</time>
      </trkpt>
      <trkpt lat="41.66018295288086" lon="2.010643243789673">
        <ele>1014.01611328125</ele>
        <time>2018-11-25T12:13:56Z</time>
      </trkpt>
      <trkpt lat="41.66023254394531" lon="2.010624647140503">
        <ele>1014.01611328125</ele>
        <time>2018-11-25T12:14:00Z</time>
      </trkpt>
      <trkpt lat="41.6602897644043" lon="2.010629653930664">
        <ele>1015.1979370117188</ele>
        <time>2018-11-25T12:14:06Z</time>
      </trkpt>
      <trkpt lat="41.66033935546875" lon="2.010632276535034">
        <ele>1015.1979370117188</ele>
        <time>2018-11-25T12:14:10Z</time>
      </trkpt>
      <trkpt lat="41.66039276123047" lon="2.0106260776519775">
        <ele>1016.3797607421875</ele>
        <time>2018-11-25T12:14:14Z</time>
      </trkpt>
      <trkpt lat="41.660457611083984" lon="2.0106146335601807">
        <ele>1016.3797607421875</ele>
        <time>2018-11-25T12:14:19Z</time>
      </trkpt>
      <trkpt lat="41.6605110168457" lon="2.010611057281494">
        <ele>1017.5615844726563</ele>
        <time>2018-11-25T12:14:23Z</time>
      </trkpt>
      <trkpt lat="41.66056823730469" lon="2.010603904724121">
        <ele>1017.5615844726563</ele>
        <time>2018-11-25T12:14:27Z</time>
      </trkpt>
      <trkpt lat="41.66061782836914" lon="2.010596990585327">
        <ele>1018.743408203125</ele>
        <time>2018-11-25T12:14:31Z</time>
      </trkpt>
      <trkpt lat="41.66067123413086" lon="2.0105926990509033">
        <ele>1020.2888793945313</ele>
        <time>2018-11-25T12:14:35Z</time>
      </trkpt>
      <trkpt lat="41.660736083984375" lon="2.010586977005005">
        <ele>1020.2888793945313</ele>
        <time>2018-11-25T12:14:40Z</time>
      </trkpt>
      <trkpt lat="41.66078567504883" lon="2.01058292388916">
        <ele>1021.5615844726563</ele>
        <time>2018-11-25T12:14:44Z</time>
      </trkpt>
      <trkpt lat="41.66083908081055" lon="2.0105860233306885">
        <ele>1022.743408203125</ele>
        <time>2018-11-25T12:14:50Z</time>
      </trkpt>
      <trkpt lat="41.6609001159668" lon="2.010601758956909">
        <ele>1022.743408203125</ele>
        <time>2018-11-25T12:14:56Z</time>
      </trkpt>
      <trkpt lat="41.660945892333984" lon="2.0106379985809326">
        <ele>1023.9252319335938</ele>
        <time>2018-11-25T12:15:02Z</time>
      </trkpt>
      <trkpt lat="41.660980224609375" lon="2.010730028152466">
        <ele>1025.1070556640625</ele>
        <time>2018-11-25T12:15:08Z</time>
      </trkpt>
      <trkpt lat="41.6609992980957" lon="2.0107719898223877">
        <ele>1026.3797607421875</ele>
        <time>2018-11-25T12:15:14Z</time>
      </trkpt>
      <trkpt lat="41.661048889160156" lon="2.010793685913086">
        <ele>1026.3797607421875</ele>
        <time>2018-11-25T12:15:49Z</time>
      </trkpt>
      <trkpt lat="41.66109848022461" lon="2.0108232498168945">
        <ele>1026.3797607421875</ele>
        <time>2018-11-25T12:15:54Z</time>
      </trkpt>
      <trkpt lat="41.661155700683594" lon="2.0108659267425537">
        <ele>1026.3797607421875</ele>
        <time>2018-11-25T12:16:00Z</time>
      </trkpt>
      <trkpt lat="41.661197662353516" lon="2.010911703109741">
        <ele>1026.3797607421875</ele>
        <time>2018-11-25T12:16:05Z</time>
      </trkpt>
      <trkpt lat="41.6612434387207" lon="2.0109610557556152">
        <ele>1026.3797607421875</ele>
        <time>2018-11-25T12:16:10Z</time>
      </trkpt>
      <trkpt lat="41.66129684448242" lon="2.0109798908233643">
        <ele>1026.3797607421875</ele>
        <time>2018-11-25T12:16:15Z</time>
      </trkpt>
      <trkpt lat="41.661338806152344" lon="2.010960102081299">
        <ele>1024.6524658203125</ele>
        <time>2018-11-25T12:16:21Z</time>
      </trkpt>
      <trkpt lat="41.66138458251953" lon="2.0109267234802246">
        <ele>1024.6524658203125</ele>
        <time>2018-11-25T12:16:26Z</time>
      </trkpt>
      <trkpt lat="41.66145324707031" lon="2.010840892791748">
        <ele>1023.3797607421875</ele>
        <time>2018-11-25T12:16:40Z</time>
      </trkpt>
      <trkpt lat="41.66149139404297" lon="2.010782241821289">
        <ele>1022.1979370117188</ele>
        <time>2018-11-25T12:16:48Z</time>
      </trkpt>
      <trkpt lat="41.661521911621094" lon="2.0107173919677734">
        <ele>1022.1979370117188</ele>
        <time>2018-11-25T12:16:53Z</time>
      </trkpt>
      <trkpt lat="41.66157913208008" lon="2.0107009410858154">
        <ele>1021.01611328125</ele>
        <time>2018-11-25T12:16:58Z</time>
      </trkpt>
      <trkpt lat="41.661624908447266" lon="2.0107169151306152">
        <ele>1021.01611328125</ele>
        <time>2018-11-25T12:17:02Z</time>
      </trkpt>
      <trkpt lat="41.661685943603516" lon="2.0107040405273438">
        <ele>1021.01611328125</ele>
        <time>2018-11-25T12:17:07Z</time>
      </trkpt>
      <trkpt lat="41.661746978759766" lon="2.0107109546661377">
        <ele>1021.01611328125</ele>
        <time>2018-11-25T12:17:11Z</time>
      </trkpt>
      <trkpt lat="41.661800384521484" lon="2.010711908340454">
        <ele>1021.01611328125</ele>
        <time>2018-11-25T12:17:15Z</time>
      </trkpt>
      <trkpt lat="41.6618537902832" lon="2.0107052326202393">
        <ele>1019.8342895507813</ele>
        <time>2018-11-25T12:17:20Z</time>
      </trkpt>
      <trkpt lat="41.661903381347656" lon="2.0106983184814453">
        <ele>1019.8342895507813</ele>
        <time>2018-11-25T12:17:24Z</time>
      </trkpt>
      <trkpt lat="41.66196823120117" lon="2.0106964111328125">
        <ele>1019.8342895507813</ele>
        <time>2018-11-25T12:17:30Z</time>
      </trkpt>
      <trkpt lat="41.662025451660156" lon="2.0106935501098633">
        <ele>1019.8342895507813</ele>
        <time>2018-11-25T12:17:34Z</time>
      </trkpt>
      <trkpt lat="41.66208267211914" lon="2.0106890201568604">
        <ele>1019.8342895507813</ele>
        <time>2018-11-25T12:17:38Z</time>
      </trkpt>
      <trkpt lat="41.66212844848633" lon="2.0106799602508545">
        <ele>1019.8342895507813</ele>
        <time>2018-11-25T12:17:42Z</time>
      </trkpt>
      <trkpt lat="41.66218566894531" lon="2.0106687545776367">
        <ele>1019.8342895507813</ele>
        <time>2018-11-25T12:17:46Z</time>
      </trkpt>
      <trkpt lat="41.662235260009766" lon="2.0106606483459473">
        <ele>1018.4706420898438</ele>
        <time>2018-11-25T12:17:50Z</time>
      </trkpt>
      <trkpt lat="41.662296295166016" lon="2.010648012161255">
        <ele>1018.4706420898438</ele>
        <time>2018-11-25T12:17:55Z</time>
      </trkpt>
      <trkpt lat="41.662349700927734" lon="2.0106356143951416">
        <ele>1017.288818359375</ele>
        <time>2018-11-25T12:17:59Z</time>
      </trkpt>
      <trkpt lat="41.66240692138672" lon="2.01062273979187">
        <ele>1016.1069946289063</ele>
        <time>2018-11-25T12:18:03Z</time>
      </trkpt>
      <trkpt lat="41.662471771240234" lon="2.010610342025757">
        <ele>1016.1069946289063</ele>
        <time>2018-11-25T12:18:07Z</time>
      </trkpt>
      <trkpt lat="41.66252899169922" lon="2.0106005668640137">
        <ele>1016.1069946289063</ele>
        <time>2018-11-25T12:18:11Z</time>
      </trkpt>
      <trkpt lat="41.66258239746094" lon="2.0106000900268555">
        <ele>1016.1069946289063</ele>
        <time>2018-11-25T12:18:16Z</time>
      </trkpt>
      <trkpt lat="41.66264343261719" lon="2.010601282119751">
        <ele>1014.9251708984375</ele>
        <time>2018-11-25T12:18:21Z</time>
      </trkpt>
      <trkpt lat="41.66269302368164" lon="2.0105843544006348">
        <ele>1014.9251708984375</ele>
        <time>2018-11-25T12:18:25Z</time>
      </trkpt>
      <trkpt lat="41.66274642944336" lon="2.0105526447296143">
        <ele>1014.9251708984375</ele>
        <time>2018-11-25T12:18:31Z</time>
      </trkpt>
      <trkpt lat="41.66279220581055" lon="2.010528087615967">
        <ele>1014.9251708984375</ele>
        <time>2018-11-25T12:18:35Z</time>
      </trkpt>
      <trkpt lat="41.662845611572266" lon="2.0105233192443848">
        <ele>1014.9251708984375</ele>
        <time>2018-11-25T12:18:39Z</time>
      </trkpt>
      <trkpt lat="41.66290283203125" lon="2.01052188873291">
        <ele>1014.9251708984375</ele>
        <time>2018-11-25T12:18:43Z</time>
      </trkpt>
      <trkpt lat="41.662960052490234" lon="2.0105180740356445">
        <ele>1013.7433471679688</ele>
        <time>2018-11-25T12:18:47Z</time>
      </trkpt>
      <trkpt lat="41.66301727294922" lon="2.010504961013794">
        <ele>1013.7433471679688</ele>
        <time>2018-11-25T12:18:51Z</time>
      </trkpt>
      <trkpt lat="41.66306686401367" lon="2.0104939937591553">
        <ele>1013.7433471679688</ele>
        <time>2018-11-25T12:18:55Z</time>
      </trkpt>
      <trkpt lat="41.663124084472656" lon="2.0104711055755615">
        <ele>1013.7433471679688</ele>
        <time>2018-11-25T12:19:00Z</time>
      </trkpt>
      <trkpt lat="41.663169860839844" lon="2.010451316833496">
        <ele>1012.4706420898438</ele>
        <time>2018-11-25T12:19:03Z</time>
      </trkpt>
      <trkpt lat="41.66323471069336" lon="2.010423421859741">
        <ele>1012.4706420898438</ele>
        <time>2018-11-25T12:19:09Z</time>
      </trkpt>
      <trkpt lat="41.663291931152344" lon="2.010380983352661">
        <ele>1012.4706420898438</ele>
        <time>2018-11-25T12:19:13Z</time>
      </trkpt>
      <trkpt lat="41.6633415222168" lon="2.010331392288208">
        <ele>1012.4706420898438</ele>
        <time>2018-11-25T12:19:17Z</time>
      </trkpt>
      <trkpt lat="41.663387298583984" lon="2.010314702987671">
        <ele>1012.4706420898438</ele>
        <time>2018-11-25T12:19:21Z</time>
      </trkpt>
      <trkpt lat="41.66344451904297" lon="2.0103015899658203">
        <ele>1012.4706420898438</ele>
        <time>2018-11-25T12:19:25Z</time>
      </trkpt>
      <trkpt lat="41.663490295410156" lon="2.010279893875122">
        <ele>1012.4706420898438</ele>
        <time>2018-11-25T12:19:29Z</time>
      </trkpt>
      <trkpt lat="41.66353988647461" lon="2.0102410316467285">
        <ele>1012.4706420898438</ele>
        <time>2018-11-25T12:19:33Z</time>
      </trkpt>
      <trkpt lat="41.66358184814453" lon="2.010206937789917">
        <ele>1012.4706420898438</ele>
        <time>2018-11-25T12:19:37Z</time>
      </trkpt>
      <trkpt lat="41.663631439208984" lon="2.010157346725464">
        <ele>1012.4706420898438</ele>
        <time>2018-11-25T12:19:42Z</time>
      </trkpt>
      <trkpt lat="41.6636848449707" lon="2.0101115703582764">
        <ele>1012.4706420898438</ele>
        <time>2018-11-25T12:19:47Z</time>
      </trkpt>
      <trkpt lat="41.663734436035156" lon="2.0100700855255127">
        <ele>1012.4706420898438</ele>
        <time>2018-11-25T12:19:51Z</time>
      </trkpt>
      <trkpt lat="41.663780212402344" lon="2.010037660598755">
        <ele>1012.4706420898438</ele>
        <time>2018-11-25T12:19:55Z</time>
      </trkpt>
      <trkpt lat="41.66382598876953" lon="2.010000228881836">
        <ele>1012.4706420898438</ele>
        <time>2018-11-25T12:19:59Z</time>
      </trkpt>
      <trkpt lat="41.663875579833984" lon="2.00996470451355">
        <ele>1012.4706420898438</ele>
        <time>2018-11-25T12:20:03Z</time>
      </trkpt>
      <trkpt lat="41.66392135620117" lon="2.0099270343780518">
        <ele>1011.288818359375</ele>
        <time>2018-11-25T12:20:08Z</time>
      </trkpt>
      <trkpt lat="41.66396713256836" lon="2.0098824501037598">
        <ele>1011.288818359375</ele>
        <time>2018-11-25T12:20:12Z</time>
      </trkpt>
      <trkpt lat="41.66401672363281" lon="2.009843587875366">
        <ele>1010.01611328125</ele>
        <time>2018-11-25T12:20:17Z</time>
      </trkpt>
      <trkpt lat="41.66404724121094" lon="2.00976300239563">
        <ele>1010.01611328125</ele>
        <time>2018-11-25T12:20:22Z</time>
      </trkpt>
      <trkpt lat="41.664093017578125" lon="2.0097434520721436">
        <ele>1010.01611328125</ele>
        <time>2018-11-25T12:20:27Z</time>
      </trkpt>
      <trkpt lat="41.66413116455078" lon="2.009669303894043">
        <ele>1010.01611328125</ele>
        <time>2018-11-25T12:20:33Z</time>
      </trkpt>
      <trkpt lat="41.664161682128906" lon="2.0096182823181152">
        <ele>1010.01611328125</ele>
        <time>2018-11-25T12:20:37Z</time>
      </trkpt>
      <trkpt lat="41.664207458496094" lon="2.0095744132995605">
        <ele>1010.01611328125</ele>
        <time>2018-11-25T12:20:43Z</time>
      </trkpt>
      <trkpt lat="41.664249420166016" lon="2.009525775909424">
        <ele>1010.01611328125</ele>
        <time>2018-11-25T12:20:48Z</time>
      </trkpt>
      <trkpt lat="41.66429138183594" lon="2.009493112564087">
        <ele>1010.01611328125</ele>
        <time>2018-11-25T12:20:52Z</time>
      </trkpt>
      <trkpt lat="41.664337158203125" lon="2.0094404220581055">
        <ele>1008.4706420898438</ele>
        <time>2018-11-25T12:20:57Z</time>
      </trkpt>
      <trkpt lat="41.66439437866211" lon="2.0094032287597656">
        <ele>1008.4706420898438</ele>
        <time>2018-11-25T12:21:02Z</time>
      </trkpt>
      <trkpt lat="41.6644401550293" lon="2.0093793869018555">
        <ele>1008.4706420898438</ele>
        <time>2018-11-25T12:21:07Z</time>
      </trkpt>
      <trkpt lat="41.664485931396484" lon="2.0093441009521484">
        <ele>1008.4706420898438</ele>
        <time>2018-11-25T12:21:12Z</time>
      </trkpt>
      <trkpt lat="41.664527893066406" lon="2.009310245513916">
        <ele>1008.4706420898438</ele>
        <time>2018-11-25T12:21:16Z</time>
      </trkpt>
      <trkpt lat="41.664581298828125" lon="2.009260654449463">
        <ele>1008.4706420898438</ele>
        <time>2018-11-25T12:21:22Z</time>
      </trkpt>
      <trkpt lat="41.66460418701172" lon="2.00919508934021">
        <ele>1008.4706420898438</ele>
        <time>2018-11-25T12:21:26Z</time>
      </trkpt>
      <trkpt lat="41.66465377807617" lon="2.0091607570648193">
        <ele>1007.1069946289063</ele>
        <time>2018-11-25T12:21:33Z</time>
      </trkpt>
      <trkpt lat="41.664695739746094" lon="2.009112596511841">
        <ele>1005.9251708984375</ele>
        <time>2018-11-25T12:21:37Z</time>
      </trkpt>
      <trkpt lat="41.664737701416016" lon="2.0090672969818115">
        <ele>1004.7433471679688</ele>
        <time>2018-11-25T12:21:41Z</time>
      </trkpt>
      <trkpt lat="41.6647834777832" lon="2.0090243816375732">
        <ele>1004.7433471679688</ele>
        <time>2018-11-25T12:21:45Z</time>
      </trkpt>
      <trkpt lat="41.66483688354492" lon="2.0090057849884033">
        <ele>1003.4706420898438</ele>
        <time>2018-11-25T12:21:49Z</time>
      </trkpt>
      <trkpt lat="41.664894104003906" lon="2.0090103149414063">
        <ele>1003.4706420898438</ele>
        <time>2018-11-25T12:21:53Z</time>
      </trkpt>
      <trkpt lat="41.66495132446289" lon="2.0090184211730957">
        <ele>1002.288818359375</ele>
        <time>2018-11-25T12:21:58Z</time>
      </trkpt>
      <trkpt lat="41.66501235961914" lon="2.009016275405884">
        <ele>1002.288818359375</ele>
        <time>2018-11-25T12:22:03Z</time>
      </trkpt>
      <trkpt lat="41.665069580078125" lon="2.009018898010254">
        <ele>1001.1069946289063</ele>
        <time>2018-11-25T12:22:07Z</time>
      </trkpt>
      <trkpt lat="41.66511535644531" lon="2.0090255737304688">
        <ele>1001.1069946289063</ele>
        <time>2018-11-25T12:22:12Z</time>
      </trkpt>
      <trkpt lat="41.66518020629883" lon="2.009031057357788">
        <ele>999.8342895507813</ele>
        <time>2018-11-25T12:22:19Z</time>
      </trkpt>
      <trkpt lat="41.66522979736328" lon="2.009030342102051">
        <ele>999.8342895507813</ele>
        <time>2018-11-25T12:22:24Z</time>
      </trkpt>
      <trkpt lat="41.66527557373047" lon="2.0090646743774414">
        <ele>999.8342895507813</ele>
        <time>2018-11-25T12:22:30Z</time>
      </trkpt>
      <trkpt lat="41.66532516479492" lon="2.009092092514038">
        <ele>998.6524658203125</ele>
        <time>2018-11-25T12:22:34Z</time>
      </trkpt>
      <trkpt lat="41.665348052978516" lon="2.009153366088867">
        <ele>998.6524658203125</ele>
        <time>2018-11-25T12:22:38Z</time>
      </trkpt>
      <trkpt lat="41.66536331176758" lon="2.0092270374298096">
        <ele>998.6524658203125</ele>
        <time>2018-11-25T12:22:42Z</time>
      </trkpt>
      <trkpt lat="41.665374755859375" lon="2.009281635284424">
        <ele>998.6524658203125</ele>
        <time>2018-11-25T12:22:47Z</time>
      </trkpt>
      <trkpt lat="41.665401458740234" lon="2.0093517303466797">
        <ele>998.6524658203125</ele>
        <time>2018-11-25T12:22:52Z</time>
      </trkpt>
      <trkpt lat="41.66542053222656" lon="2.009413957595825">
        <ele>998.6524658203125</ele>
        <time>2018-11-25T12:22:56Z</time>
      </trkpt>
      <trkpt lat="41.66543960571289" lon="2.009479284286499">
        <ele>998.6524658203125</ele>
        <time>2018-11-25T12:23:01Z</time>
      </trkpt>
      <trkpt lat="41.66545486450195" lon="2.0095560550689697">
        <ele>998.6524658203125</ele>
        <time>2018-11-25T12:23:06Z</time>
      </trkpt>
      <trkpt lat="41.66546630859375" lon="2.0096359252929688">
        <ele>998.6524658203125</ele>
        <time>2018-11-25T12:23:10Z</time>
      </trkpt>
      <trkpt lat="41.66544723510742" lon="2.0097272396087646">
        <ele>997.4706420898438</ele>
        <time>2018-11-25T12:23:24Z</time>
      </trkpt>
      <trkpt lat="41.665462493896484" lon="2.0097970962524414">
        <ele>997.4706420898438</ele>
        <time>2018-11-25T12:23:28Z</time>
      </trkpt>
      <trkpt lat="41.66548156738281" lon="2.0098817348480225">
        <ele>997.4706420898438</ele>
        <time>2018-11-25T12:23:33Z</time>
      </trkpt>
      <trkpt lat="41.66551971435547" lon="2.0099289417266846">
        <ele>997.4706420898438</ele>
        <time>2018-11-25T12:23:38Z</time>
      </trkpt>
      <trkpt lat="41.66556930541992" lon="2.0099902153015137">
        <ele>997.4706420898438</ele>
        <time>2018-11-25T12:23:42Z</time>
      </trkpt>
      <trkpt lat="41.66560745239258" lon="2.0100457668304443">
        <ele>997.4706420898438</ele>
        <time>2018-11-25T12:23:46Z</time>
      </trkpt>
      <trkpt lat="41.665645599365234" lon="2.0100884437561035">
        <ele>996.1979370117188</ele>
        <time>2018-11-25T12:23:50Z</time>
      </trkpt>
      <trkpt lat="41.66569519042969" lon="2.010134696960449">
        <ele>996.1979370117188</ele>
        <time>2018-11-25T12:23:56Z</time>
      </trkpt>
      <trkpt lat="41.66572952270508" lon="2.01017427444458">
        <ele>995.01611328125</ele>
        <time>2018-11-25T12:24:00Z</time>
      </trkpt>
      <trkpt lat="41.6657600402832" lon="2.01023530960083">
        <ele>995.01611328125</ele>
        <time>2018-11-25T12:24:05Z</time>
      </trkpt>
      <trkpt lat="41.66580581665039" lon="2.0102837085723877">
        <ele>995.01611328125</ele>
        <time>2018-11-25T12:24:09Z</time>
      </trkpt>
      <trkpt lat="41.66584396362305" lon="2.010334014892578">
        <ele>995.01611328125</ele>
        <time>2018-11-25T12:24:13Z</time>
      </trkpt>
      <trkpt lat="41.6658821105957" lon="2.010395050048828">
        <ele>995.01611328125</ele>
        <time>2018-11-25T12:24:18Z</time>
      </trkpt>
      <trkpt lat="41.66592025756836" lon="2.0104353427886963">
        <ele>995.01611328125</ele>
        <time>2018-11-25T12:24:22Z</time>
      </trkpt>
      <trkpt lat="41.66596221923828" lon="2.0104782581329346">
        <ele>995.01611328125</ele>
        <time>2018-11-25T12:24:27Z</time>
      </trkpt>
      <trkpt lat="41.66599655151367" lon="2.0105226039886475">
        <ele>996.1979370117188</ele>
        <time>2018-11-25T12:24:32Z</time>
      </trkpt>
      <trkpt lat="41.66604995727539" lon="2.0105435848236084">
        <ele>996.1979370117188</ele>
        <time>2018-11-25T12:24:40Z</time>
      </trkpt>
      <trkpt lat="41.666107177734375" lon="2.0105643272399902">
        <ele>996.1979370117188</ele>
        <time>2018-11-25T12:24:45Z</time>
      </trkpt>
      <trkpt lat="41.66615295410156" lon="2.010590076446533">
        <ele>997.4706420898438</ele>
        <time>2018-11-25T12:24:48Z</time>
      </trkpt>
      <trkpt lat="41.66621398925781" lon="2.0105984210968018">
        <ele>997.4706420898438</ele>
        <time>2018-11-25T12:24:52Z</time>
      </trkpt>
      <trkpt lat="41.66626739501953" lon="2.0106143951416016">
        <ele>997.4706420898438</ele>
        <time>2018-11-25T12:24:56Z</time>
      </trkpt>
      <trkpt lat="41.666316986083984" lon="2.010634660720825">
        <ele>997.4706420898438</ele>
        <time>2018-11-25T12:25:00Z</time>
      </trkpt>
      <trkpt lat="41.666385650634766" lon="2.0106523036956787">
        <ele>997.4706420898438</ele>
        <time>2018-11-25T12:25:05Z</time>
      </trkpt>
      <trkpt lat="41.666446685791016" lon="2.010655403137207">
        <ele>997.4706420898438</ele>
        <time>2018-11-25T12:25:10Z</time>
      </trkpt>
      <trkpt lat="41.66649627685547" lon="2.010653257369995">
        <ele>996.288818359375</ele>
        <time>2018-11-25T12:25:13Z</time>
      </trkpt>
      <trkpt lat="41.66654586791992" lon="2.0106470584869385">
        <ele>996.288818359375</ele>
        <time>2018-11-25T12:25:17Z</time>
      </trkpt>
      <trkpt lat="41.6666145324707" lon="2.0106382369995117">
        <ele>996.288818359375</ele>
        <time>2018-11-25T12:25:22Z</time>
      </trkpt>
      <trkpt lat="41.66666793823242" lon="2.0106282234191895">
        <ele>995.1069946289063</ele>
        <time>2018-11-25T12:25:26Z</time>
      </trkpt>
      <trkpt lat="41.666725158691406" lon="2.0106143951416016">
        <ele>993.9251708984375</ele>
        <time>2018-11-25T12:25:30Z</time>
      </trkpt>
      <trkpt lat="41.66677474975586" lon="2.0105955600738525">
        <ele>992.7433471679688</ele>
        <time>2018-11-25T12:25:34Z</time>
      </trkpt>
      <trkpt lat="41.666831970214844" lon="2.0105628967285156">
        <ele>992.7433471679688</ele>
        <time>2018-11-25T12:25:39Z</time>
      </trkpt>
      <trkpt lat="41.66687774658203" lon="2.010526657104492">
        <ele>992.7433471679688</ele>
        <time>2018-11-25T12:25:43Z</time>
      </trkpt>
      <trkpt lat="41.666927337646484" lon="2.0104799270629883">
        <ele>991.5615234375</ele>
        <time>2018-11-25T12:25:48Z</time>
      </trkpt>
      <trkpt lat="41.66696548461914" lon="2.010408639907837">
        <ele>991.5615234375</ele>
        <time>2018-11-25T12:25:53Z</time>
      </trkpt>
      <trkpt lat="41.66698455810547" lon="2.0103657245635986">
        <ele>991.5615234375</ele>
        <time>2018-11-25T12:25:55Z</time>
      </trkpt>
      <trkpt lat="41.667022705078125" lon="2.010319709777832">
        <ele>991.5615234375</ele>
        <time>2018-11-25T12:25:59Z</time>
      </trkpt>
      <trkpt lat="41.66706848144531" lon="2.0102853775024414">
        <ele>991.5615234375</ele>
        <time>2018-11-25T12:26:04Z</time>
      </trkpt>
      <trkpt lat="41.6671257019043" lon="2.0102503299713135">
        <ele>991.5615234375</ele>
        <time>2018-11-25T12:26:09Z</time>
      </trkpt>
      <trkpt lat="41.667179107666016" lon="2.0102083683013916">
        <ele>991.5615234375</ele>
        <time>2018-11-25T12:26:14Z</time>
      </trkpt>
      <trkpt lat="41.667232513427734" lon="2.010179281234741">
        <ele>991.5615234375</ele>
        <time>2018-11-25T12:26:18Z</time>
      </trkpt>
      <trkpt lat="41.66728973388672" lon="2.0101969242095947">
        <ele>992.7433471679688</ele>
        <time>2018-11-25T12:26:22Z</time>
      </trkpt>
      <trkpt lat="41.66733169555664" lon="2.0101780891418457">
        <ele>992.7433471679688</ele>
        <time>2018-11-25T12:26:28Z</time>
      </trkpt>
      <trkpt lat="41.66740036010742" lon="2.010218381881714">
        <ele>992.7433471679688</ele>
        <time>2018-11-25T12:26:49Z</time>
      </trkpt>
      <trkpt lat="41.66745376586914" lon="2.010188579559326">
        <ele>992.7433471679688</ele>
        <time>2018-11-25T12:26:54Z</time>
      </trkpt>
      <trkpt lat="41.667510986328125" lon="2.0101449489593506">
        <ele>992.7433471679688</ele>
        <time>2018-11-25T12:26:58Z</time>
      </trkpt>
      <trkpt lat="41.66755676269531" lon="2.0101144313812256">
        <ele>992.7433471679688</ele>
        <time>2018-11-25T12:27:02Z</time>
      </trkpt>
      <trkpt lat="41.66761016845703" lon="2.010082721710205">
        <ele>992.7433471679688</ele>
        <time>2018-11-25T12:27:06Z</time>
      </trkpt>
      <trkpt lat="41.66765594482422" lon="2.0100529193878174">
        <ele>992.7433471679688</ele>
        <time>2018-11-25T12:27:10Z</time>
      </trkpt>
      <trkpt lat="41.66770935058594" lon="2.010016441345215">
        <ele>992.7433471679688</ele>
        <time>2018-11-25T12:27:15Z</time>
      </trkpt>
      <trkpt lat="41.667762756347656" lon="2.0099737644195557">
        <ele>992.7433471679688</ele>
        <time>2018-11-25T12:27:20Z</time>
      </trkpt>
      <trkpt lat="41.66781234741211" lon="2.0099294185638428">
        <ele>991.5615234375</ele>
        <time>2018-11-25T12:27:25Z</time>
      </trkpt>
      <trkpt lat="41.66786575317383" lon="2.009875774383545">
        <ele>991.5615234375</ele>
        <time>2018-11-25T12:27:30Z</time>
      </trkpt>
      <trkpt lat="41.66790771484375" lon="2.009838342666626">
        <ele>990.288818359375</ele>
        <time>2018-11-25T12:27:33Z</time>
      </trkpt>
      <trkpt lat="41.66794967651367" lon="2.0098049640655518">
        <ele>989.01611328125</ele>
        <time>2018-11-25T12:27:36Z</time>
      </trkpt>
      <trkpt lat="41.667991638183594" lon="2.0097644329071045">
        <ele>987.8342895507813</ele>
        <time>2018-11-25T12:27:40Z</time>
      </trkpt>
      <trkpt lat="41.66802978515625" lon="2.0096967220306396">
        <ele>986.6524658203125</ele>
        <time>2018-11-25T12:27:44Z</time>
      </trkpt>
      <trkpt lat="41.66807174682617" lon="2.0096523761749268">
        <ele>985.288818359375</ele>
        <time>2018-11-25T12:27:48Z</time>
      </trkpt>
      <trkpt lat="41.668113708496094" lon="2.0096073150634766">
        <ele>984.01611328125</ele>
        <time>2018-11-25T12:27:52Z</time>
      </trkpt>
      <trkpt lat="41.668155670166016" lon="2.0095622539520264">
        <ele>982.6524658203125</ele>
        <time>2018-11-25T12:27:57Z</time>
      </trkpt>
      <trkpt lat="41.66819381713867" lon="2.009507656097412">
        <ele>981.3797607421875</ele>
        <time>2018-11-25T12:28:02Z</time>
      </trkpt>
      <trkpt lat="41.668216705322266" lon="2.009439706802368">
        <ele>980.1979370117188</ele>
        <time>2018-11-25T12:28:06Z</time>
      </trkpt>
      <trkpt lat="41.66825866699219" lon="2.0093994140625">
        <ele>978.9252319335938</ele>
        <time>2018-11-25T12:28:11Z</time>
      </trkpt>
      <trkpt lat="41.66830825805664" lon="2.009387731552124">
        <ele>977.470703125</ele>
        <time>2018-11-25T12:28:17Z</time>
      </trkpt>
      <trkpt lat="41.668365478515625" lon="2.0093486309051514">
        <ele>976.2888793945313</ele>
        <time>2018-11-25T12:28:24Z</time>
      </trkpt>
      <trkpt lat="41.66841125488281" lon="2.0092926025390625">
        <ele>976.2888793945313</ele>
        <time>2018-11-25T12:28:31Z</time>
      </trkpt>
      <trkpt lat="41.66844940185547" lon="2.009263038635254">
        <ele>975.0161743164063</ele>
        <time>2018-11-25T12:28:38Z</time>
      </trkpt>
      <trkpt lat="41.66849899291992" lon="2.009234666824341">
        <ele>973.7434692382813</ele>
        <time>2018-11-25T12:28:44Z</time>
      </trkpt>
      <trkpt lat="41.66856002807617" lon="2.0092012882232666">
        <ele>972.5616455078125</ele>
        <time>2018-11-25T12:28:50Z</time>
      </trkpt>
      <trkpt lat="41.66861343383789" lon="2.009212017059326">
        <ele>972.5616455078125</ele>
        <time>2018-11-25T12:28:53Z</time>
      </trkpt>
      <trkpt lat="41.668663024902344" lon="2.00919508934021">
        <ele>972.5616455078125</ele>
        <time>2018-11-25T12:28:56Z</time>
      </trkpt>
      <trkpt lat="41.668724060058594" lon="2.009174346923828">
        <ele>971.3798217773438</ele>
        <time>2018-11-25T12:29:00Z</time>
      </trkpt>
      <trkpt lat="41.66877746582031" lon="2.0091586112976074">
        <ele>971.3798217773438</ele>
        <time>2018-11-25T12:29:04Z</time>
      </trkpt>
      <trkpt lat="41.668846130371094" lon="2.0091700553894043">
        <ele>971.3798217773438</ele>
        <time>2018-11-25T12:29:08Z</time>
      </trkpt>
      <trkpt lat="41.66889572143555" lon="2.0091776847839355">
        <ele>970.197998046875</ele>
        <time>2018-11-25T12:29:11Z</time>
      </trkpt>
      <trkpt lat="41.66896057128906" lon="2.0091922283172607">
        <ele>969.0161743164063</ele>
        <time>2018-11-25T12:29:15Z</time>
      </trkpt>
      <trkpt lat="41.669010162353516" lon="2.0091516971588135">
        <ele>969.0161743164063</ele>
        <time>2018-11-25T12:29:27Z</time>
      </trkpt>
      <trkpt lat="41.6690673828125" lon="2.009119987487793">
        <ele>967.8343505859375</ele>
        <time>2018-11-25T12:29:32Z</time>
      </trkpt>
      <trkpt lat="41.66912078857422" lon="2.0090959072113037">
        <ele>967.8343505859375</ele>
        <time>2018-11-25T12:29:36Z</time>
      </trkpt>
      <trkpt lat="41.66917037963867" lon="2.0090644359588623">
        <ele>966.470703125</ele>
        <time>2018-11-25T12:29:41Z</time>
      </trkpt>
      <trkpt lat="41.66922378540039" lon="2.0090272426605225">
        <ele>966.470703125</ele>
        <time>2018-11-25T12:29:46Z</time>
      </trkpt>
      <trkpt lat="41.669273376464844" lon="2.008998394012451">
        <ele>965.2888793945313</ele>
        <time>2018-11-25T12:29:50Z</time>
      </trkpt>
      <trkpt lat="41.66932678222656" lon="2.0089614391326904">
        <ele>965.2888793945313</ele>
        <time>2018-11-25T12:29:54Z</time>
      </trkpt>
      <trkpt lat="41.669368743896484" lon="2.008922576904297">
        <ele>965.2888793945313</ele>
        <time>2018-11-25T12:29:58Z</time>
      </trkpt>
      <trkpt lat="41.66941833496094" lon="2.008873224258423">
        <ele>964.1070556640625</ele>
        <time>2018-11-25T12:30:03Z</time>
      </trkpt>
      <trkpt lat="41.66946792602539" lon="2.0088202953338623">
        <ele>964.1070556640625</ele>
        <time>2018-11-25T12:30:09Z</time>
      </trkpt>
      <trkpt lat="41.66950988769531" lon="2.008749008178711">
        <ele>964.1070556640625</ele>
        <time>2018-11-25T12:30:13Z</time>
      </trkpt>
      <trkpt lat="41.6695556640625" lon="2.0087032318115234">
        <ele>962.9252319335938</ele>
        <time>2018-11-25T12:30:17Z</time>
      </trkpt>
      <trkpt lat="41.66959762573242" lon="2.008664608001709">
        <ele>961.743408203125</ele>
        <time>2018-11-25T12:30:21Z</time>
      </trkpt>
      <trkpt lat="41.66964340209961" lon="2.0086326599121094">
        <ele>961.743408203125</ele>
        <time>2018-11-25T12:30:25Z</time>
      </trkpt>
      <trkpt lat="41.66969299316406" lon="2.00860595703125">
        <ele>960.5615844726563</ele>
        <time>2018-11-25T12:30:29Z</time>
      </trkpt>
      <trkpt lat="41.669742584228516" lon="2.008575439453125">
        <ele>960.5615844726563</ele>
        <time>2018-11-25T12:30:34Z</time>
      </trkpt>
      <trkpt lat="41.6697883605957" lon="2.0085480213165283">
        <ele>959.3797607421875</ele>
        <time>2018-11-25T12:30:39Z</time>
      </trkpt>
      <trkpt lat="41.66984558105469" lon="2.008516311645508">
        <ele>959.3797607421875</ele>
        <time>2018-11-25T12:30:44Z</time>
      </trkpt>
      <trkpt lat="41.66989517211914" lon="2.0085177421569824">
        <ele>958.1979370117188</ele>
        <time>2018-11-25T12:30:48Z</time>
      </trkpt>
      <trkpt lat="41.669952392578125" lon="2.0085012912750244">
        <ele>957.01611328125</ele>
        <time>2018-11-25T12:30:53Z</time>
      </trkpt>
      <trkpt lat="41.670005798339844" lon="2.0084524154663086">
        <ele>957.01611328125</ele>
        <time>2018-11-25T12:30:58Z</time>
      </trkpt>
      <trkpt lat="41.670047760009766" lon="2.008406639099121">
        <ele>957.01611328125</ele>
        <time>2018-11-25T12:31:02Z</time>
      </trkpt>
      <trkpt lat="41.67007827758789" lon="2.008357286453247">
        <ele>955.8342895507813</ele>
        <time>2018-11-25T12:31:06Z</time>
      </trkpt>
      <trkpt lat="41.670143127441406" lon="2.0083117485046387">
        <ele>955.8342895507813</ele>
        <time>2018-11-25T12:31:17Z</time>
      </trkpt>
      <trkpt lat="41.670196533203125" lon="2.00830078125">
        <ele>954.6524658203125</ele>
        <time>2018-11-25T12:31:21Z</time>
      </trkpt>
      <trkpt lat="41.67024612426758" lon="2.0082852840423584">
        <ele>953.3797607421875</ele>
        <time>2018-11-25T12:31:25Z</time>
      </trkpt>
      <trkpt lat="41.670291900634766" lon="2.0082509517669678">
        <ele>953.3797607421875</ele>
        <time>2018-11-25T12:31:31Z</time>
      </trkpt>
      <trkpt lat="41.67033004760742" lon="2.0082039833068848">
        <ele>953.3797607421875</ele>
        <time>2018-11-25T12:31:38Z</time>
      </trkpt>
      <trkpt lat="41.670372009277344" lon="2.0081446170806885">
        <ele>952.1070556640625</ele>
        <time>2018-11-25T12:31:43Z</time>
      </trkpt>
      <trkpt lat="41.670413970947266" lon="2.0081000328063965">
        <ele>950.9252319335938</ele>
        <time>2018-11-25T12:31:47Z</time>
      </trkpt>
      <trkpt lat="41.67045974731445" lon="2.008066415786743">
        <ele>950.9252319335938</ele>
        <time>2018-11-25T12:31:51Z</time>
      </trkpt>
      <trkpt lat="41.67050552368164" lon="2.0080273151397705">
        <ele>950.9252319335938</ele>
        <time>2018-11-25T12:31:56Z</time>
      </trkpt>
      <trkpt lat="41.67054748535156" lon="2.007983446121216">
        <ele>950.9252319335938</ele>
        <time>2018-11-25T12:32:01Z</time>
      </trkpt>
      <trkpt lat="41.67059326171875" lon="2.0079023838043213">
        <ele>949.743408203125</ele>
        <time>2018-11-25T12:32:06Z</time>
      </trkpt>
      <trkpt lat="41.670589447021484" lon="2.0078370571136475">
        <ele>949.743408203125</ele>
        <time>2018-11-25T12:32:11Z</time>
      </trkpt>
      <trkpt lat="41.670616149902344" lon="2.0077743530273438">
        <ele>949.743408203125</ele>
        <time>2018-11-25T12:32:18Z</time>
      </trkpt>
      <trkpt lat="41.67057800292969" lon="2.007765769958496">
        <ele>949.743408203125</ele>
        <time>2018-11-25T12:32:24Z</time>
      </trkpt>
      <trkpt lat="41.67057418823242" lon="2.0077407360076904">
        <ele>949.743408203125</ele>
        <time>2018-11-25T12:32:36Z</time>
      </trkpt>
      <trkpt lat="41.670597076416016" lon="2.007672071456909">
        <ele>949.743408203125</ele>
        <time>2018-11-25T12:32:42Z</time>
      </trkpt>
      <trkpt lat="41.670623779296875" lon="2.0075979232788086">
        <ele>949.743408203125</ele>
        <time>2018-11-25T12:32:47Z</time>
      </trkpt>
      <trkpt lat="41.67060852050781" lon="2.0075271129608154">
        <ele>949.743408203125</ele>
        <time>2018-11-25T12:32:52Z</time>
      </trkpt>
      <trkpt lat="41.67058181762695" lon="2.0074567794799805">
        <ele>949.743408203125</ele>
        <time>2018-11-25T12:32:57Z</time>
      </trkpt>
      <trkpt lat="41.67055892944336" lon="2.0073933601379395">
        <ele>949.743408203125</ele>
        <time>2018-11-25T12:33:02Z</time>
      </trkpt>
      <trkpt lat="41.6705436706543" lon="2.007312297821045">
        <ele>949.743408203125</ele>
        <time>2018-11-25T12:33:07Z</time>
      </trkpt>
      <trkpt lat="41.6705436706543" lon="2.0072290897369385">
        <ele>949.743408203125</ele>
        <time>2018-11-25T12:33:11Z</time>
      </trkpt>
      <trkpt lat="41.6705436706543" lon="2.0071592330932617">
        <ele>949.743408203125</ele>
        <time>2018-11-25T12:33:14Z</time>
      </trkpt>
      <trkpt lat="41.6705436706543" lon="2.0070888996124268">
        <ele>948.5615844726563</ele>
        <time>2018-11-25T12:33:17Z</time>
      </trkpt>
      <trkpt lat="41.67054748535156" lon="2.007014751434326">
        <ele>948.5615844726563</ele>
        <time>2018-11-25T12:33:21Z</time>
      </trkpt>
      <trkpt lat="41.67055130004883" lon="2.0069503784179688">
        <ele>948.5615844726563</ele>
        <time>2018-11-25T12:33:24Z</time>
      </trkpt>
      <trkpt lat="41.67055892944336" lon="2.0068719387054443">
        <ele>947.2888793945313</ele>
        <time>2018-11-25T12:33:28Z</time>
      </trkpt>
      <trkpt lat="41.67056655883789" lon="2.0067873001098633">
        <ele>947.2888793945313</ele>
        <time>2018-11-25T12:33:33Z</time>
      </trkpt>
      <trkpt lat="41.670589447021484" lon="2.006718635559082">
        <ele>947.2888793945313</ele>
        <time>2018-11-25T12:33:37Z</time>
      </trkpt>
      <trkpt lat="41.67062759399414" lon="2.006657361984253">
        <ele>945.8343505859375</ele>
        <time>2018-11-25T12:33:41Z</time>
      </trkpt>
      <trkpt lat="41.67066955566406" lon="2.0066070556640625">
        <ele>945.8343505859375</ele>
        <time>2018-11-25T12:33:46Z</time>
      </trkpt>
      <trkpt lat="41.67070770263672" lon="2.006558656692505">
        <ele>945.8343505859375</ele>
        <time>2018-11-25T12:33:50Z</time>
      </trkpt>
      <trkpt lat="41.67074966430664" lon="2.0065109729766846">
        <ele>945.8343505859375</ele>
        <time>2018-11-25T12:33:54Z</time>
      </trkpt>
      <trkpt lat="41.67080307006836" lon="2.0064613819122314">
        <ele>945.8343505859375</ele>
        <time>2018-11-25T12:33:59Z</time>
      </trkpt>
      <trkpt lat="41.67084884643555" lon="2.0064148902893066">
        <ele>945.8343505859375</ele>
        <time>2018-11-25T12:34:04Z</time>
      </trkpt>
      <trkpt lat="41.670902252197266" lon="2.006359100341797">
        <ele>945.8343505859375</ele>
        <time>2018-11-25T12:34:09Z</time>
      </trkpt>
      <trkpt lat="41.67094802856445" lon="2.006314277648926">
        <ele>945.8343505859375</ele>
        <time>2018-11-25T12:34:14Z</time>
      </trkpt>
      <trkpt lat="41.67099380493164" lon="2.0062596797943115">
        <ele>945.8343505859375</ele>
        <time>2018-11-25T12:34:19Z</time>
      </trkpt>
      <trkpt lat="41.67103958129883" lon="2.006197214126587">
        <ele>947.0161743164063</ele>
        <time>2018-11-25T12:34:24Z</time>
      </trkpt>
      <trkpt lat="41.67105484008789" lon="2.006124973297119">
        <ele>947.0161743164063</ele>
        <time>2018-11-25T12:34:28Z</time>
      </trkpt>
      <trkpt lat="41.67106246948242" lon="2.006049633026123">
        <ele>947.0161743164063</ele>
        <time>2018-11-25T12:34:32Z</time>
      </trkpt>
      <trkpt lat="41.67105484008789" lon="2.005978584289551">
        <ele>947.0161743164063</ele>
        <time>2018-11-25T12:34:36Z</time>
      </trkpt>
      <trkpt lat="41.671051025390625" lon="2.005908250808716">
        <ele>947.0161743164063</ele>
        <time>2018-11-25T12:34:40Z</time>
      </trkpt>
      <trkpt lat="41.671043395996094" lon="2.0058300495147705">
        <ele>947.0161743164063</ele>
        <time>2018-11-25T12:34:44Z</time>
      </trkpt>
      <trkpt lat="41.67102813720703" lon="2.0057504177093506">
        <ele>947.0161743164063</ele>
        <time>2018-11-25T12:34:48Z</time>
      </trkpt>
      <trkpt lat="41.6710205078125" lon="2.0056755542755127">
        <ele>945.1070556640625</ele>
        <time>2018-11-25T12:34:52Z</time>
      </trkpt>
      <trkpt lat="41.6710090637207" lon="2.005587100982666">
        <ele>945.1070556640625</ele>
        <time>2018-11-25T12:34:57Z</time>
      </trkpt>
      <trkpt lat="41.67100524902344" lon="2.0055134296417236">
        <ele>943.9252319335938</ele>
        <time>2018-11-25T12:35:01Z</time>
      </trkpt>
      <trkpt lat="41.67100143432617" lon="2.0054376125335693">
        <ele>943.9252319335938</ele>
        <time>2018-11-25T12:35:05Z</time>
      </trkpt>
      <trkpt lat="41.67100524902344" lon="2.0053749084472656">
        <ele>942.743408203125</ele>
        <time>2018-11-25T12:35:09Z</time>
      </trkpt>
      <trkpt lat="41.67103958129883" lon="2.0053253173828125">
        <ele>942.743408203125</ele>
        <time>2018-11-25T12:35:13Z</time>
      </trkpt>
      <trkpt lat="41.67109298706055" lon="2.0052642822265625">
        <ele>941.5615844726563</ele>
        <time>2018-11-25T12:35:35Z</time>
      </trkpt>
      <trkpt lat="41.671142578125" lon="2.005220890045166">
        <ele>941.5615844726563</ele>
        <time>2018-11-25T12:35:39Z</time>
      </trkpt>
      <trkpt lat="41.67119598388672" lon="2.0051910877227783">
        <ele>941.5615844726563</ele>
        <time>2018-11-25T12:35:43Z</time>
      </trkpt>
      <trkpt lat="41.67124557495117" lon="2.005164623260498">
        <ele>940.2888793945313</ele>
        <time>2018-11-25T12:35:47Z</time>
      </trkpt>
      <trkpt lat="41.671287536621094" lon="2.0051393508911133">
        <ele>940.2888793945313</ele>
        <time>2018-11-25T12:35:51Z</time>
      </trkpt>
      <trkpt lat="41.671356201171875" lon="2.005101442337036">
        <ele>940.2888793945313</ele>
        <time>2018-11-25T12:35:56Z</time>
      </trkpt>
      <trkpt lat="41.67140579223633" lon="2.0050833225250244">
        <ele>940.2888793945313</ele>
        <time>2018-11-25T12:36:00Z</time>
      </trkpt>
      <trkpt lat="41.671451568603516" lon="2.005070447921753">
        <ele>939.0161743164063</ele>
        <time>2018-11-25T12:36:04Z</time>
      </trkpt>
      <trkpt lat="41.671512603759766" lon="2.0050482749938965">
        <ele>937.8343505859375</ele>
        <time>2018-11-25T12:36:09Z</time>
      </trkpt>
      <trkpt lat="41.671566009521484" lon="2.0050370693206787">
        <ele>937.8343505859375</ele>
        <time>2018-11-25T12:36:13Z</time>
      </trkpt>
      <trkpt lat="41.6716194152832" lon="2.005033254623413">
        <ele>937.8343505859375</ele>
        <time>2018-11-25T12:36:17Z</time>
      </trkpt>
      <trkpt lat="41.67169189453125" lon="2.005037784576416">
        <ele>936.6525268554688</ele>
        <time>2018-11-25T12:36:22Z</time>
      </trkpt>
      <trkpt lat="41.671749114990234" lon="2.005047559738159">
        <ele>936.6525268554688</ele>
        <time>2018-11-25T12:36:27Z</time>
      </trkpt>
      <trkpt lat="41.67180252075195" lon="2.0050623416900635">
        <ele>935.3798217773438</ele>
        <time>2018-11-25T12:36:31Z</time>
      </trkpt>
      <trkpt lat="41.671852111816406" lon="2.0050835609436035">
        <ele>935.3798217773438</ele>
        <time>2018-11-25T12:36:35Z</time>
      </trkpt>
      <trkpt lat="41.671897888183594" lon="2.0051074028015137">
        <ele>935.3798217773438</ele>
        <time>2018-11-25T12:36:39Z</time>
      </trkpt>
      <trkpt lat="41.671958923339844" lon="2.0051400661468506">
        <ele>935.3798217773438</ele>
        <time>2018-11-25T12:36:44Z</time>
      </trkpt>
      <trkpt lat="41.6720085144043" lon="2.0051684379577637">
        <ele>935.3798217773438</ele>
        <time>2018-11-25T12:36:48Z</time>
      </trkpt>
      <trkpt lat="41.67205810546875" lon="2.005199670791626">
        <ele>935.3798217773438</ele>
        <time>2018-11-25T12:36:52Z</time>
      </trkpt>
      <trkpt lat="41.6721305847168" lon="2.005237579345703">
        <ele>935.3798217773438</ele>
        <time>2018-11-25T12:36:57Z</time>
      </trkpt>
      <trkpt lat="41.672176361083984" lon="2.0052568912506104">
        <ele>935.3798217773438</ele>
        <time>2018-11-25T12:37:00Z</time>
      </trkpt>
      <trkpt lat="41.6722297668457" lon="2.0052216053009033">
        <ele>932.3798217773438</ele>
        <time>2018-11-25T12:37:04Z</time>
      </trkpt>
      <trkpt lat="41.67225646972656" lon="2.005168914794922">
        <ele>931.197998046875</ele>
        <time>2018-11-25T12:37:08Z</time>
      </trkpt>
      <trkpt lat="41.67230224609375" lon="2.005155324935913">
        <ele>929.92529296875</ele>
        <time>2018-11-25T12:37:53Z</time>
      </trkpt>
      <trkpt lat="41.672340393066406" lon="2.005095958709717">
        <ele>928.652587890625</ele>
        <time>2018-11-25T12:37:58Z</time>
      </trkpt>
      <trkpt lat="41.67237854003906" lon="2.0050554275512695">
        <ele>928.652587890625</ele>
        <time>2018-11-25T12:38:02Z</time>
      </trkpt>
      <trkpt lat="41.67242431640625" lon="2.005019426345825">
        <ele>927.3798828125</ele>
        <time>2018-11-25T12:38:07Z</time>
      </trkpt>
      <trkpt lat="41.6724739074707" lon="2.004986047744751">
        <ele>926.107177734375</ele>
        <time>2018-11-25T12:38:12Z</time>
      </trkpt>
      <trkpt lat="41.67251968383789" lon="2.0049595832824707">
        <ele>926.107177734375</ele>
        <time>2018-11-25T12:38:16Z</time>
      </trkpt>
      <trkpt lat="41.672569274902344" lon="2.004934549331665">
        <ele>924.7435302734375</ele>
        <time>2018-11-25T12:38:21Z</time>
      </trkpt>
      <trkpt lat="41.67262268066406" lon="2.004906415939331">
        <ele>924.7435302734375</ele>
        <time>2018-11-25T12:38:26Z</time>
      </trkpt>
      <trkpt lat="41.672672271728516" lon="2.0048792362213135">
        <ele>924.7435302734375</ele>
        <time>2018-11-25T12:38:32Z</time>
      </trkpt>
      <trkpt lat="41.6727180480957" lon="2.00484561920166">
        <ele>924.7435302734375</ele>
        <time>2018-11-25T12:38:38Z</time>
      </trkpt>
      <trkpt lat="41.67276382446289" lon="2.0048036575317383">
        <ele>923.5617065429688</ele>
        <time>2018-11-25T12:38:43Z</time>
      </trkpt>
      <trkpt lat="41.67280197143555" lon="2.0047264099121094">
        <ele>923.5617065429688</ele>
        <time>2018-11-25T12:38:48Z</time>
      </trkpt>
      <trkpt lat="41.672821044921875" lon="2.004664659500122">
        <ele>923.5617065429688</ele>
        <time>2018-11-25T12:38:52Z</time>
      </trkpt>
      <trkpt lat="41.6728630065918" lon="2.004601001739502">
        <ele>923.5617065429688</ele>
        <time>2018-11-25T12:38:57Z</time>
      </trkpt>
      <trkpt lat="41.672882080078125" lon="2.004530906677246">
        <ele>923.5617065429688</ele>
        <time>2018-11-25T12:39:02Z</time>
      </trkpt>
      <trkpt lat="41.6728515625" lon="2.0044753551483154">
        <ele>923.5617065429688</ele>
        <time>2018-11-25T12:39:07Z</time>
      </trkpt>
      <trkpt lat="41.67280578613281" lon="2.0044260025024414">
        <ele>923.5617065429688</ele>
        <time>2018-11-25T12:39:12Z</time>
      </trkpt>
      <trkpt lat="41.672760009765625" lon="2.004373550415039">
        <ele>923.5617065429688</ele>
        <time>2018-11-25T12:39:17Z</time>
      </trkpt>
      <trkpt lat="41.6727180480957" lon="2.0043132305145264">
        <ele>923.5617065429688</ele>
        <time>2018-11-25T12:39:22Z</time>
      </trkpt>
      <trkpt lat="41.67268371582031" lon="2.004258632659912">
        <ele>923.5617065429688</ele>
        <time>2018-11-25T12:39:26Z</time>
      </trkpt>
      <trkpt lat="41.67265319824219" lon="2.0042002201080322">
        <ele>923.5617065429688</ele>
        <time>2018-11-25T12:39:30Z</time>
      </trkpt>
      <trkpt lat="41.6726188659668" lon="2.004131555557251">
        <ele>924.8344116210938</ele>
        <time>2018-11-25T12:39:34Z</time>
      </trkpt>
      <trkpt lat="41.67259216308594" lon="2.0040650367736816">
        <ele>924.8344116210938</ele>
        <time>2018-11-25T12:39:39Z</time>
      </trkpt>
      <trkpt lat="41.672550201416016" lon="2.004016399383545">
        <ele>924.8344116210938</ele>
        <time>2018-11-25T12:39:44Z</time>
      </trkpt>
      <trkpt lat="41.672508239746094" lon="2.003997564315796">
        <ele>924.8344116210938</ele>
        <time>2018-11-25T12:39:47Z</time>
      </trkpt>
      <trkpt lat="41.672447204589844" lon="2.0039639472961426">
        <ele>924.8344116210938</ele>
        <time>2018-11-25T12:39:52Z</time>
      </trkpt>
      <trkpt lat="41.67239761352539" lon="2.003931999206543">
        <ele>923.5617065429688</ele>
        <time>2018-11-25T12:39:56Z</time>
      </trkpt>
      <trkpt lat="41.6723518371582" lon="2.003882884979248">
        <ele>923.5617065429688</ele>
        <time>2018-11-25T12:40:01Z</time>
      </trkpt>
      <trkpt lat="41.67231750488281" lon="2.003812551498413">
        <ele>923.5617065429688</ele>
        <time>2018-11-25T12:40:06Z</time>
      </trkpt>
      <trkpt lat="41.672298431396484" lon="2.0037500858306885">
        <ele>923.5617065429688</ele>
        <time>2018-11-25T12:40:09Z</time>
      </trkpt>
      <trkpt lat="41.67227554321289" lon="2.0036752223968506">
        <ele>923.5617065429688</ele>
        <time>2018-11-25T12:40:13Z</time>
      </trkpt>
      <trkpt lat="41.67226791381836" lon="2.003603935241699">
        <ele>923.5617065429688</ele>
        <time>2018-11-25T12:40:17Z</time>
      </trkpt>
      <trkpt lat="41.67226028442383" lon="2.00353741645813">
        <ele>924.7435302734375</ele>
        <time>2018-11-25T12:40:21Z</time>
      </trkpt>
      <trkpt lat="41.67229461669922" lon="2.003434896469116">
        <ele>924.7435302734375</ele>
        <time>2018-11-25T12:40:27Z</time>
      </trkpt>
      <trkpt lat="41.672332763671875" lon="2.0033679008483887">
        <ele>924.7435302734375</ele>
        <time>2018-11-25T12:40:31Z</time>
      </trkpt>
      <trkpt lat="41.67238235473633" lon="2.003321647644043">
        <ele>924.7435302734375</ele>
        <time>2018-11-25T12:40:35Z</time>
      </trkpt>
      <trkpt lat="41.67241668701172" lon="2.0032830238342285">
        <ele>925.9253540039063</ele>
        <time>2018-11-25T12:40:38Z</time>
      </trkpt>
      <trkpt lat="41.67245864868164" lon="2.0032076835632324">
        <ele>925.9253540039063</ele>
        <time>2018-11-25T12:40:44Z</time>
      </trkpt>
      <trkpt lat="41.672489166259766" lon="2.003141403198242">
        <ele>925.9253540039063</ele>
        <time>2018-11-25T12:40:49Z</time>
      </trkpt>
      <trkpt lat="41.672523498535156" lon="2.0030744075775146">
        <ele>925.9253540039063</ele>
        <time>2018-11-25T12:40:53Z</time>
      </trkpt>
      <trkpt lat="41.67251968383789" lon="2.002997636795044">
        <ele>925.9253540039063</ele>
        <time>2018-11-25T12:40:57Z</time>
      </trkpt>
      <trkpt lat="41.67249298095703" lon="2.0029306411743164">
        <ele>925.9253540039063</ele>
        <time>2018-11-25T12:41:02Z</time>
      </trkpt>
      <trkpt lat="41.672447204589844" lon="2.0028979778289795">
        <ele>925.9253540039063</ele>
        <time>2018-11-25T12:41:06Z</time>
      </trkpt>
      <trkpt lat="41.67239761352539" lon="2.0028676986694336">
        <ele>924.6526489257813</ele>
        <time>2018-11-25T12:41:10Z</time>
      </trkpt>
      <trkpt lat="41.67235565185547" lon="2.0028274059295654">
        <ele>924.6526489257813</ele>
        <time>2018-11-25T12:41:14Z</time>
      </trkpt>
      <trkpt lat="41.67230224609375" lon="2.0027732849121094">
        <ele>924.6526489257813</ele>
        <time>2018-11-25T12:41:19Z</time>
      </trkpt>
      <trkpt lat="41.67225646972656" lon="2.0027289390563965">
        <ele>923.3799438476563</ele>
        <time>2018-11-25T12:41:23Z</time>
      </trkpt>
      <trkpt lat="41.672218322753906" lon="2.00268292427063">
        <ele>923.3799438476563</ele>
        <time>2018-11-25T12:41:27Z</time>
      </trkpt>
      <trkpt lat="41.672203063964844" lon="2.002619981765747">
        <ele>922.1981201171875</ele>
        <time>2018-11-25T12:41:31Z</time>
      </trkpt>
      <trkpt lat="41.67219543457031" lon="2.0025479793548584">
        <ele>922.1981201171875</ele>
        <time>2018-11-25T12:41:35Z</time>
      </trkpt>
      <trkpt lat="41.67219543457031" lon="2.002470016479492">
        <ele>921.0162963867188</ele>
        <time>2018-11-25T12:41:39Z</time>
      </trkpt>
      <trkpt lat="41.67219543457031" lon="2.002401351928711">
        <ele>921.0162963867188</ele>
        <time>2018-11-25T12:41:43Z</time>
      </trkpt>
      <trkpt lat="41.67219924926758" lon="2.0023367404937744">
        <ele>921.0162963867188</ele>
        <time>2018-11-25T12:41:47Z</time>
      </trkpt>
      <trkpt lat="41.672210693359375" lon="2.002256393432617">
        <ele>921.0162963867188</ele>
        <time>2018-11-25T12:41:52Z</time>
      </trkpt>
      <trkpt lat="41.6722297668457" lon="2.0021867752075195">
        <ele>921.0162963867188</ele>
        <time>2018-11-25T12:41:56Z</time>
      </trkpt>
      <trkpt lat="41.672245025634766" lon="2.0021185874938965">
        <ele>921.0162963867188</ele>
        <time>2018-11-25T12:42:00Z</time>
      </trkpt>
      <trkpt lat="41.67226791381836" lon="2.002049446105957">
        <ele>921.0162963867188</ele>
        <time>2018-11-25T12:42:04Z</time>
      </trkpt>
      <trkpt lat="41.67229080200195" lon="2.0019876956939697">
        <ele>921.0162963867188</ele>
        <time>2018-11-25T12:42:08Z</time>
      </trkpt>
      <trkpt lat="41.67232131958008" lon="2.001919984817505">
        <ele>921.0162963867188</ele>
        <time>2018-11-25T12:42:13Z</time>
      </trkpt>
      <trkpt lat="41.672359466552734" lon="2.001842737197876">
        <ele>921.0162963867188</ele>
        <time>2018-11-25T12:42:18Z</time>
      </trkpt>
      <trkpt lat="41.67238998413086" lon="2.0017714500427246">
        <ele>921.0162963867188</ele>
        <time>2018-11-25T12:42:22Z</time>
      </trkpt>
      <trkpt lat="41.672401428222656" lon="2.0016989707946777">
        <ele>921.0162963867188</ele>
        <time>2018-11-25T12:42:26Z</time>
      </trkpt>
      <trkpt lat="41.67238998413086" lon="2.0016260147094727">
        <ele>922.3799438476563</ele>
        <time>2018-11-25T12:42:30Z</time>
      </trkpt>
      <trkpt lat="41.67237091064453" lon="2.0015556812286377">
        <ele>922.3799438476563</ele>
        <time>2018-11-25T12:42:34Z</time>
      </trkpt>
      <trkpt lat="41.67235565185547" lon="2.001478910446167">
        <ele>922.3799438476563</ele>
        <time>2018-11-25T12:42:39Z</time>
      </trkpt>
      <trkpt lat="41.672332763671875" lon="2.001410961151123">
        <ele>922.3799438476563</ele>
        <time>2018-11-25T12:42:44Z</time>
      </trkpt>
      <trkpt lat="41.67229080200195" lon="2.0013413429260254">
        <ele>923.561767578125</ele>
        <time>2018-11-25T12:42:49Z</time>
      </trkpt>
      <trkpt lat="41.67226028442383" lon="2.00127911567688">
        <ele>923.561767578125</ele>
        <time>2018-11-25T12:42:53Z</time>
      </trkpt>
      <trkpt lat="41.67223358154297" lon="2.0012240409851074">
        <ele>923.561767578125</ele>
        <time>2018-11-25T12:42:57Z</time>
      </trkpt>
      <trkpt lat="41.67219924926758" lon="2.0011703968048096">
        <ele>924.7435913085938</ele>
        <time>2018-11-25T12:43:01Z</time>
      </trkpt>
      <trkpt lat="41.672142028808594" lon="2.0011277198791504">
        <ele>924.7435913085938</ele>
        <time>2018-11-25T12:43:06Z</time>
      </trkpt>
      <trkpt lat="41.672088623046875" lon="2.001103639602661">
        <ele>924.7435913085938</ele>
        <time>2018-11-25T12:43:10Z</time>
      </trkpt>
      <trkpt lat="41.67203903198242" lon="2.001077651977539">
        <ele>924.7435913085938</ele>
        <time>2018-11-25T12:43:14Z</time>
      </trkpt>
      <trkpt lat="41.67198181152344" lon="2.0010673999786377">
        <ele>924.7435913085938</ele>
        <time>2018-11-25T12:43:18Z</time>
      </trkpt>
      <trkpt lat="41.67192077636719" lon="2.0010533332824707">
        <ele>924.7435913085938</ele>
        <time>2018-11-25T12:43:23Z</time>
      </trkpt>
      <trkpt lat="41.671852111816406" lon="2.001044273376465">
        <ele>924.7435913085938</ele>
        <time>2018-11-25T12:43:28Z</time>
      </trkpt>
      <trkpt lat="41.67180633544922" lon="2.001041889190674">
        <ele>924.7435913085938</ele>
        <time>2018-11-25T12:43:32Z</time>
      </trkpt>
      <trkpt lat="41.67174530029297" lon="2.00104022026062">
        <ele>924.7435913085938</ele>
        <time>2018-11-25T12:43:37Z</time>
      </trkpt>
      <trkpt lat="41.67169189453125" lon="2.001035451889038">
        <ele>924.7435913085938</ele>
        <time>2018-11-25T12:43:41Z</time>
      </trkpt>
      <trkpt lat="41.671630859375" lon="2.0010313987731934">
        <ele>924.7435913085938</ele>
        <time>2018-11-25T12:43:46Z</time>
      </trkpt>
      <trkpt lat="41.671573638916016" lon="2.0010225772857666">
        <ele>924.7435913085938</ele>
        <time>2018-11-25T12:43:51Z</time>
      </trkpt>
      <trkpt lat="41.6715202331543" lon="2.0010104179382324">
        <ele>924.7435913085938</ele>
        <time>2018-11-25T12:43:55Z</time>
      </trkpt>
      <trkpt lat="41.671485900878906" lon="2.0009377002716064">
        <ele>924.7435913085938</ele>
        <time>2018-11-25T12:43:59Z</time>
      </trkpt>
      <trkpt lat="41.671470642089844" lon="2.0008676052093506">
        <ele>924.7435913085938</ele>
        <time>2018-11-25T12:44:03Z</time>
      </trkpt>
      <trkpt lat="41.67146682739258" lon="2.000791072845459">
        <ele>924.7435913085938</ele>
        <time>2018-11-25T12:44:07Z</time>
      </trkpt>
      <trkpt lat="41.67146301269531" lon="2.000727891921997">
        <ele>924.7435913085938</ele>
        <time>2018-11-25T12:44:10Z</time>
      </trkpt>
      <trkpt lat="41.671470642089844" lon="2.000654935836792">
        <ele>924.7435913085938</ele>
        <time>2018-11-25T12:44:14Z</time>
      </trkpt>
      <trkpt lat="41.67148208618164" lon="2.0005762577056885">
        <ele>924.7435913085938</ele>
        <time>2018-11-25T12:44:19Z</time>
      </trkpt>
      <trkpt lat="41.67149353027344" lon="2.0005059242248535">
        <ele>924.7435913085938</ele>
        <time>2018-11-25T12:44:24Z</time>
      </trkpt>
      <trkpt lat="41.671504974365234" lon="2.000424385070801">
        <ele>924.7435913085938</ele>
        <time>2018-11-25T12:44:29Z</time>
      </trkpt>
      <trkpt lat="41.6715087890625" lon="2.000354766845703">
        <ele>924.7435913085938</ele>
        <time>2018-11-25T12:44:33Z</time>
      </trkpt>
      <trkpt lat="41.671504974365234" lon="2.0002715587615967">
        <ele>924.7435913085938</ele>
        <time>2018-11-25T12:44:38Z</time>
      </trkpt>
      <trkpt lat="41.67145919799805" lon="2.0002152919769287">
        <ele>925.9254150390625</ele>
        <time>2018-11-25T12:44:42Z</time>
      </trkpt>
      <trkpt lat="41.67142105102539" lon="2.0001583099365234">
        <ele>925.9254150390625</ele>
        <time>2018-11-25T12:44:46Z</time>
      </trkpt>
      <trkpt lat="41.67137145996094" lon="2.000113010406494">
        <ele>925.9254150390625</ele>
        <time>2018-11-25T12:44:50Z</time>
      </trkpt>
      <trkpt lat="41.67132568359375" lon="2.0000720024108887">
        <ele>927.1072387695313</ele>
        <time>2018-11-25T12:44:54Z</time>
      </trkpt>
      <trkpt lat="41.6712646484375" lon="2.000026226043701">
        <ele>927.1072387695313</ele>
        <time>2018-11-25T12:45:00Z</time>
      </trkpt>
      <trkpt lat="41.67121887207031" lon="1.9999973773956299">
        <ele>927.1072387695313</ele>
        <time>2018-11-25T12:45:04Z</time>
      </trkpt>
      <trkpt lat="41.67116928100586" lon="1.9999547004699707">
        <ele>927.1072387695313</ele>
        <time>2018-11-25T12:45:09Z</time>
      </trkpt>
      <trkpt lat="41.671119689941406" lon="1.9999196529388428">
        <ele>927.1072387695313</ele>
        <time>2018-11-25T12:45:13Z</time>
      </trkpt>
      <trkpt lat="41.67107391357422" lon="1.9998962879180908">
        <ele>927.1072387695313</ele>
        <time>2018-11-25T12:45:17Z</time>
      </trkpt>
      <trkpt lat="41.6710090637207" lon="1.9998689889907837">
        <ele>928.561767578125</ele>
        <time>2018-11-25T12:45:22Z</time>
      </trkpt>
      <trkpt lat="41.67095184326172" lon="1.999846339225769">
        <ele>928.561767578125</ele>
        <time>2018-11-25T12:45:27Z</time>
      </trkpt>
      <trkpt lat="41.67089080810547" lon="1.9998233318328857">
        <ele>928.561767578125</ele>
        <time>2018-11-25T12:45:32Z</time>
      </trkpt>
      <trkpt lat="41.67082977294922" lon="1.9997999668121338">
        <ele>928.561767578125</ele>
        <time>2018-11-25T12:45:37Z</time>
      </trkpt>
      <trkpt lat="41.670772552490234" lon="1.9997832775115967">
        <ele>928.561767578125</ele>
        <time>2018-11-25T12:45:41Z</time>
      </trkpt>
      <trkpt lat="41.67072296142578" lon="1.9997786283493042">
        <ele>928.561767578125</ele>
        <time>2018-11-25T12:45:45Z</time>
      </trkpt>
      <trkpt lat="41.670654296875" lon="1.9997726678848267">
        <ele>927.1981201171875</ele>
        <time>2018-11-25T12:45:50Z</time>
      </trkpt>
      <trkpt lat="41.67059326171875" lon="1.9997719526290894">
        <ele>926.0162963867188</ele>
        <time>2018-11-25T12:45:54Z</time>
      </trkpt>
      <trkpt lat="41.6705322265625" lon="1.999772310256958">
        <ele>926.0162963867188</ele>
        <time>2018-11-25T12:45:59Z</time>
      </trkpt>
      <trkpt lat="41.670475006103516" lon="1.9997626543045044">
        <ele>924.83447265625</ele>
        <time>2018-11-25T12:46:04Z</time>
      </trkpt>
      <trkpt lat="41.670440673828125" lon="1.9996836185455322">
        <ele>924.83447265625</ele>
        <time>2018-11-25T12:46:08Z</time>
      </trkpt>
      <trkpt lat="41.67043685913086" lon="1.9996260404586792">
        <ele>924.83447265625</ele>
        <time>2018-11-25T12:46:11Z</time>
      </trkpt>
      <trkpt lat="41.67045593261719" lon="1.9995557069778442">
        <ele>923.6526489257813</ele>
        <time>2018-11-25T12:46:15Z</time>
      </trkpt>
      <trkpt lat="41.67048645019531" lon="1.9994893074035645">
        <ele>923.6526489257813</ele>
        <time>2018-11-25T12:46:19Z</time>
      </trkpt>
      <trkpt lat="41.67052459716797" lon="1.9994276762008667">
        <ele>923.6526489257813</ele>
        <time>2018-11-25T12:46:23Z</time>
      </trkpt>
      <trkpt lat="41.670562744140625" lon="1.9993733167648315">
        <ele>923.6526489257813</ele>
        <time>2018-11-25T12:46:27Z</time>
      </trkpt>
      <trkpt lat="41.67060470581055" lon="1.9993120431900024">
        <ele>923.6526489257813</ele>
        <time>2018-11-25T12:46:31Z</time>
      </trkpt>
      <trkpt lat="41.67063522338867" lon="1.9992493391036987">
        <ele>923.6526489257813</ele>
        <time>2018-11-25T12:46:35Z</time>
      </trkpt>
      <trkpt lat="41.67066192626953" lon="1.9991860389709473">
        <ele>923.6526489257813</ele>
        <time>2018-11-25T12:46:39Z</time>
      </trkpt>
      <trkpt lat="41.670684814453125" lon="1.9991259574890137">
        <ele>923.6526489257813</ele>
        <time>2018-11-25T12:46:43Z</time>
      </trkpt>
      <trkpt lat="41.670711517333984" lon="1.999045968055725">
        <ele>923.6526489257813</ele>
        <time>2018-11-25T12:46:48Z</time>
      </trkpt>
      <trkpt lat="41.67073440551758" lon="1.9989750385284424">
        <ele>923.6526489257813</ele>
        <time>2018-11-25T12:46:52Z</time>
      </trkpt>
      <trkpt lat="41.670745849609375" lon="1.9989023208618164">
        <ele>923.6526489257813</ele>
        <time>2018-11-25T12:46:56Z</time>
      </trkpt>
      <trkpt lat="41.67072296142578" lon="1.998829960823059">
        <ele>923.6526489257813</ele>
        <time>2018-11-25T12:47:00Z</time>
      </trkpt>
      <trkpt lat="41.67070770263672" lon="1.9987529516220093">
        <ele>923.6526489257813</ele>
        <time>2018-11-25T12:47:05Z</time>
      </trkpt>
      <trkpt lat="41.67071533203125" lon="1.998661994934082">
        <ele>923.6526489257813</ele>
        <time>2018-11-25T12:47:10Z</time>
      </trkpt>
      <trkpt lat="41.670719146728516" lon="1.9985929727554321">
        <ele>922.3799438476563</ele>
        <time>2018-11-25T12:47:14Z</time>
      </trkpt>
      <trkpt lat="41.67072296142578" lon="1.9985170364379883">
        <ele>921.1981201171875</ele>
        <time>2018-11-25T12:47:18Z</time>
      </trkpt>
      <trkpt lat="41.67073059082031" lon="1.9984363317489624">
        <ele>921.1981201171875</ele>
        <time>2018-11-25T12:47:22Z</time>
      </trkpt>
      <trkpt lat="41.670745849609375" lon="1.9983586072921753">
        <ele>920.0162963867188</ele>
        <time>2018-11-25T12:47:26Z</time>
      </trkpt>
      <trkpt lat="41.67076110839844" lon="1.9982836246490479">
        <ele>918.7435913085938</ele>
        <time>2018-11-25T12:47:30Z</time>
      </trkpt>
      <trkpt lat="41.670772552490234" lon="1.9982173442840576">
        <ele>918.7435913085938</ele>
        <time>2018-11-25T12:47:34Z</time>
      </trkpt>
      <trkpt lat="41.67078399658203" lon="1.9981523752212524">
        <ele>917.561767578125</ele>
        <time>2018-11-25T12:47:38Z</time>
      </trkpt>
      <trkpt lat="41.67079162597656" lon="1.9980666637420654">
        <ele>916.3799438476563</ele>
        <time>2018-11-25T12:47:43Z</time>
      </trkpt>
      <trkpt lat="41.67079162597656" lon="1.997979998588562">
        <ele>915.0162963867188</ele>
        <time>2018-11-25T12:47:48Z</time>
      </trkpt>
      <trkpt lat="41.67078399658203" lon="1.997900366783142">
        <ele>913.6526489257813</ele>
        <time>2018-11-25T12:47:53Z</time>
      </trkpt>
      <trkpt lat="41.670772552490234" lon="1.9978270530700684">
        <ele>912.2890014648438</ele>
        <time>2018-11-25T12:47:57Z</time>
      </trkpt>
      <trkpt lat="41.670753479003906" lon="1.997756004333496">
        <ele>912.2890014648438</ele>
        <time>2018-11-25T12:48:01Z</time>
      </trkpt>
      <trkpt lat="41.67073059082031" lon="1.9976813793182373">
        <ele>910.9253540039063</ele>
        <time>2018-11-25T12:48:05Z</time>
      </trkpt>
      <trkpt lat="41.67070770263672" lon="1.99761164188385">
        <ele>909.7435302734375</ele>
        <time>2018-11-25T12:48:09Z</time>
      </trkpt>
      <trkpt lat="41.67068099975586" lon="1.9975416660308838">
        <ele>909.7435302734375</ele>
        <time>2018-11-25T12:48:13Z</time>
      </trkpt>
      <trkpt lat="41.670654296875" lon="1.9974696636199951">
        <ele>908.4708251953125</ele>
        <time>2018-11-25T12:48:17Z</time>
      </trkpt>
      <trkpt lat="41.67062759399414" lon="1.9973959922790527">
        <ele>907.2890014648438</ele>
        <time>2018-11-25T12:48:21Z</time>
      </trkpt>
      <trkpt lat="41.67060852050781" lon="1.9973219633102417">
        <ele>906.0162963867188</ele>
        <time>2018-11-25T12:48:25Z</time>
      </trkpt>
      <trkpt lat="41.670589447021484" lon="1.9972447156906128">
        <ele>904.83447265625</ele>
        <time>2018-11-25T12:48:30Z</time>
      </trkpt>
      <trkpt lat="41.67057800292969" lon="1.9971903562545776">
        <ele>903.2890014648438</ele>
        <time>2018-11-25T12:48:34Z</time>
      </trkpt>
      <trkpt lat="41.670555114746094" lon="1.997109055519104">
        <ele>901.83447265625</ele>
        <time>2018-11-25T12:48:41Z</time>
      </trkpt>
      <trkpt lat="41.6705322265625" lon="1.9970380067825317">
        <ele>900.6526489257813</ele>
        <time>2018-11-25T12:48:46Z</time>
      </trkpt>
      <trkpt lat="41.670509338378906" lon="1.9969696998596191">
        <ele>900.6526489257813</ele>
        <time>2018-11-25T12:48:50Z</time>
      </trkpt>
      <trkpt lat="41.67048645019531" lon="1.9969096183776855">
        <ele>899.3799438476563</ele>
        <time>2018-11-25T12:48:54Z</time>
      </trkpt>
      <trkpt lat="41.67045593261719" lon="1.9968353509902954">
        <ele>898.1072387695313</ele>
        <time>2018-11-25T12:48:59Z</time>
      </trkpt>
      <trkpt lat="41.67042922973633" lon="1.9967620372772217">
        <ele>898.1072387695313</ele>
        <time>2018-11-25T12:49:04Z</time>
      </trkpt>
      <trkpt lat="41.67039489746094" lon="1.9966816902160645">
        <ele>896.8345336914063</ele>
        <time>2018-11-25T12:49:09Z</time>
      </trkpt>
      <trkpt lat="41.670372009277344" lon="1.9966176748275757">
        <ele>894.2891235351563</ele>
        <time>2018-11-25T12:49:15Z</time>
      </trkpt>
      <trkpt lat="41.670352935791016" lon="1.996556043624878">
        <ele>893.0164184570313</ele>
        <time>2018-11-25T12:49:19Z</time>
      </trkpt>
      <trkpt lat="41.67033004760742" lon="1.9964886903762817">
        <ele>893.0164184570313</ele>
        <time>2018-11-25T12:49:23Z</time>
      </trkpt>
      <trkpt lat="41.67030715942383" lon="1.9964206218719482">
        <ele>891.7437133789063</ele>
        <time>2018-11-25T12:49:27Z</time>
      </trkpt>
      <trkpt lat="41.670291900634766" lon="1.9963500499725342">
        <ele>890.5618896484375</ele>
        <time>2018-11-25T12:49:31Z</time>
      </trkpt>
      <trkpt lat="41.6702766418457" lon="1.9962793588638306">
        <ele>889.2891845703125</ele>
        <time>2018-11-25T12:49:35Z</time>
      </trkpt>
      <trkpt lat="41.670265197753906" lon="1.9962060451507568">
        <ele>889.2891845703125</ele>
        <time>2018-11-25T12:49:40Z</time>
      </trkpt>
      <trkpt lat="41.670249938964844" lon="1.9961357116699219">
        <ele>889.2891845703125</ele>
        <time>2018-11-25T12:49:45Z</time>
      </trkpt>
      <trkpt lat="41.670204162597656" lon="1.9960763454437256">
        <ele>887.925537109375</ele>
        <time>2018-11-25T12:49:50Z</time>
      </trkpt>
      <trkpt lat="41.670162200927734" lon="1.9960119724273682">
        <ele>886.7437133789063</ele>
        <time>2018-11-25T12:49:55Z</time>
      </trkpt>
      <trkpt lat="41.670127868652344" lon="1.9959650039672852">
        <ele>886.7437133789063</ele>
        <time>2018-11-25T12:49:59Z</time>
      </trkpt>
      <trkpt lat="41.67009735107422" lon="1.9959017038345337">
        <ele>886.7437133789063</ele>
        <time>2018-11-25T12:50:03Z</time>
      </trkpt>
      <trkpt lat="41.670074462890625" lon="1.9958323240280151">
        <ele>885.4710083007813</ele>
        <time>2018-11-25T12:50:07Z</time>
      </trkpt>
      <trkpt lat="41.67007064819336" lon="1.9957506656646729">
        <ele>884.1983032226563</ele>
        <time>2018-11-25T12:50:11Z</time>
      </trkpt>
      <trkpt lat="41.67007827758789" lon="1.9956920146942139">
        <ele>884.1983032226563</ele>
        <time>2018-11-25T12:50:14Z</time>
      </trkpt>
      <trkpt lat="41.67009735107422" lon="1.9956187009811401">
        <ele>883.0164794921875</ele>
        <time>2018-11-25T12:50:18Z</time>
      </trkpt>
      <trkpt lat="41.67011260986328" lon="1.995539665222168">
        <ele>881.7437744140625</ele>
        <time>2018-11-25T12:50:22Z</time>
      </trkpt>
      <trkpt lat="41.67012405395508" lon="1.9954652786254883">
        <ele>880.5619506835938</ele>
        <time>2018-11-25T12:50:26Z</time>
      </trkpt>
      <trkpt lat="41.67014694213867" lon="1.9954006671905518">
        <ele>879.2892456054688</ele>
        <time>2018-11-25T12:50:30Z</time>
      </trkpt>
      <trkpt lat="41.67017364501953" lon="1.9953413009643555">
        <ele>879.2892456054688</ele>
        <time>2018-11-25T12:50:34Z</time>
      </trkpt>
      <trkpt lat="41.670188903808594" lon="1.995265007019043">
        <ele>878.107421875</ele>
        <time>2018-11-25T12:50:38Z</time>
      </trkpt>
      <trkpt lat="41.670169830322266" lon="1.9951956272125244">
        <ele>878.107421875</ele>
        <time>2018-11-25T12:50:42Z</time>
      </trkpt>
      <trkpt lat="41.67013931274414" lon="1.9951196908950806">
        <ele>876.9255981445313</ele>
        <time>2018-11-25T12:50:46Z</time>
      </trkpt>
      <trkpt lat="41.670101165771484" lon="1.9950577020645142">
        <ele>875.6528930664063</ele>
        <time>2018-11-25T12:50:50Z</time>
      </trkpt>
      <trkpt lat="41.670066833496094" lon="1.994989275932312">
        <ele>875.6528930664063</ele>
        <time>2018-11-25T12:50:54Z</time>
      </trkpt>
      <trkpt lat="41.6700325012207" lon="1.9949266910552979">
        <ele>875.6528930664063</ele>
        <time>2018-11-25T12:50:58Z</time>
      </trkpt>
      <trkpt lat="41.670005798339844" lon="1.9948666095733643">
        <ele>875.6528930664063</ele>
        <time>2018-11-25T12:51:02Z</time>
      </trkpt>
      <trkpt lat="41.66997146606445" lon="1.994800329208374">
        <time>2018-11-25T12:51:06Z</time>
      </trkpt>
      <trkpt lat="41.66993713378906" lon="1.994728684425354">
        <time>2018-11-25T12:51:10Z</time>
      </trkpt>
      <trkpt lat="41.66989517211914" lon="1.9946750402450562">
        <time>2018-11-25T12:51:15Z</time>
      </trkpt>
      <trkpt lat="41.66983413696289" lon="1.9946556091308594">
        <time>2018-11-25T12:51:20Z</time>
      </trkpt>
      <trkpt lat="41.66977310180664" lon="1.9946476221084595">
        <time>2018-11-25T12:51:25Z</time>
      </trkpt>
      <trkpt lat="41.66971969604492" lon="1.9946523904800415">
        <time>2018-11-25T12:51:29Z</time>
      </trkpt>
      <trkpt lat="41.66967010498047" lon="1.9946486949920654">
        <time>2018-11-25T12:51:33Z</time>
      </trkpt>
      <trkpt lat="41.66961669921875" lon="1.9946383237838745">
        <time>2018-11-25T12:51:37Z</time>
      </trkpt>
      <trkpt lat="41.66957092285156" lon="1.9946130514144897">
        <time>2018-11-25T12:51:41Z</time>
      </trkpt>
    </trkseg>
  </trk>
</gpx>
